GFSMW_925_spd_000.txt.gz
Wind_Speed
6 17 21 24 26 27 24 18 15 16 21 21 12 6 3 2 2 5 5 6 7 6 6 6 7 9 10 10 12 14 16 17 19 9 21 14 2 7 11 12 15 13 17
7 16 24 30 29 24 19 20 21 21 16 9 2 1 1 4 2 4 6 6 7 7 9 11 13 13 12 11 12 15 16 10 14 8 6 3 5 3 17 10 20 16 23
8 9 18 24 27 27 25 22 17 14 9 9 8 5 2 2 0 3 5 7 7 8 11 16 17 14 10 6 9 12 15 8 8 9 6 3 2 7 8 19 12 27 21
5 11 15 18 21 20 17 15 13 11 8 5 4 3 2 1 2 3 7 10 12 15 21 24 17 12 4 5 8 8 9 7 8 6 7 6 4 2 3 6 20 18 24
6 7 12 11 11 12 12 9 8 6 4 3 3 3 2 3 3 4 6 18 23 23 21 22 19 10 3 3 3 4 5 7 5 4 5 5 8 6 4 6 11 18 17
4 12 11 10 7 9 8 8 6 7 6 6 10 11 10 7 5 8 13 19 21 23 25 19 8 3 4 6 7 9 8 6 6 6 6 6 3 6 3 3 8 14 16
3 3 5 13 8 10 10 11 14 20 19 19 18 15 15 13 15 17 16 24 26 22 25 11 4 3 7 8 9 9 7 5 4 6 7 7 9 9 9 7 7 7 20
4 4 9 17 17 18 18 18 19 19 16 15 14 13 13 13 15 17 22 25 25 24 19 10 7 6 8 9 6 6 7 7 10 10 11 10 11 10 10 7 8 6 9
7 7 13 18 18 17 17 17 16 14 14 15 16 18 18 19 21 22 24 25 24 20 9 9 2 13 6 8 11 12 10 10 12 12 12 13 11 10 11 12 14 10 9
7 7 12 15 17 17 17 15 15 14 13 14 17 18 20 21 22 24 26 25 18 7 7 2 6 4 5 11 14 12 12 14 13 12 12 11 10 13 16 18 19 20 19
7 6 12 15 18 18 17 15 10 9 11 13 14 16 17 19 22 24 23 20 12 7 10 10 12 8 12 12 12 13 14 15 13 10 10 12 15 19 19 19 20 23 23
6 9 14 16 15 15 12 11 6 5 7 10 11 12 14 17 20 22 20 17 8 10 11 10 11 17 13 10 11 13 14 13 12 11 12 17 21 20 19 19 21 23 24
6 7 11 13 13 12 8 4 2 2 6 7 8 10 14 17 19 20 19 16 12 8 12 17 12 9 11 11 11 13 13 12 11 14 19 21 20 20 20 21 22 24 21
6 5 7 12 11 10 8 7 3 4 5 6 8 11 15 17 20 20 18 17 18 18 13 11 11 11 12 12 11 11 10 12 16 19 20 20 21 20 21 21 20 19 24
7 7 7 13 14 12 11 8 7 8 8 8 9 12 16 18 20 21 18 17 16 14 15 15 8 11 11 10 8 9 13 17 20 21 22 22 19 21 21 21 21 23 20
7 7 11 17 16 16 13 9 11 10 10 11 12 14 17 19 22 22 19 17 12 12 10 10 12 9 3 5 7 11 16 20 19 22 20 21 20 18 19 23 23 22 23
8 8 12 20 21 15 12 12 11 13 13 13 15 16 17 20 23 20 17 15 14 17 15 17 8 1 5 9 11 14 17 17 17 17 21 21 17 20 21 22 22 24 20
7 9 16 18 17 12 12 12 14 15 15 16 18 18 17 21 24 20 18 18 18 17 13 9 2 4 7 10 14 16 16 17 19 18 17 19 18 19 19 24 20 19 20
15 16 15 14 12 11 10 13 16 16 14 18 20 19 17 22 23 19 18 18 16 13 6 4 3 5 7 11 12 12 15 16 17 16 18 15 17 18 21 23 21 18 19
10 9 8 9 7 6 9 9 10 15 19 20 21 19 17 22 20 17 16 12 7 7 8 6 2 3 7 10 11 10 12 14 17 20 17 15 16 19 20 20 18 18 14
10 9 9 6 3 3 4 10 14 17 17 18 21 20 19 20 17 16 14 14 10 8 7 4 2 4 7 9 9 9 11 14 16 18 19 18 17 20 19 18 18 17 17
13 9 6 1 2 5 9 12 14 14 18 20 22 21 23 20 15 15 12 8 7 8 6 4 4 4 5 7 8 9 9 12 13 17 16 17 17 17 16 15 17 16 15
12 7 3 1 5 8 11 12 13 18 21 22 20 23 23 15 13 13 9 7 7 7 6 8 8 7 5 5 7 9 10 14 12 14 13 14 15 15 14 15 14 14 16
7 3 2 5 9 11 12 11 17 19 21 18 17 21 15 10 10 10 9 8 7 8 11 11 10 8 7 6 6 8 11 14 14 14 13 13 14 14 14 16 16 16 16
5 3 3 6 11 12 13 16 19 18 17 16 17 19 14 10 8 8 8 7 6 9 13 12 10 11 10 7 7 8 10 12 14 14 12 14 17 19 18 19 18 19 19
5 3 5 8 12 13 17 18 13 11 13 16 15 18 17 16 12 11 11 8 7 7 9 11 12 11 10 7 7 7 7 10 12 12 12 13 14 16 17 18 19 19 20

GFSMW_925_spd_003.txt.gz
Wind_Speed
8 13 17 21 24 27 28 22 18 11 9 15 17 11 5 2 3 3 3 3 3 4 4 5 7 9 11 13 13 11 10 9 12 11 14 13 7 4 3 6 8 8 11
11 14 18 22 24 27 24 20 16 18 19 19 11 4 4 4 3 1 3 4 4 5 7 11 15 14 12 11 9 7 6 6 8 9 12 7 9 11 9 11 12 12 14
15 13 17 17 18 20 20 21 21 22 12 7 7 6 5 4 1 2 3 6 11 13 14 17 15 14 13 7 3 4 6 8 7 7 6 5 5 14 10 16 15 18 21
13 14 13 15 19 21 20 19 17 11 8 5 4 4 4 4 5 5 5 9 12 14 16 16 16 13 7 2 1 4 7 8 9 9 6 7 10 6 9 13 19 18 21
13 14 19 20 19 20 15 15 13 10 8 9 11 12 13 12 10 7 9 13 15 18 19 18 18 13 5 2 1 3 4 6 6 6 7 8 9 10 9 11 16 19 17
10 12 12 13 15 16 15 16 15 16 17 19 19 17 13 10 10 12 14 16 21 23 21 20 17 9 7 3 1 3 3 2 2 4 4 8 10 11 10 9 16 19 20
8 7 10 10 10 15 17 21 22 21 18 14 12 11 11 12 13 14 15 19 19 20 20 20 13 9 5 0 3 2 3 3 4 5 7 9 9 9 9 11 15 16 24
8 7 7 10 14 18 20 21 19 18 16 14 13 12 12 12 13 15 17 19 19 20 21 12 11 7 2 0 3 6 7 7 7 9 8 9 10 9 9 10 13 13 21
8 8 11 13 15 18 18 20 19 18 14 11 10 10 12 15 17 20 22 22 22 18 12 8 9 3 1 11 7 8 9 8 10 11 10 10 11 9 9 11 13 17 14
10 10 12 13 13 16 17 17 15 14 11 9 10 11 13 16 20 22 23 22 20 15 6 9 5 7 12 7 10 9 10 12 11 11 10 10 9 10 13 16 17 18 20
13 11 12 12 15 16 16 16 12 8 8 8 8 10 13 16 18 20 20 19 16 12 6 9 8 15 7 10 8 9 10 12 12 11 9 11 12 16 17 17 18 18 19
13 13 15 16 16 15 14 12 8 5 5 5 7 8 11 13 16 18 18 16 13 10 7 9 11 12 14 7 9 11 10 13 10 10 11 15 17 18 19 19 19 20 21
13 12 15 15 15 13 11 8 4 1 1 4 5 7 9 13 15 17 18 16 13 11 13 14 14 10 11 9 12 12 11 10 9 11 13 17 18 20 20 21 22 21 20
13 12 12 14 13 12 11 6 6 4 3 4 6 7 9 13 15 18 18 16 13 12 10 12 13 13 8 11 9 8 8 9 11 14 15 17 17 19 20 20 19 18 18
12 11 12 16 16 14 11 9 6 5 6 8 9 9 11 14 16 20 20 16 13 9 12 12 8 9 9 6 4 6 8 12 15 16 16 16 15 18 18 20 21 22 23
13 12 15 18 13 12 11 10 8 6 8 11 12 12 12 15 17 21 20 16 14 11 12 13 9 6 5 7 6 9 9 12 13 15 16 17 16 15 16 17 17 18 21
14 13 16 19 19 16 14 10 7 7 11 13 15 14 15 17 17 21 19 14 14 13 12 11 7 5 2 6 10 14 10 11 13 14 15 14 14 14 15 16 18 20 18
13 13 17 17 18 16 13 11 8 11 14 16 16 16 17 17 17 20 16 14 14 13 11 9 6 4 3 7 12 16 11 11 12 13 13 14 15 14 17 20 20 19 18
15 15 18 18 15 17 13 10 10 13 12 13 17 18 19 19 17 17 15 15 14 10 8 6 6 3 2 8 12 13 10 11 12 12 13 14 14 16 19 20 19 19 19
11 12 14 13 13 12 9 8 8 8 13 16 16 18 19 18 16 16 16 15 13 11 8 7 5 3 5 9 11 10 9 11 13 13 13 12 13 17 19 18 17 18 18
14 14 12 10 10 8 7 5 7 12 13 14 17 20 20 18 18 18 15 13 12 9 8 8 6 6 7 8 9 9 8 10 13 13 14 12 15 18 17 15 13 17 20
16 17 17 12 9 8 4 6 10 12 12 17 20 20 18 18 20 14 11 10 8 7 8 8 8 9 8 7 8 8 8 9 12 12 13 14 17 17 15 13 14 15 14
15 15 13 11 6 2 4 7 11 10 15 19 18 15 16 18 13 9 8 6 6 7 7 8 9 9 8 8 9 9 9 9 11 11 13 14 15 15 12 13 13 12 11
14 9 8 5 2 2 6 8 8 13 17 14 14 14 15 15 9 8 8 7 8 8 8 10 10 9 8 8 9 8 8 10 11 12 12 11 12 13 12 12 12 11 11
5 7 6 4 2 5 7 8 11 15 10 9 12 14 14 14 11 9 8 10 10 8 6 9 10 10 10 11 9 8 8 9 11 14 10 10 10 12 12 12 12 12 13
10 8 5 3 4 6 10 11 11 7 8 10 10 14 16 14 12 11 11 13 12 9 9 9 11 14 14 13 11 10 10 10 10 10 10 10 10 11 12 13 13 11 13

GFSMW_925_spd_006.txt.gz
Wind_Speed
11 11 12 16 19 20 20 19 15 9 5 5 7 6 3 3 4 4 5 4 3 4 4 4 6 8 10 11 11 13 16 16 14 19 19 20 21 12 16 15 16 16 14
11 13 15 18 20 21 18 14 12 10 9 8 6 2 2 4 5 4 3 4 5 5 7 9 11 12 15 15 13 11 12 13 10 15 20 10 17 18 11 18 19 18 17
13 13 17 18 18 18 16 14 13 12 8 4 3 4 5 4 1 3 4 5 7 9 10 11 12 13 14 16 11 8 8 11 12 10 12 9 11 20 22 15 20 17 20
14 15 18 17 17 15 14 16 15 9 6 5 7 8 6 4 4 5 6 8 10 12 14 15 15 15 15 14 10 8 6 7 12 14 15 14 16 11 12 21 21 23 20
14 14 17 18 18 16 16 15 14 11 10 11 10 8 7 6 5 7 11 13 15 16 18 18 18 18 15 12 8 6 6 10 11 18 16 16 16 16 14 12 18 21 19
14 16 18 17 16 14 14 14 15 14 13 13 12 11 9 8 9 11 13 15 18 19 19 19 19 17 13 9 6 4 7 11 12 11 11 12 13 14 15 12 17 19 22
16 15 17 18 16 14 14 15 15 15 12 12 11 11 10 8 8 11 13 16 17 18 19 19 17 13 9 6 4 4 8 10 10 10 12 13 14 15 16 19 19 17 25
16 16 19 17 17 16 15 16 15 14 12 11 11 9 7 7 8 10 12 14 16 17 18 16 10 6 5 3 6 12 9 9 10 11 13 16 17 17 17 18 18 14 23
17 16 15 16 17 18 17 16 15 14 11 9 8 6 5 5 7 10 13 14 15 16 15 11 5 5 4 9 11 11 9 8 11 14 16 17 18 18 17 17 18 21 15
17 14 16 17 18 19 17 16 15 14 12 9 6 4 3 4 8 12 14 14 15 15 14 9 7 7 12 12 13 11 9 9 13 15 16 18 17 17 18 20 21 23 25
17 15 17 18 19 18 17 16 14 13 12 9 5 3 2 5 8 11 13 14 14 14 12 10 10 13 16 17 15 11 11 11 14 16 17 17 17 19 21 23 23 25 25
16 16 19 20 20 19 18 16 15 13 10 8 6 2 2 4 7 11 13 13 14 13 12 11 13 17 19 15 9 11 13 14 16 17 17 19 20 22 24 24 24 25 26
16 16 20 21 21 20 18 16 14 11 9 7 4 1 2 4 8 11 13 14 14 13 12 13 13 13 11 11 11 12 13 13 15 16 17 20 21 23 23 23 24 24 23
17 16 17 21 21 21 18 15 13 11 8 5 4 5 5 6 8 11 13 14 13 12 11 11 13 12 11 10 11 11 11 12 15 16 18 20 20 20 20 23 22 21 21
18 18 17 20 22 21 17 13 13 10 8 6 6 7 7 8 9 11 14 15 13 12 11 10 9 9 8 6 5 9 12 15 15 17 17 17 16 17 16 16 19 20 21
18 18 18 22 22 21 17 15 12 10 8 7 8 9 9 10 11 13 14 15 14 13 13 14 11 9 6 8 7 7 11 13 15 16 16 16 14 12 16 13 15 17 20
18 19 19 21 20 21 16 15 12 10 9 8 9 10 11 11 13 13 14 15 13 13 14 15 11 10 6 7 8 10 10 13 13 13 14 14 14 15 15 17 19 20 18
18 17 18 18 19 19 15 13 12 10 8 8 10 10 11 13 14 14 15 15 13 13 12 12 10 8 6 6 8 12 10 12 11 12 12 13 15 14 15 19 22 21 19
17 18 17 16 18 18 16 14 12 9 9 8 9 12 12 14 15 16 16 16 14 13 13 10 8 8 6 7 8 10 10 10 11 11 11 12 13 13 16 20 20 21 19
17 16 16 16 18 16 15 16 12 9 7 9 10 11 12 14 17 17 17 16 14 13 10 8 7 8 6 7 8 9 9 9 11 11 11 10 10 15 18 18 18 19 19
17 17 18 18 16 14 16 13 9 7 7 8 9 12 13 15 17 17 17 17 14 11 7 7 8 8 7 6 7 8 6 8 11 12 13 12 14 17 18 16 15 17 21
13 15 14 13 13 11 9 8 6 5 6 8 10 14 14 13 14 16 17 13 11 9 7 7 8 8 9 9 8 7 8 8 9 12 13 14 17 18 17 14 15 16 15
13 14 15 13 9 7 5 4 5 5 7 9 12 13 12 13 13 13 11 10 9 8 8 8 8 12 9 10 10 9 8 8 9 10 14 17 16 16 14 12 13 14 13
13 14 16 12 7 2 2 4 4 6 9 11 11 11 10 10 10 9 9 11 9 9 8 8 11 12 11 10 9 7 7 8 9 10 13 14 14 13 13 12 11 11 12
12 11 10 4 4 3 4 5 6 8 9 9 9 10 9 8 11 11 11 11 11 11 10 8 8 9 10 10 10 9 8 8 9 12 11 11 12 12 11 11 11 11 11
11 9 3 2 3 4 6 7 8 8 7 8 10 10 10 10 10 10 11 14 16 14 14 11 10 9 11 13 13 12 11 9 10 10 12 11 11 12 12 12 12 11 11

GFSMW_925_spd_009.txt.gz
Wind_Speed
13 13 13 15 17 18 18 17 14 10 8 7 8 8 7 6 6 6 5 5 5 5 6 7 10 13 14 16 17 18 19 22 23 19 20 21 25 20 22 17 13 16 19
12 13 14 16 17 18 17 16 12 10 9 8 6 4 4 5 6 5 5 5 6 7 9 11 13 15 17 18 19 19 19 19 19 18 17 11 18 22 23 25 24 23 17
14 13 16 16 16 17 17 15 13 13 9 8 6 6 6 5 3 3 3 6 7 10 12 14 16 17 19 20 20 19 15 18 17 17 15 12 11 21 23 24 25 26 23
13 14 17 18 17 18 16 15 15 12 7 6 6 6 7 7 5 4 6 9 10 13 15 17 18 18 19 20 19 16 11 17 16 17 18 20 22 13 14 20 21 21 23
15 16 21 23 21 18 17 17 14 11 10 10 8 6 6 4 3 5 8 11 13 14 15 16 18 18 18 18 16 14 14 14 16 17 18 18 19 20 18 13 20 23 23
16 16 19 20 18 18 16 16 15 13 12 12 11 10 8 4 4 6 8 10 12 13 14 15 17 17 17 15 14 9 10 10 14 15 14 16 18 18 18 13 20 21 25
16 17 18 21 21 19 17 17 15 14 13 12 11 10 6 5 5 7 8 10 11 12 14 16 17 16 14 10 7 7 11 12 12 13 14 16 17 18 19 20 21 17 25
16 17 20 20 19 19 18 17 17 16 14 13 11 8 5 5 3 5 7 8 10 12 14 15 15 13 8 5 6 11 12 13 14 11 14 15 17 18 20 21 20 13 21
18 18 20 20 20 19 19 19 18 17 15 13 10 7 5 5 3 4 6 8 10 12 13 14 13 7 10 9 13 13 15 15 9 11 14 15 17 19 21 20 21 19 12
19 17 20 20 19 21 20 20 19 18 15 12 10 9 5 3 1 4 7 8 10 11 13 13 13 11 11 14 16 18 16 13 12 13 14 17 18 19 20 22 22 23 23
18 17 18 19 20 21 22 21 20 17 14 12 11 9 7 4 3 4 6 9 11 12 13 13 13 14 15 18 19 17 17 15 13 14 17 18 19 21 22 23 24 26 26
18 17 19 20 22 23 23 23 20 17 14 13 12 10 8 6 5 6 7 9 11 12 13 12 13 15 17 17 14 14 13 15 15 16 17 20 22 24 24 24 25 25 27
18 17 19 22 23 25 25 23 19 16 16 14 12 11 9 8 7 8 9 10 11 13 12 12 14 14 13 14 15 14 14 14 15 16 17 19 23 24 24 23 23 25 27
17 17 16 21 24 26 25 22 19 18 17 15 12 10 10 9 9 9 10 11 12 13 12 12 12 13 12 12 13 13 14 15 17 16 19 21 20 19 17 21 20 21 22
17 17 16 19 24 25 25 22 20 18 18 14 12 10 10 10 11 11 12 12 12 12 12 12 13 11 12 9 7 12 14 13 16 18 19 18 15 17 12 15 17 18 20
16 17 18 22 24 26 26 22 19 20 17 14 11 9 9 11 12 13 13 13 13 13 13 13 12 12 12 8 10 7 10 13 16 18 17 16 15 11 18 15 12 17 20
14 17 18 22 25 26 25 21 20 18 16 13 11 9 10 11 13 14 15 15 14 13 14 13 13 10 8 9 9 8 9 13 15 15 15 15 13 15 14 15 19 21 22
13 15 18 22 24 23 23 19 19 18 14 12 8 10 10 12 14 16 16 16 15 15 13 13 11 10 6 10 9 8 9 13 13 13 13 13 12 10 12 16 19 20 20
11 14 18 20 21 22 22 21 19 14 9 9 11 10 11 13 15 16 17 17 16 17 15 13 10 10 6 9 8 7 9 11 11 11 11 10 12 11 15 15 18 20 20
11 14 17 18 20 21 23 22 17 12 13 9 9 11 12 14 16 17 18 18 17 18 15 12 9 9 6 10 11 7 7 10 10 11 10 10 7 12 13 15 17 19 20
12 12 14 15 15 16 17 13 8 6 5 1 7 10 12 15 16 17 17 18 18 16 9 7 8 8 7 9 10 9 6 8 9 10 11 9 12 13 15 15 15 15 21
10 6 6 6 7 7 5 6 6 3 4 6 8 11 13 14 14 16 17 19 18 11 9 7 8 9 10 12 11 10 9 8 9 11 11 12 15 17 15 14 14 21 16
0 3 10 13 12 9 7 3 10 5 5 8 9 12 12 13 14 15 15 15 12 9 8 10 10 10 10 11 12 11 10 10 8 10 11 15 15 14 13 10 16 13 14
4 8 15 13 11 12 7 2 5 5 7 10 10 11 12 12 13 13 15 14 11 10 9 11 11 12 8 9 9 10 9 9 10 11 9 15 14 13 14 13 11 11 12
12 12 11 10 11 5 2 3 4 6 9 9 10 11 13 13 13 12 13 15 12 10 13 14 13 8 6 9 10 10 9 9 9 11 11 12 11 12 13 12 12 11 11
12 13 10 7 1 2 4 6 7 8 9 9 10 10 11 13 13 13 14 14 17 19 18 19 14 10 10 10 12 14 14 14 11 9 12 13 10 10 12 13 12 11 11

GFSMW_925_spd_012.txt.gz
Wind_Speed
13 18 20 21 25 26 23 21 19 15 13 16 17 16 16 13 13 10 10 8 9 8 9 6 9 11 12 15 15 17 14 15 16 18 17 18 16 17 18 22 24 23 22
15 15 15 23 24 25 24 21 20 15 14 14 14 12 19 17 13 10 10 8 7 7 7 9 11 12 13 15 15 17 18 13 12 16 18 4 11 12 24 25 23 21 23
15 12 15 15 18 26 25 21 18 16 12 16 12 11 12 11 13 10 10 9 7 7 8 10 11 13 13 13 16 17 16 9 12 13 13 4 4 14 14 19 19 19 19
14 13 14 16 18 23 21 22 20 16 12 9 15 13 12 14 11 8 8 6 6 7 9 11 13 15 14 15 15 14 15 10 10 13 12 17 18 6 8 6 15 20 22
14 15 18 16 16 22 20 19 20 15 12 12 13 13 15 13 11 8 5 5 7 7 8 10 13 15 15 15 16 15 6 5 10 13 16 15 16 16 11 7 12 19 21
13 14 23 23 24 23 20 22 19 16 15 15 16 18 15 11 9 5 3 6 7 8 9 10 12 13 14 14 7 5 6 8 8 10 10 16 13 12 12 6 13 15 19
13 15 18 23 22 21 21 20 20 19 17 17 17 17 14 11 9 5 3 4 6 8 9 11 12 13 12 7 9 9 9 13 11 8 11 11 12 15 16 16 16 12 22
11 11 15 19 19 19 19 20 22 20 20 19 18 15 13 11 9 6 3 0 4 7 10 9 11 11 6 10 7 8 13 11 12 12 12 8 9 14 15 17 16 8 15
12 14 18 20 23 22 22 22 23 22 21 20 17 15 13 13 10 6 3 2 4 7 9 10 11 13 9 10 11 11 14 15 10 6 7 8 10 13 13 17 19 13 8
13 11 16 20 22 23 22 22 23 24 23 21 17 16 15 12 9 6 3 2 6 7 9 10 11 13 13 10 11 14 13 13 12 13 11 7 11 17 14 15 21 22 21
13 13 15 21 23 24 23 22 22 24 24 19 18 18 16 14 10 7 4 3 6 8 10 11 11 12 13 15 13 15 17 15 12 10 11 18 11 14 16 19 20 20 21
15 14 17 20 21 22 22 24 22 23 22 18 20 17 16 13 10 7 4 5 6 8 10 12 12 13 14 10 12 14 14 13 12 13 12 13 16 20 19 19 18 19 22
15 14 16 17 18 19 20 22 22 21 19 20 18 17 17 13 9 6 5 6 7 9 11 12 14 12 11 11 12 12 8 11 10 8 11 14 16 17 15 16 20 22 21
11 13 13 16 19 19 20 20 21 18 19 18 17 19 17 12 7 5 7 8 8 9 12 14 16 11 11 11 11 7 8 10 11 12 11 15 12 13 15 17 16 17 19
13 12 11 11 19 20 21 21 21 20 18 16 19 14 11 8 6 7 9 10 9 11 13 14 16 11 11 11 6 7 8 9 12 13 14 13 15 17 16 15 15 14 16
10 5 5 9 16 19 21 22 21 20 18 19 15 8 5 5 2 8 12 13 14 14 12 13 14 12 9 11 10 10 7 8 11 12 14 14 13 8 12 11 8 14 20
7 6 3 7 12 18 21 22 21 20 18 17 12 9 5 0 16 12 15 14 15 15 13 14 13 11 9 11 11 10 7 9 10 13 12 12 11 12 12 13 18 19 19
4 4 4 8 14 15 19 22 21 19 18 14 8 3 6 9 13 12 14 16 15 14 14 14 13 10 6 9 11 9 6 6 10 11 12 11 9 12 12 16 19 17 19
3 6 8 12 13 15 18 23 18 17 15 10 4 6 11 8 14 12 12 14 17 16 16 15 12 6 7 9 10 7 5 6 10 10 11 12 10 12 14 18 16 18 19
11 10 9 8 12 14 14 18 13 10 10 2 3 5 14 18 14 14 14 15 15 15 16 13 4 5 6 8 9 9 6 7 8 9 10 13 8 10 13 13 16 18 19
17 14 7 13 7 10 13 15 14 11 8 6 6 9 15 12 13 14 12 14 17 17 18 9 5 5 7 9 11 12 10 7 8 8 9 8 7 13 17 13 14 15 19
14 16 25 26 26 20 16 17 16 10 7 5 7 14 12 11 12 15 17 16 17 19 11 5 6 7 10 15 17 15 11 10 10 10 11 11 13 17 13 12 12 14 16
18 24 23 25 26 26 23 21 14 8 5 7 9 10 11 11 11 12 16 15 17 17 5 7 9 10 14 18 19 18 15 12 9 8 10 12 13 15 15 12 14 14 14
21 18 21 20 19 18 17 13 7 1 8 10 11 10 10 11 13 14 12 13 15 14 10 9 12 15 16 11 15 17 16 14 13 11 11 10 15 13 13 13 12 10 11
19 19 18 16 13 10 8 4 6 9 9 10 11 11 12 14 13 14 12 12 15 17 14 11 13 17 16 12 8 9 14 15 13 11 12 13 13 11 11 12 13 11 11
13 13 11 8 6 4 6 6 6 8 10 11 12 12 12 13 15 17 17 11 14 17 20 22 20 18 17 15 13 11 14 16 15 14 11 13 15 13 11 13 15 11 9

GFSMW_925_spd_015.txt.gz
Wind_Speed
16 29 33 38 38 35 32 30 28 23 20 20 21 22 22 24 17 14 13 13 13 9 5 1 4 6 9 10 11 9 12 14 8 7 12 11 5 11 15 15 17 18 18
11 19 29 34 38 38 35 31 26 23 23 23 27 27 28 20 15 16 13 9 6 5 4 4 5 6 8 9 8 11 13 10 6 6 5 3 6 12 17 19 23 15 18
17 12 22 33 34 38 37 34 28 22 24 23 27 26 25 22 21 19 14 12 9 6 2 4 6 8 10 9 10 10 5 5 4 8 6 3 1 5 4 12 14 17 18
13 12 15 24 31 33 37 34 29 22 27 31 33 34 30 24 23 19 14 8 3 2 4 5 7 11 13 13 11 11 9 1 6 4 9 9 9 1 4 10 9 18 19
17 13 15 24 31 34 33 31 27 29 22 24 26 26 29 26 23 16 9 5 2 1 2 5 9 12 11 13 10 3 3 8 8 7 6 8 7 6 2 3 9 14 18
10 11 21 27 28 29 29 30 31 25 26 25 25 29 30 25 18 12 8 6 5 2 2 6 9 10 10 4 4 7 8 9 10 8 5 6 1 3 2 2 4 13 16
12 12 12 19 28 23 32 32 30 26 24 25 27 27 24 19 14 12 8 6 5 1 3 8 7 9 10 4 7 12 10 10 9 7 8 8 8 8 8 6 10 4 19
9 13 17 20 22 30 32 31 30 27 24 23 21 19 17 15 13 12 8 5 2 2 4 4 7 7 8 7 11 10 12 11 8 11 10 8 10 11 7 7 8 4 5
8 13 12 22 27 31 28 30 30 27 24 22 20 18 17 17 15 11 7 5 0 3 6 8 8 9 8 10 11 11 11 9 11 13 9 5 5 4 9 11 9 10 6
9 8 15 22 28 31 27 23 28 28 27 24 22 19 17 15 12 10 8 5 2 4 5 7 9 9 10 9 9 7 5 9 10 3 1 5 13 14 10 11 14 15 15
12 11 17 25 33 33 30 26 27 30 28 25 22 16 14 13 11 10 7 6 3 4 5 7 10 10 10 11 7 8 8 6 2 1 2 2 4 7 12 11 11 12 15
14 13 21 26 28 32 35 33 28 34 31 28 20 17 16 15 11 10 9 5 6 4 5 8 10 12 13 5 10 12 10 2 5 6 6 7 9 11 11 13 12 14 19
11 13 14 22 27 28 32 36 30 35 34 28 21 21 18 16 14 11 7 8 5 6 7 10 12 12 9 10 10 10 1 1 3 4 8 7 8 8 10 13 16 15 16
14 13 13 15 27 32 35 37 33 34 34 27 26 25 20 19 16 13 9 6 7 8 9 12 14 16 11 10 9 8 5 5 3 4 7 8 8 11 14 14 12 13 14
4 7 9 9 21 24 24 31 32 31 31 28 28 21 20 21 15 7 1 9 10 12 15 15 17 16 16 13 13 12 12 8 9 7 8 10 12 13 14 9 11 10 15
6 7 5 10 18 23 26 30 31 31 29 29 22 15 19 16 11 5 11 13 14 18 23 19 17 16 13 14 14 12 11 8 8 7 8 11 11 9 6 6 6 10 14
6 7 6 9 16 24 30 33 33 32 29 26 19 23 22 13 7 3 9 18 19 21 21 21 21 17 14 13 13 11 10 8 6 7 9 11 9 12 10 14 17 19 19
7 6 3 5 16 25 29 31 30 31 28 22 23 19 14 7 7 8 19 15 14 16 16 20 19 17 15 12 12 11 10 7 7 7 9 11 11 13 14 18 17 19 17
8 9 8 7 12 19 26 29 29 30 28 27 20 13 11 10 7 9 11 18 17 17 14 15 16 14 13 12 11 11 9 7 7 9 10 10 11 13 12 14 18 20 19
18 21 21 21 5 10 22 26 22 24 22 23 20 16 11 6 3 16 19 16 13 14 15 15 12 13 13 12 12 11 9 9 8 10 9 10 11 10 12 15 17 18 16
22 26 29 27 26 24 33 29 30 28 22 18 16 12 5 2 13 14 14 15 18 17 17 19 14 12 10 10 11 12 12 10 9 12 13 11 10 12 15 15 15 14 14
22 23 27 27 29 28 33 27 27 21 22 19 11 4 5 11 10 10 14 18 19 18 22 20 15 12 12 11 13 13 13 13 12 12 13 12 12 16 16 13 13 15 16
20 21 24 25 26 24 25 24 18 15 13 6 4 7 11 10 13 17 16 18 14 14 19 13 17 16 15 16 18 15 16 16 17 14 12 11 12 14 15 14 16 16 17
19 20 22 19 17 16 15 13 8 5 5 2 7 11 11 14 15 14 17 18 16 14 15 14 18 18 17 19 18 21 19 19 19 18 16 16 15 16 15 15 13 13 13
15 15 15 14 13 10 9 8 7 6 6 9 11 13 15 15 17 16 15 16 15 16 14 14 16 16 18 21 20 18 20 21 20 18 18 18 17 16 16 16 15 13 14
13 14 13 11 8 7 7 6 8 8 9 13 14 15 15 15 17 19 21 17 18 17 19 17 18 20 22 20 20 20 17 16 17 18 22 23 20 18 19 19 17 14 13

GFSMW_925_spd_018.txt.gz
Wind_Speed
19 32 34 35 38 36 37 35 33 29 26 24 26 26 24 22 20 18 16 15 12 9 5 2 2 5 6 7 9 7 9 10 6 4 3 2 3 7 11 13 10 10 11
14 24 30 32 38 40 36 36 32 29 27 23 27 26 26 23 20 18 16 13 12 8 4 2 3 3 4 3 4 6 7 5 3 1 1 2 3 2 12 9 8 11 12
20 19 29 34 34 35 39 38 36 31 28 25 28 27 27 22 21 19 16 14 10 7 4 5 3 2 4 4 4 4 1 4 5 4 2 1 2 2 1 2 7 10 12
17 17 25 27 32 37 43 41 38 35 30 27 31 35 32 27 26 23 21 17 11 8 6 3 1 4 4 4 4 4 3 4 3 2 4 3 4 3 2 0 1 6 9
18 18 27 34 35 39 41 42 38 32 33 33 35 38 32 29 28 25 21 15 11 7 4 1 2 4 5 4 3 6 6 5 2 2 2 4 3 3 3 3 3 6 7
11 9 24 28 28 33 33 30 32 30 34 36 39 41 36 30 29 25 19 14 11 7 4 2 5 5 4 2 1 4 5 3 2 1 2 2 3 4 3 2 5 6 5
11 14 15 24 25 29 32 31 32 31 33 34 36 39 35 35 29 23 17 14 12 8 4 2 3 4 1 1 5 7 5 4 4 4 7 8 7 5 7 6 5 3 7
14 15 17 24 28 32 36 36 37 34 30 31 31 33 32 27 21 16 13 12 9 5 4 4 5 5 3 4 7 8 6 7 7 6 8 9 6 7 3 4 5 3 4
9 12 15 23 27 32 36 39 37 35 33 30 29 27 23 20 17 14 11 9 6 3 1 2 5 6 6 6 6 9 10 10 10 12 9 6 3 3 7 10 5 5 3
8 9 14 19 23 31 39 39 38 36 32 29 26 25 22 18 16 13 10 8 4 2 2 3 5 7 8 9 8 6 6 7 9 6 6 9 10 12 10 6 8 5 3
13 13 15 25 31 31 35 39 38 36 34 31 29 27 24 21 18 15 14 6 5 1 3 4 7 8 8 9 9 6 8 7 6 4 5 5 4 5 9 9 8 7 8
13 15 20 25 28 33 37 41 40 39 39 36 36 32 27 24 21 17 13 11 7 5 5 5 8 9 10 11 8 8 8 8 7 6 5 4 5 9 9 10 9 10 10
9 8 11 20 27 32 33 36 42 43 41 40 36 31 27 25 23 20 17 15 10 8 7 8 9 10 11 12 12 13 12 9 7 5 5 5 7 9 8 11 11 9 10
8 7 9 15 24 29 32 27 26 29 36 37 35 32 30 28 24 22 21 13 11 10 8 11 10 11 12 14 18 14 11 11 10 7 7 10 8 9 10 11 8 9 10
5 5 5 6 15 18 21 21 27 33 37 37 36 33 31 28 26 23 18 10 9 5 10 12 18 18 18 19 22 19 16 13 10 8 7 8 9 10 10 8 7 7 10
5 3 5 9 18 23 24 25 30 34 37 37 37 32 30 28 22 21 15 8 3 5 12 17 22 25 23 22 22 21 18 16 13 10 9 10 11 12 11 9 8 9 11
6 5 2 7 15 22 30 31 34 34 35 33 28 29 25 29 23 15 12 8 5 9 19 25 24 22 26 23 22 20 16 11 12 12 9 9 11 12 11 10 10 13 15
7 7 8 3 14 23 30 31 32 29 24 21 22 25 29 23 18 13 11 8 6 13 16 20 20 21 21 21 20 19 16 14 15 12 10 11 12 11 11 11 14 15 18
6 10 14 13 6 12 15 20 22 26 29 27 28 27 26 21 13 9 7 5 15 18 14 14 16 17 16 18 19 18 16 12 14 11 11 12 12 12 12 11 13 18 20
15 16 18 19 19 12 18 25 24 24 23 23 25 24 18 14 8 4 5 11 12 15 16 17 18 18 16 16 18 19 15 15 13 12 11 11 13 12 10 11 14 18 17
16 18 25 25 22 21 27 29 27 24 23 24 19 15 7 2 3 6 11 12 14 15 20 19 18 18 17 18 18 18 18 17 15 14 12 12 13 12 11 11 14 16 15
18 21 24 23 23 24 28 26 26 22 19 14 6 3 5 5 6 9 9 13 16 14 15 16 17 16 17 18 17 19 19 17 18 17 14 12 11 13 12 12 15 14 16
17 19 20 22 22 20 20 22 16 11 6 2 2 4 4 8 12 12 15 15 14 16 16 16 18 17 21 21 21 20 20 21 22 19 16 14 13 12 13 15 15 16 19
15 17 19 19 18 17 16 13 8 6 5 2 2 7 10 11 12 13 14 14 17 20 21 19 15 18 19 25 24 25 26 27 26 23 21 18 17 16 16 17 16 17 17
16 19 19 17 14 11 10 7 6 5 6 8 10 11 13 15 16 16 17 19 19 21 21 24 21 20 21 23 25 26 28 31 31 27 24 22 22 21 21 19 19 18 18
16 15 14 11 8 7 8 9 10 11 12 14 16 16 17 18 19 21 24 24 24 22 23 24 25 27 29 28 25 25 26 26 26 25 27 28 28 26 25 23 22 19 19

GFSMW_925_spd_021.txt.gz
Wind_Speed
23 27 27 28 30 31 29 26 28 30 31 29 26 22 22 21 20 20 18 17 16 14 10 7 6 2 2 4 4 3 5 5 4 3 2 3 6 6 6 6 6 7 9
13 22 25 27 33 37 35 31 34 33 31 30 25 22 24 23 22 20 19 17 15 13 8 6 2 1 3 4 4 5 4 3 2 2 1 2 3 2 5 4 4 3 6
17 17 24 28 30 33 38 38 39 36 32 29 26 24 24 22 22 22 21 17 13 10 7 4 1 2 6 7 7 5 2 2 2 1 1 1 3 3 4 3 2 3 10
13 13 21 26 31 36 40 44 42 39 35 31 29 31 34 27 26 25 19 16 11 8 5 2 2 4 7 8 7 5 2 1 3 3 2 1 1 3 3 5 4 3 7
14 17 24 30 30 32 34 39 39 40 37 33 32 35 32 29 26 23 20 16 12 8 4 1 3 5 5 4 3 3 4 3 1 1 2 4 5 7 5 3 4 7 8
12 13 23 24 25 30 33 36 37 40 38 35 35 37 35 33 28 26 23 18 14 9 6 3 4 6 5 3 2 2 2 1 1 1 2 5 6 6 6 3 8 7 7
13 11 15 22 25 31 36 38 38 37 41 37 38 38 38 35 33 31 25 20 16 12 8 4 3 4 4 4 5 2 2 2 1 3 4 7 8 9 8 8 5 6 6
13 15 19 26 27 30 33 33 36 35 39 39 40 38 37 35 35 29 23 19 15 10 7 5 6 4 5 5 8 7 4 5 5 7 8 9 11 10 7 5 5 3 4
11 15 18 27 28 28 35 40 39 36 35 35 35 35 35 35 33 27 21 18 14 13 12 4 3 6 5 5 5 7 7 7 8 9 12 12 9 9 8 8 7 4 2
7 9 14 23 28 31 34 40 42 43 43 38 35 31 32 34 31 27 24 22 21 17 9 10 7 5 6 5 4 6 6 6 9 12 12 10 10 11 13 10 9 12 10
9 11 15 23 27 29 35 39 40 38 38 37 37 37 36 34 29 27 25 24 18 12 11 9 5 5 7 5 6 6 5 8 8 9 10 11 11 10 11 12 10 10 9
10 12 15 20 25 29 33 38 38 40 41 40 39 38 35 33 31 29 26 23 17 14 11 8 5 3 6 7 8 10 10 10 10 11 12 10 10 12 13 13 12 11 11
6 3 6 12 19 24 27 30 33 33 32 37 36 34 35 36 34 30 27 22 19 15 12 8 5 3 8 11 11 14 15 14 13 15 15 14 13 14 13 12 13 13 11
6 5 4 6 15 19 18 20 24 27 29 30 34 36 39 38 35 30 29 25 21 17 11 8 5 10 11 12 14 17 20 18 16 17 17 15 15 14 12 13 14 13 12
6 6 5 5 10 13 15 22 27 29 32 35 35 39 39 35 32 30 27 25 19 14 9 6 8 17 15 18 20 21 23 21 17 16 13 12 14 13 13 13 13 11 11
6 3 5 7 13 18 23 23 27 30 29 33 36 35 34 30 29 27 22 15 11 6 3 8 15 19 22 25 24 25 25 24 18 17 13 15 16 13 14 13 12 10 11
8 9 8 8 9 15 21 28 31 31 35 37 31 27 28 25 23 21 19 15 9 2 13 13 18 19 21 20 20 22 24 24 21 16 13 16 15 14 14 13 13 12 11
7 6 8 10 8 7 10 14 16 21 19 15 17 18 20 25 25 22 15 9 4 11 12 16 19 17 17 17 17 19 22 23 19 18 15 16 15 15 15 15 15 14 13
7 10 13 14 15 10 1 8 11 15 18 20 23 26 31 27 18 10 7 9 13 12 13 16 17 19 20 19 18 18 21 22 21 17 16 16 16 15 15 16 16 15 15
13 14 15 17 20 16 14 20 22 24 24 26 27 28 21 13 9 4 11 11 11 13 14 18 21 23 23 17 17 17 21 22 20 20 18 17 17 15 15 17 15 16 15
15 16 20 21 19 17 21 25 25 24 26 28 22 14 9 6 8 12 10 9 13 15 18 21 19 17 17 18 18 20 23 24 24 22 21 20 18 16 16 16 16 16 13
14 17 20 22 19 18 25 25 25 21 18 13 10 7 7 9 8 6 9 14 15 19 21 20 20 15 19 18 18 21 23 24 24 25 24 21 19 18 17 17 16 15 13
15 18 21 24 22 20 23 21 13 9 7 5 4 2 3 5 8 12 16 17 18 19 21 22 24 24 18 16 19 22 24 25 26 28 26 23 21 20 18 18 17 16 16
16 19 22 21 19 18 18 15 11 9 9 8 7 8 9 10 12 13 15 17 20 22 24 24 26 27 25 20 18 22 28 28 30 30 31 28 24 22 22 20 21 19 17
17 19 19 18 16 14 14 12 11 10 10 10 11 12 13 14 17 18 19 21 23 24 27 29 30 29 30 30 23 22 24 26 31 34 34 32 28 27 27 27 26 22 19
17 17 15 15 14 15 16 15 14 12 12 13 15 16 17 18 20 23 27 25 27 28 28 29 30 34 33 32 31 31 30 28 27 26 25 26 30 31 31 31 29 26 22

GFSMW_925_spd_024.txt.gz
Wind_Speed
15 18 24 26 24 25 25 25 24 24 24 25 23 23 22 21 19 17 17 18 19 17 15 13 9 7 5 6 5 5 4 4 4 5 4 6 6 6 8 7 5 4 5
7 14 20 26 29 30 28 27 27 28 28 31 31 26 25 21 18 18 18 18 19 17 14 10 8 7 5 4 3 3 5 4 3 2 0 2 3 2 4 3 1 2 4
12 11 17 24 29 32 34 34 31 31 32 34 31 25 23 20 21 21 20 20 17 15 12 9 7 4 3 3 3 4 5 4 2 2 2 1 2 3 3 3 1 2 5
10 12 20 23 27 30 33 34 34 33 35 34 33 31 32 27 25 27 23 20 16 14 11 8 6 4 3 5 7 6 5 4 3 3 1 0 1 2 3 3 6 7 7
14 15 21 28 31 35 36 37 36 35 38 38 36 33 32 32 26 26 24 20 17 14 11 8 6 5 5 7 5 7 7 4 1 2 2 3 5 6 4 2 5 9 11
11 13 19 22 25 35 37 37 37 38 39 38 37 36 34 33 27 28 25 23 21 17 13 9 7 6 4 4 3 5 3 1 1 4 6 5 5 6 8 4 8 8 12
12 11 14 21 24 34 38 37 37 35 38 39 40 37 38 35 32 35 32 27 24 21 16 10 6 2 2 2 3 1 2 4 6 7 7 7 10 11 10 8 6 7 5
13 16 18 25 27 29 32 33 34 34 39 40 41 38 35 36 36 36 35 34 29 23 18 14 11 6 6 3 8 8 9 9 10 10 12 11 12 12 13 10 6 2 4
9 13 15 24 25 26 34 40 35 36 40 43 43 41 37 38 39 36 36 33 27 22 19 16 7 8 6 7 10 12 12 10 10 11 14 15 14 12 12 12 11 7 2
8 8 9 19 25 30 32 33 36 41 46 43 41 41 39 37 38 37 37 31 27 24 19 12 9 9 9 9 8 10 12 11 9 9 11 13 13 12 12 13 13 13 12
7 7 8 18 24 25 30 36 38 35 37 36 36 36 35 34 34 35 36 33 27 24 20 14 14 12 11 10 10 12 13 12 10 9 10 12 13 14 14 13 14 14 13
7 6 6 11 17 25 21 29 29 32 35 35 33 32 29 28 30 35 34 30 29 24 17 16 15 12 11 9 12 14 16 14 13 11 11 14 15 16 14 15 17 17 15
6 6 6 9 12 8 17 18 24 29 33 32 32 30 30 32 35 36 34 31 28 21 20 18 15 11 5 11 13 14 15 16 18 17 16 17 18 17 16 18 17 16 16
6 5 3 2 7 10 14 16 22 26 28 29 30 33 36 37 36 35 33 30 25 23 20 16 13 7 5 13 15 17 18 20 22 22 21 19 19 18 18 18 17 15 15
3 0 2 4 7 9 13 18 20 23 25 25 27 28 29 31 31 32 30 28 26 23 21 19 12 6 11 17 18 21 25 26 26 23 22 21 18 17 18 17 16 15 15
8 8 7 6 3 6 12 16 21 24 25 27 29 28 27 27 26 26 24 22 20 17 13 8 2 11 15 18 21 21 25 26 29 27 24 20 18 17 18 16 15 14 15
7 8 8 9 15 13 8 5 11 15 18 19 19 20 20 20 21 22 21 19 16 12 4 2 13 18 17 21 20 20 22 25 26 30 26 22 19 18 17 16 15 15 15
8 8 9 15 19 14 12 7 2 5 10 8 10 14 17 17 16 20 21 13 9 9 6 12 18 16 20 20 20 20 22 24 26 28 26 23 17 18 17 15 17 18 17
5 8 15 17 18 18 14 14 13 12 14 17 18 18 20 25 24 19 11 6 4 8 13 15 13 18 25 23 25 24 24 24 24 25 25 23 19 18 17 17 19 20 20
12 16 19 21 22 18 16 20 21 22 23 23 24 26 25 19 14 8 5 8 12 15 14 16 18 21 25 20 21 20 21 20 22 23 23 24 21 19 17 18 19 21 21
16 20 24 24 19 18 21 25 24 23 25 27 22 17 12 7 1 7 14 13 13 13 15 19 22 24 21 20 20 21 22 22 24 27 27 26 23 22 20 19 20 23 18
17 20 22 23 21 23 29 26 24 19 16 13 9 5 4 4 4 5 7 9 13 16 20 23 26 25 23 23 22 20 21 21 24 28 28 26 24 24 23 20 21 20 18
17 20 22 25 25 23 23 22 15 12 11 11 10 9 7 5 6 9 12 15 17 19 22 24 27 30 29 26 23 23 20 21 26 28 26 26 23 25 25 24 22 20 21
18 21 23 22 23 21 20 17 13 12 12 13 13 12 12 11 11 12 14 16 19 22 24 25 25 30 33 34 29 24 26 24 23 29 31 31 31 29 28 27 27 26 25
19 21 21 21 20 20 20 17 15 12 14 14 15 15 15 15 17 17 18 19 20 19 22 24 25 25 29 30 33 34 31 29 29 29 28 29 32 28 31 33 32 31 28
20 21 21 22 20 21 21 19 17 16 15 15 15 16 18 19 20 21 24 23 21 20 20 22 24 30 29 34 36 36 37 39 37 30 25 26 24 25 26 27 29 31 32

GFSMW_925_spd_027.txt.gz
Wind_Speed
15 16 18 21 21 22 22 23 23 23 22 22 18 18 19 20 20 20 20 20 21 19 17 16 14 13 9 7 7 7 6 4 6 6 3 3 4 6 6 6 4 2 2
12 15 19 21 24 25 25 24 26 27 28 26 24 21 23 21 21 21 20 20 20 19 17 16 15 12 10 9 8 9 6 4 7 4 2 3 6 7 8 7 5 4 1
16 14 20 25 26 26 27 26 25 27 28 29 27 21 22 19 17 18 19 21 21 20 18 16 14 12 9 8 8 9 9 10 6 6 3 3 3 2 6 8 5 4 4
16 15 21 26 29 29 27 28 29 33 32 32 31 32 24 18 17 21 22 24 23 22 20 18 15 11 10 9 9 8 6 5 6 4 5 5 3 3 3 4 4 6 7
18 19 23 26 26 26 28 30 29 31 30 33 32 30 26 24 22 25 26 25 24 22 22 20 17 15 14 14 9 6 5 8 8 6 5 4 3 4 6 7 6 6 7
18 19 24 24 26 26 26 30 28 27 27 32 33 34 35 31 25 29 29 27 25 24 23 21 18 17 17 14 10 6 11 7 4 5 5 5 4 4 6 7 9 9 11
18 18 19 26 27 28 28 27 27 27 29 33 35 37 39 34 33 34 36 35 32 31 29 25 21 20 16 11 12 11 11 8 6 8 6 6 6 5 6 8 11 10 10
16 19 21 25 27 28 28 27 28 28 28 33 36 39 37 35 32 32 35 37 35 32 30 25 22 19 10 11 15 13 11 9 10 9 8 8 8 9 9 10 9 8 11
13 16 19 25 26 25 29 32 28 27 27 33 34 36 37 36 35 35 37 37 34 32 29 26 23 16 16 17 15 10 9 9 9 9 10 11 12 11 11 11 11 12 9
6 10 13 20 21 23 22 22 26 30 31 27 29 33 35 37 35 35 37 35 33 30 30 26 21 15 19 16 14 9 10 11 11 12 11 11 11 11 11 13 12 13 15
7 5 9 14 17 17 21 25 27 25 24 24 33 34 35 33 33 34 34 34 32 33 31 27 20 20 18 13 9 8 11 14 14 15 14 12 12 12 13 13 13 13 13
6 5 6 6 9 14 15 17 18 20 21 28 30 30 29 28 31 31 35 34 35 36 32 28 24 23 16 12 8 8 14 17 17 17 16 15 13 15 14 14 15 14 14
3 3 2 4 5 7 8 12 15 19 22 23 22 20 19 19 20 22 28 29 34 33 29 24 22 19 14 10 11 9 16 20 21 20 19 18 14 15 16 16 15 15 14
2 2 2 3 5 8 10 10 11 13 14 15 16 16 16 16 16 19 22 28 32 32 27 21 16 14 9 6 8 14 19 22 23 25 24 22 21 20 18 17 17 15 14
8 7 5 4 2 2 3 4 5 7 8 11 11 12 13 13 14 18 24 27 27 27 25 24 20 14 5 8 16 17 19 21 24 27 29 27 27 26 21 17 16 15 15
11 12 12 12 11 7 4 3 3 4 5 5 5 6 7 9 14 17 18 18 21 22 21 21 20 14 10 16 17 20 20 23 24 24 24 28 29 26 24 21 21 18 15
10 11 10 11 11 12 11 8 4 1 0 1 2 3 6 8 10 12 13 16 19 17 17 14 8 7 14 20 18 20 25 23 22 22 22 20 24 26 21 20 20 20 20
8 9 11 13 14 13 15 14 12 10 8 7 5 5 7 8 10 12 15 17 18 13 10 9 11 16 21 20 20 23 27 25 26 25 23 21 21 24 23 18 16 17 17
9 12 13 14 15 16 15 17 18 16 15 13 13 12 14 16 18 19 19 15 10 8 11 13 17 21 25 21 22 25 23 23 24 23 24 22 21 23 25 19 18 17 18
12 13 14 15 17 16 17 22 20 20 19 17 16 16 17 17 16 12 10 5 4 7 13 20 22 22 19 22 25 22 20 23 22 23 23 23 23 26 26 23 21 18 19
14 14 16 19 18 17 20 25 23 23 19 19 17 15 12 9 6 3 1 5 7 9 11 14 17 19 22 26 24 23 24 23 22 19 19 22 26 29 28 26 26 26 18
15 16 22 22 20 20 24 24 20 15 14 13 13 12 11 10 8 6 5 6 7 9 12 15 17 17 21 23 24 23 24 26 25 24 23 25 28 29 27 28 31 27 24
19 20 24 24 20 18 18 19 14 14 14 14 13 11 10 9 9 8 8 8 9 9 12 14 17 19 17 19 23 26 27 26 29 31 30 29 29 27 28 30 31 30 23
20 21 23 22 19 17 17 16 15 14 14 14 13 11 11 9 9 8 9 9 11 13 14 16 19 21 21 20 20 24 27 27 25 27 32 35 31 30 33 28 30 29 28
20 20 21 20 19 18 18 17 15 13 14 12 10 10 9 10 10 10 10 10 10 11 14 15 16 20 22 22 29 29 30 29 30 32 31 27 23 24 25 25 25 27 28
21 21 20 21 18 18 17 15 14 13 11 10 9 10 10 10 10 11 10 10 9 9 10 13 15 18 19 28 31 32 31 31 28 28 27 27 26 25 26 26 25 26 27

GFSMW_925_spd_030.txt.gz
Wind_Speed
15 17 20 22 23 25 24 24 23 20 19 18 18 17 19 16 14 13 15 15 15 16 15 12 13 11 10 9 7 6 5 3 3 4 6 7 7 8 7 7 7 5 5
15 18 20 21 22 23 24 24 24 23 22 19 19 18 18 17 16 15 15 16 16 17 16 15 14 13 11 9 9 7 6 5 6 6 8 5 7 9 9 9 8 7 7
16 16 21 23 25 26 26 25 24 23 22 22 20 17 15 12 15 16 16 18 19 18 16 18 17 16 12 11 11 12 11 7 6 10 8 4 5 2 9 11 9 8 8
17 17 23 26 28 29 27 26 26 25 24 24 22 22 21 18 17 16 16 19 19 19 19 19 18 17 15 14 13 13 13 11 9 8 11 9 7 4 4 8 9 9 10
18 19 21 25 26 27 29 27 27 27 26 26 26 24 24 20 17 16 19 19 19 23 21 20 18 16 14 13 13 15 11 10 8 9 7 8 7 7 8 8 8 8 10
21 21 26 25 26 27 28 28 28 28 27 27 28 27 25 22 20 22 22 21 20 25 22 20 19 17 15 15 16 15 10 9 10 7 9 10 8 9 9 9 11 10 10
20 20 21 25 27 29 29 29 30 31 29 30 29 30 28 25 27 25 23 22 21 25 22 19 19 21 20 20 18 12 11 13 11 9 9 9 8 9 10 10 11 11 11
18 22 22 28 27 29 30 29 29 31 30 31 31 28 26 25 24 23 26 27 25 29 25 27 25 20 21 20 15 12 13 12 10 10 11 10 10 9 10 10 10 8 13
12 16 18 24 26 26 29 31 31 29 30 31 28 28 26 27 24 25 30 31 28 25 31 29 26 21 21 18 14 13 13 12 11 12 12 11 10 10 10 11 12 12 9
3 7 9 14 19 22 23 25 27 29 27 25 25 25 25 25 22 22 27 30 28 22 22 24 23 21 22 19 15 14 13 12 10 13 13 12 10 11 12 14 14 14 15
1 2 5 8 11 14 17 20 22 23 22 23 22 22 22 21 25 22 21 21 22 23 25 32 33 27 27 15 17 13 12 13 10 13 15 14 12 13 13 14 15 16 17
2 1 3 7 9 11 12 14 15 17 17 16 16 17 15 17 18 19 18 18 20 25 32 31 26 26 19 17 15 13 8 6 14 18 18 17 15 16 16 16 17 18 18
1 4 5 5 8 8 8 8 9 9 9 9 10 12 13 12 14 14 14 19 24 28 27 27 26 22 21 18 16 11 7 17 17 18 20 20 20 21 21 20 19 19 18
3 3 6 5 6 7 6 6 6 5 5 6 8 9 10 10 11 12 12 13 15 18 23 27 24 21 18 16 13 8 12 16 17 19 21 22 24 25 24 23 22 21 20
5 5 6 7 9 9 8 7 7 6 5 6 5 4 4 5 6 7 9 10 13 16 22 24 23 17 19 12 4 7 15 16 18 21 24 27 29 30 30 28 25 22 21
9 10 10 11 12 12 11 11 10 9 7 6 6 5 4 4 4 6 8 10 13 16 21 20 23 17 11 9 13 14 14 18 21 24 24 25 28 31 36 37 34 26 21
12 11 11 11 13 14 13 14 12 11 10 9 8 7 6 6 6 7 8 10 12 15 16 15 14 16 13 17 19 19 19 19 22 23 25 26 26 26 28 27 33 31 28
11 11 11 13 14 14 15 15 15 15 14 13 12 11 10 10 10 10 11 11 13 15 15 15 15 11 16 19 21 22 23 19 24 26 27 28 29 28 26 26 24 25 23
11 12 13 14 14 15 15 17 18 17 17 17 16 14 13 14 13 12 11 10 10 8 8 7 10 15 18 19 24 21 17 22 25 24 25 26 27 26 27 27 27 26 23
13 14 14 15 16 15 15 18 18 19 19 18 17 16 15 14 13 10 7 5 2 1 3 7 10 16 17 15 18 20 20 22 24 25 26 26 27 27 27 28 29 27 24
15 15 15 16 16 16 17 20 20 20 18 17 16 14 12 11 8 6 4 2 2 3 4 6 8 11 13 15 16 18 17 20 24 26 28 26 25 28 28 32 30 30 26
17 16 17 18 17 17 19 20 19 15 14 14 13 12 10 8 6 5 4 3 3 4 5 7 9 10 11 13 15 18 18 19 22 26 28 29 29 29 31 32 35 34 31
18 18 19 20 17 16 17 18 15 13 13 12 12 10 9 8 7 6 5 4 5 6 7 9 11 12 13 15 18 22 26 28 31 29 31 33 33 34 34 34 35 36 30
20 21 20 20 18 16 16 16 14 12 12 12 11 9 8 7 6 5 5 5 6 7 8 9 11 12 14 15 17 23 25 26 27 29 31 33 39 35 35 32 31 37 34
21 20 19 19 19 17 16 14 12 11 12 11 9 7 6 6 5 5 5 6 6 6 7 8 10 12 14 15 20 22 24 26 29 32 30 28 27 27 29 28 29 28 30
22 21 20 20 19 17 15 13 11 10 10 9 8 7 6 5 5 4 2 6 6 5 4 7 8 11 11 18 22 22 23 27 25 26 24 24 24 25 27 28 27 25 28

GFSMW_925_spd_033.txt.gz
Wind_Speed
17 17 20 25 23 26 27 26 25 25 24 21 23 21 21 21 18 16 17 15 16 15 14 13 13 13 13 13 11 9 8 7 6 5 8 11 11 7 7 7 8 8 7
16 20 23 24 28 27 26 27 27 25 24 23 22 20 20 22 20 17 17 17 17 16 15 16 15 16 16 14 13 12 11 8 8 4 7 6 6 11 12 10 10 9 9
18 19 23 26 26 28 30 29 28 27 26 24 21 20 19 20 20 17 17 18 18 19 19 18 17 18 17 16 16 14 12 10 8 6 6 4 5 7 13 13 11 10 11
18 19 23 27 29 29 28 28 28 28 28 26 23 24 23 23 20 21 19 19 21 20 20 19 19 18 17 16 16 13 12 8 7 6 9 12 11 4 4 11 13 13 12
19 21 23 30 31 31 31 30 29 29 28 27 27 25 24 22 21 21 19 23 20 20 19 19 18 18 16 14 14 13 12 8 7 7 10 13 12 11 8 7 9 14 13
20 20 27 29 29 30 31 31 31 30 29 29 29 28 25 26 23 22 20 20 20 18 18 16 16 16 14 12 10 11 11 4 10 13 12 13 11 11 11 9 12 13 14
20 20 21 23 28 31 30 30 32 32 31 31 30 31 29 27 25 19 19 19 18 18 22 21 17 17 19 19 23 16 13 14 18 11 11 13 13 12 12 13 13 12 14
21 21 22 25 28 30 32 32 32 32 32 33 35 31 29 27 22 21 19 21 22 23 22 28 28 26 28 24 17 19 16 18 12 14 11 13 12 12 12 13 12 9 14
11 19 21 28 29 30 30 31 32 31 31 33 26 26 24 24 23 20 22 24 31 32 28 22 24 31 26 22 22 19 20 15 14 11 9 13 14 13 13 13 13 13 9
3 7 13 20 27 28 28 29 31 30 29 26 26 27 25 23 23 21 23 26 23 20 19 24 23 26 28 28 24 24 19 16 13 11 11 14 17 15 15 15 14 14 16
3 4 5 10 15 19 23 25 26 27 26 24 23 21 20 22 24 22 20 19 17 18 21 23 24 28 33 28 26 20 17 15 12 7 10 19 19 18 16 15 15 17 18
1 4 6 7 10 14 17 19 20 22 21 19 20 20 20 21 23 21 17 19 19 20 22 22 24 28 30 23 19 18 14 14 9 9 18 21 20 19 18 18 19 19 19
4 6 6 8 10 12 13 15 15 16 17 19 17 15 13 14 15 15 18 16 18 18 20 24 24 25 23 18 20 17 15 6 8 20 19 22 21 21 21 21 22 21 23
5 7 7 8 11 10 10 11 10 9 9 9 9 10 10 11 12 12 10 11 15 17 16 18 23 20 19 18 16 15 9 9 21 22 21 20 22 24 24 24 25 25 26
7 6 8 8 10 11 10 12 11 11 10 9 8 9 7 7 7 7 8 9 11 9 10 16 16 21 17 18 17 12 13 18 20 21 21 22 24 27 29 29 27 27 29
7 7 8 9 9 11 13 13 13 12 12 12 11 9 8 7 6 6 6 7 7 8 11 15 15 19 18 16 17 18 15 14 16 19 22 24 26 27 31 34 39 41 38
11 11 11 11 13 15 15 15 14 13 13 13 12 11 10 10 9 9 9 8 8 10 13 17 20 22 17 16 18 15 16 18 22 25 27 24 25 27 28 30 33 35 37
13 13 12 15 16 17 17 16 15 15 14 14 13 12 12 12 11 11 10 9 9 10 11 11 11 11 9 10 14 19 20 21 25 22 22 25 27 28 29 29 31 32 30
13 15 17 17 17 17 17 17 17 16 16 15 14 14 14 15 14 14 12 11 9 8 6 5 6 6 9 13 14 15 17 17 21 23 24 25 27 29 31 31 29 32 34
17 18 18 17 17 16 17 17 17 16 16 16 16 16 15 15 14 13 11 9 8 7 5 3 3 7 11 10 7 8 13 18 21 22 24 26 27 30 31 31 30 30 34
19 19 18 16 17 17 17 18 18 17 17 17 16 15 14 13 12 9 7 6 5 4 3 1 2 4 5 6 6 11 11 14 21 23 25 25 28 31 32 31 31 31 33
20 19 18 18 17 17 18 18 18 17 16 15 14 13 11 10 9 8 6 5 3 2 1 2 3 3 4 6 7 11 14 18 21 24 26 28 31 38 41 43 37 37 35
20 19 19 19 17 17 17 18 17 16 16 14 13 12 10 8 6 5 4 3 3 2 2 3 4 5 6 7 11 15 20 19 21 23 27 33 37 38 36 34 35 35 32
21 21 21 19 18 17 16 17 16 16 15 14 12 10 8 7 5 5 4 4 4 3 3 4 5 6 8 9 11 16 19 20 21 25 30 34 34 34 33 32 29 27 28
22 22 21 19 19 18 17 16 16 15 15 13 11 9 7 6 5 6 6 5 5 4 3 3 5 6 8 9 14 17 19 21 23 28 26 25 23 26 27 28 28 28 27
24 22 21 21 20 18 17 15 14 13 13 12 9 8 7 5 4 3 5 3 2 5 4 4 3 5 6 12 16 18 19 22 21 21 21 21 22 24 25 27 29 29 28

GFSMW_925_spd_036.txt.gz
Wind_Speed
22 26 26 29 27 26 28 28 27 27 29 27 30 25 26 24 25 25 25 19 21 24 20 17 18 17 17 18 17 15 12 12 8 6 11 18 19 15 11 12 12 12 11
18 22 28 28 33 32 29 30 30 29 29 26 23 23 24 24 25 23 22 19 27 23 23 21 20 18 19 18 19 16 15 14 14 6 7 3 8 16 15 15 16 13 10
19 18 25 30 31 35 34 32 33 35 35 32 29 28 26 27 27 27 24 22 22 20 21 22 17 19 21 20 20 20 17 15 13 10 3 2 1 2 18 19 15 14 16
18 20 21 26 33 34 36 34 35 35 34 33 28 27 23 21 23 25 25 22 22 21 18 20 21 17 19 14 18 17 17 14 12 13 9 7 5 1 3 15 19 17 15
18 21 22 30 32 33 36 37 34 35 34 35 33 28 27 27 28 22 22 23 21 22 21 19 20 19 14 11 9 12 14 14 8 3 2 9 10 13 9 4 4 19 20
18 19 29 31 30 33 32 34 33 33 34 34 35 30 27 25 23 24 23 26 26 24 25 20 17 20 19 19 19 19 22 18 12 10 6 7 11 8 9 6 9 14 13
15 16 20 24 31 34 36 33 34 32 33 33 33 37 30 28 26 23 31 27 25 26 29 27 27 28 26 29 28 24 21 20 13 9 11 7 19 13 12 12 10 6 14
18 17 17 27 33 37 38 38 37 36 35 34 33 33 39 30 21 26 24 27 30 33 31 30 30 29 29 30 26 30 27 24 20 17 15 14 16 9 11 14 8 4 10
19 20 18 22 29 35 39 40 37 36 33 33 35 38 31 32 25 34 32 26 30 31 28 30 32 27 27 27 31 31 24 21 18 14 13 14 9 11 17 15 14 12 3
1 3 15 19 25 30 38 43 45 40 36 33 34 34 33 35 29 29 33 22 27 25 25 28 24 24 25 30 32 26 23 17 15 14 12 7 9 16 20 18 17 16 16
6 3 3 7 11 26 30 34 32 31 28 31 34 35 40 40 25 31 25 22 17 17 20 20 23 27 24 28 27 25 19 18 16 14 8 7 13 20 21 19 17 20 20
6 6 4 2 5 6 6 22 27 25 26 27 24 27 30 24 25 26 21 18 15 17 17 20 25 22 25 27 28 23 16 17 15 14 10 13 19 22 23 24 23 23 22
6 7 6 5 5 4 4 5 10 14 14 16 17 15 20 21 21 18 18 14 13 14 17 20 23 25 24 22 24 17 19 16 17 13 12 21 21 21 22 24 23 23 25
8 6 10 7 9 10 8 6 7 5 8 10 10 19 16 13 9 9 10 13 15 16 16 20 25 23 20 21 18 19 19 16 11 13 16 24 21 21 23 24 26 27 26
6 5 8 9 11 11 11 13 11 10 11 12 20 21 15 10 10 11 10 8 8 9 11 14 15 16 18 18 18 19 20 16 13 18 19 19 19 22 26 28 29 28 26
6 7 5 12 9 12 15 16 15 13 13 13 16 14 14 15 15 15 14 12 11 10 9 11 13 15 19 21 19 19 15 12 14 15 19 24 27 32 34 31 33 34 37
6 7 8 9 12 15 19 17 17 17 17 17 15 15 15 15 15 14 14 14 13 12 11 13 15 17 16 17 19 16 13 12 15 20 24 28 24 22 26 28 28 31 32
9 8 8 12 17 19 19 20 19 19 20 18 17 16 16 17 16 16 15 14 14 12 13 12 13 13 11 11 10 10 12 15 18 20 18 22 23 23 25 27 30 33 34
11 11 15 16 18 20 21 21 20 19 19 19 18 17 18 18 18 17 16 15 15 13 12 11 11 8 8 5 7 10 9 9 11 13 15 17 20 19 25 30 31 33 34
16 17 18 19 19 19 21 21 20 19 18 19 18 19 19 19 19 18 18 17 15 14 10 9 8 6 3 6 4 3 4 7 11 17 23 26 27 29 31 32 28 30 34
19 21 20 18 19 21 21 19 19 18 19 20 20 19 21 20 17 14 14 14 12 10 8 7 5 4 8 7 2 3 6 9 14 16 18 19 21 26 32 34 34 34 37
20 22 19 19 19 20 21 20 19 21 20 20 19 18 17 15 14 14 13 12 12 12 10 8 7 9 9 5 3 6 9 13 16 18 20 22 27 31 30 30 32 35 36
19 20 19 19 19 19 20 20 21 21 20 20 18 17 15 14 13 12 9 12 11 9 9 6 5 7 7 4 6 10 14 15 16 17 20 27 29 27 29 25 29 29 27
18 20 20 18 18 19 19 21 20 20 19 18 17 16 15 13 12 11 9 11 10 8 6 5 4 4 5 6 10 15 17 17 18 21 27 25 25 22 24 26 28 28 27
19 20 18 16 16 17 19 18 17 18 18 17 16 14 13 13 12 13 12 7 7 5 5 6 4 3 3 6 10 14 17 18 20 23 23 22 19 21 22 24 24 26 28
19 18 17 17 16 17 16 15 16 17 17 16 15 13 12 11 12 11 10 7 5 6 4 3 2 1 3 7 12 15 15 17 17 18 18 18 19 20 21 24 25 26 27

GFSMW_925_spd_039.txt.gz
Wind_Speed
21 25 28 29 28 31 31 35 35 37 33 32 30 32 29 30 30 24 20 25 25 25 22 22 18 25 23 19 20 18 18 13 12 12 8 14 16 18 15 15 16 15 15
18 24 26 28 29 32 31 34 36 37 33 32 31 28 29 26 25 23 25 23 26 27 24 26 22 26 23 22 23 24 19 18 14 7 3 2 5 18 17 18 18 18 20
19 19 25 29 33 33 34 36 36 33 34 33 31 30 26 26 29 28 28 28 29 28 25 28 25 26 24 26 24 27 26 18 14 15 6 1 3 2 15 21 19 20 19
20 19 25 29 34 35 36 35 35 34 36 36 32 31 29 24 28 32 33 33 30 29 29 34 32 26 25 26 22 26 22 14 12 13 13 9 4 3 1 10 18 20 25
22 22 25 35 36 38 39 37 38 38 38 39 37 34 33 32 35 34 35 35 33 32 31 32 29 25 28 27 22 23 21 17 14 14 10 9 3 5 5 2 8 22 24
22 23 34 36 37 38 37 39 39 40 43 43 45 36 34 36 36 34 31 37 37 36 36 29 29 31 29 28 27 27 28 29 26 28 18 9 4 3 6 4 14 11 16
22 22 23 27 35 38 42 40 40 40 42 41 42 44 41 40 40 36 36 31 31 33 27 32 32 34 35 30 30 31 31 25 28 27 17 12 12 15 16 18 11 8 6
18 23 25 32 35 41 42 43 42 40 41 43 44 45 41 39 41 36 29 29 27 30 36 34 36 32 34 33 33 29 27 26 29 25 23 16 16 18 16 10 4 4 5
12 17 23 33 37 40 44 45 44 43 40 39 40 42 46 42 38 41 30 33 35 32 31 34 33 33 33 31 25 24 27 31 26 23 17 17 19 16 10 11 13 17 3
15 13 15 31 37 42 45 46 45 46 49 46 43 45 48 48 44 32 37 32 29 30 34 35 32 29 27 23 20 26 29 28 24 18 16 14 14 10 9 14 19 20 17
11 10 9 15 31 39 40 40 37 26 32 27 38 38 46 51 47 41 34 19 25 32 29 30 23 24 24 22 22 28 29 25 17 14 13 14 9 10 16 22 22 22 20
8 7 8 7 7 19 34 28 38 45 50 39 35 40 29 18 17 21 24 20 34 27 23 23 23 24 24 22 24 28 26 21 17 15 16 11 8 12 20 19 21 23 25
8 8 6 2 1 4 9 31 38 45 34 35 38 31 28 29 31 24 24 28 24 19 18 18 21 24 26 24 23 23 23 17 17 17 13 12 12 17 20 19 20 23 26
9 8 8 7 5 3 12 21 28 29 30 35 26 27 24 23 24 24 24 23 20 18 18 19 23 25 24 21 19 20 17 16 17 15 15 7 10 17 18 19 20 22 24
7 8 8 7 9 12 17 23 20 21 30 27 24 27 26 24 23 22 19 16 14 14 14 19 24 24 21 17 16 17 17 18 17 16 13 11 12 18 23 26 31 30 26
11 8 9 9 9 15 19 21 21 22 27 30 29 26 24 22 19 18 15 14 12 10 12 14 17 17 15 14 15 16 18 18 16 12 13 14 20 24 24 20 22 25 29
9 9 12 11 14 21 26 24 22 25 28 28 27 27 27 25 22 19 18 15 14 12 11 12 13 14 13 15 17 16 17 14 10 8 11 18 18 17 20 19 19 20 21
9 10 9 10 18 26 29 26 26 27 27 26 26 27 27 26 25 23 22 20 17 15 15 15 14 15 17 16 16 13 10 8 8 9 10 11 9 10 20 25 29 31 33
8 8 18 23 26 27 28 29 27 26 26 25 25 25 26 27 26 23 21 19 19 18 16 16 16 16 15 14 10 9 7 5 4 4 7 12 17 18 21 26 30 33 36
17 18 24 27 28 27 29 28 26 26 23 25 25 26 26 24 24 23 23 21 20 19 17 16 15 16 15 11 8 7 7 4 6 10 13 14 14 16 19 23 26 28 31
19 24 24 22 26 27 28 24 24 21 25 27 28 27 28 28 27 26 25 24 21 19 16 13 11 13 14 12 9 6 2 2 7 11 13 14 14 18 19 17 19 22 30
17 22 20 22 27 27 28 22 21 23 26 27 29 30 27 24 22 22 19 17 18 19 17 18 21 18 14 9 5 1 3 6 8 10 12 16 18 17 15 14 16 19 24
17 21 22 23 25 27 30 24 22 27 28 27 26 24 21 19 20 21 18 20 20 21 19 22 23 20 13 8 2 3 6 8 9 10 14 16 15 14 13 16 18 19 20
13 20 22 18 20 27 28 30 29 28 26 25 23 20 21 23 22 24 24 24 20 19 18 20 21 17 9 3 3 6 9 10 12 14 14 15 15 13 17 18 18 18 19
15 21 18 17 20 27 28 28 28 28 28 26 25 24 23 24 23 19 15 15 13 11 14 11 10 7 4 2 5 8 10 11 12 12 14 16 17 18 17 17 17 18 20
20 20 21 23 22 26 25 25 26 29 29 26 22 20 21 21 19 19 17 13 10 7 6 6 3 3 3 4 8 9 9 10 11 12 13 15 16 19 17 17 18 18 21

GFSMW_925_spd_042.txt.gz
Wind_Speed
11 17 20 22 23 26 28 33 31 32 37 31 30 25 30 30 31 31 32 23 19 22 24 24 22 22 27 27 26 23 21 20 20 19 15 17 17 16 14 15 19 19 18
10 15 19 21 26 32 30 31 32 36 35 32 30 27 36 34 33 38 35 26 24 26 27 26 25 26 30 30 28 25 24 18 22 11 4 1 7 17 19 19 19 19 19
15 14 21 25 26 30 32 31 33 38 37 32 30 24 30 33 31 35 32 30 29 29 30 29 27 31 30 33 31 29 28 22 18 14 8 2 4 2 8 20 20 22 24
17 15 21 26 29 33 31 30 32 34 36 35 29 26 26 25 30 29 37 36 33 31 33 31 32 31 32 34 31 30 29 27 21 13 12 11 8 4 2 7 14 23 26
22 21 22 31 35 33 35 34 34 32 32 32 31 30 28 29 28 32 36 35 35 35 35 34 33 34 35 35 31 29 30 33 30 29 23 16 14 12 3 3 9 13 22
23 23 34 31 32 32 33 33 35 36 34 34 37 37 36 32 29 33 37 38 41 38 37 36 35 38 37 37 33 30 32 35 33 30 28 19 11 10 7 3 8 10 21
21 21 21 25 30 34 38 38 39 41 39 39 40 43 42 40 36 39 39 34 36 40 42 39 33 37 37 38 36 33 35 37 33 33 31 28 25 15 14 10 7 9 12
20 22 23 31 35 39 40 40 40 40 42 45 45 44 43 39 40 40 39 40 42 40 39 40 37 35 37 38 39 38 39 36 30 29 27 29 24 19 16 12 9 2 8
20 22 22 31 35 38 43 46 43 45 47 50 47 46 44 45 39 43 43 42 44 44 39 33 30 31 32 39 40 39 38 32 29 28 27 28 22 15 14 13 9 9 3
19 19 19 29 35 39 44 44 46 48 52 44 39 40 42 39 42 39 43 39 40 34 23 24 24 28 30 38 39 33 30 27 26 27 27 22 19 16 13 10 6 12 13
14 16 16 29 35 37 37 42 43 42 39 40 41 44 40 41 35 33 28 27 21 13 23 26 29 28 31 32 29 28 26 24 25 27 22 17 15 15 13 13 13 18 22
11 15 13 22 28 31 31 34 38 38 43 42 31 23 22 28 24 21 28 32 19 16 39 33 31 31 32 30 28 26 24 23 25 24 18 16 16 12 11 10 14 17 18
6 7 9 12 18 26 31 33 36 42 42 29 30 28 29 32 36 35 35 31 33 35 42 32 32 28 29 28 26 22 19 21 25 21 18 18 14 12 9 11 13 15 19
9 11 8 10 15 19 22 31 35 42 33 36 34 36 36 35 36 33 37 32 38 38 32 29 27 25 25 23 20 19 18 20 21 18 19 18 13 6 7 11 15 19 23
8 8 8 7 9 16 15 20 31 33 31 34 34 40 35 30 28 27 29 29 29 30 27 25 23 22 23 22 20 19 20 20 18 18 18 15 7 7 8 13 16 17 18
10 11 9 8 9 16 20 22 26 25 24 26 23 24 24 26 29 27 26 28 26 24 25 25 24 24 23 20 19 18 20 18 18 19 15 10 8 9 10 12 10 10 11
10 10 12 11 14 19 25 24 26 25 26 25 24 25 28 28 29 29 27 26 23 20 17 18 20 21 19 17 17 16 18 18 18 15 8 5 7 9 13 13 14 16 19
10 11 11 8 17 25 24 28 27 26 30 27 27 30 30 28 30 30 29 26 22 19 19 19 19 19 17 18 18 17 18 17 12 8 7 7 7 9 11 15 19 21 22
10 9 17 19 23 28 30 31 27 26 26 24 26 28 31 31 31 29 27 25 23 21 21 20 20 21 21 19 18 18 15 12 10 7 4 7 9 9 11 16 18 20 20
9 13 20 23 25 26 31 29 24 24 23 26 27 28 29 29 28 27 25 23 23 23 22 20 19 20 20 16 16 14 13 12 8 4 3 7 8 9 11 13 14 17 20
15 21 21 22 25 30 30 24 25 21 27 28 28 27 26 26 25 26 26 27 27 26 24 22 20 20 18 15 12 9 10 7 3 2 5 6 7 9 9 8 9 13 18
12 18 19 19 26 31 31 23 21 27 29 29 28 27 26 26 27 27 27 27 28 28 26 25 22 19 17 15 12 9 5 2 1 3 5 7 7 6 6 5 10 13 17
13 18 20 19 21 26 31 23 23 29 29 28 27 27 25 25 26 28 26 24 24 25 25 26 25 22 17 13 10 5 0 2 2 2 3 4 4 3 4 9 10 13 14
11 19 21 16 16 22 24 29 28 28 28 26 25 24 23 20 18 19 19 20 21 23 23 21 20 19 13 9 5 3 2 1 2 2 3 4 3 4 7 9 9 9 12
14 19 18 17 17 24 26 28 30 30 29 27 22 21 21 21 21 20 17 17 13 17 21 19 20 17 9 5 3 2 2 4 4 4 3 4 6 9 8 6 8 11 13
17 17 18 21 19 23 25 27 28 30 30 26 25 25 27 25 25 25 23 18 13 10 10 10 6 8 7 5 5 5 4 5 3 4 5 5 8 10 7 8 10 11 14

GFSMW_925_spd_048.txt.gz
Wind_Speed
7 14 12 12 13 15 17 24 21 28 35 27 25 31 30 29 34 28 23 23 25 24 22 21 18 21 22 20 18 20 19 17 18 14 11 14 16 17 17 17 16 17 18
9 14 15 15 17 19 20 22 26 25 30 29 24 22 29 27 31 25 21 25 25 22 21 18 19 18 22 21 20 23 22 21 19 10 4 1 9 20 21 21 22 23 22
13 14 16 18 18 20 22 23 24 28 30 30 23 22 28 25 25 23 23 24 25 20 15 17 16 18 20 22 23 25 27 24 23 24 10 2 5 3 12 26 27 26 26
10 13 18 20 24 24 24 23 24 29 31 29 29 28 27 31 30 31 30 27 26 26 23 18 17 17 23 24 24 26 29 27 27 24 28 17 6 4 1 9 18 27 27
15 15 17 25 25 24 29 31 29 28 31 35 36 36 28 29 31 31 32 31 28 28 28 29 21 19 22 25 26 26 29 33 32 29 17 25 17 12 4 3 5 12 22
14 13 18 22 24 29 30 33 34 34 35 37 38 40 33 32 35 36 35 37 36 34 35 33 32 26 26 27 30 30 31 35 38 34 31 25 12 14 8 3 6 6 10
12 13 16 17 24 30 33 34 35 33 35 38 40 42 39 40 37 36 34 33 40 42 40 35 35 32 29 29 33 34 33 33 35 38 37 34 34 29 22 17 7 8 13
13 15 17 21 26 31 35 35 35 33 36 39 41 40 38 37 41 36 34 36 38 39 39 36 33 31 32 34 35 32 25 27 30 34 38 40 39 37 29 21 14 2 9
12 15 15 22 26 30 36 40 34 33 36 39 37 37 37 38 34 34 34 34 34 33 34 35 34 34 35 33 29 27 22 28 35 37 39 37 37 36 30 25 21 15 4
8 10 12 19 25 30 33 36 40 42 36 35 37 35 36 33 33 28 30 34 36 37 36 36 36 36 35 32 30 37 27 37 44 41 36 35 35 30 25 22 18 16 13
10 11 11 20 24 21 28 35 35 35 37 39 39 36 33 37 37 36 40 35 39 43 43 41 39 35 35 35 37 30 28 30 34 34 32 32 32 26 22 18 16 13 14
10 10 12 14 18 23 25 30 30 34 39 37 35 37 39 36 33 34 40 43 38 33 39 41 37 39 36 37 31 26 23 26 31 32 29 29 25 20 20 17 15 13 13
7 7 8 12 16 23 26 29 31 37 31 33 33 37 39 39 40 41 46 40 35 39 41 35 41 42 38 36 29 29 28 27 30 28 26 24 21 20 19 17 17 14 11
7 7 7 11 15 22 26 28 30 35 32 33 35 35 39 43 43 42 42 40 35 40 40 40 40 38 41 38 33 29 24 26 25 24 23 22 23 21 20 17 15 12 9
8 9 10 11 11 15 22 27 30 28 32 33 34 41 40 39 40 41 40 36 36 39 38 36 35 37 38 35 32 27 25 24 20 18 18 18 17 17 17 17 14 9 6
10 9 9 8 11 18 24 27 28 30 33 33 37 34 33 35 38 37 34 34 36 35 34 36 38 39 38 32 29 25 23 23 20 18 16 16 17 17 16 12 8 6 2
11 10 10 11 12 20 27 27 30 28 33 32 31 30 31 32 33 32 30 33 33 33 35 36 36 32 30 25 22 20 21 19 18 19 21 21 19 16 13 9 4 1 4
13 11 9 8 19 23 26 28 26 31 31 27 26 29 32 29 27 29 28 30 31 31 29 27 26 23 19 18 17 16 16 16 16 19 23 21 18 13 9 6 1 2 5
12 11 16 20 21 25 26 25 22 22 24 24 24 25 25 24 24 23 24 22 22 20 20 20 18 16 15 16 18 19 20 21 20 20 18 16 13 8 4 3 5 6 6
9 8 13 15 19 22 25 23 17 18 16 20 21 23 23 23 24 23 22 21 21 21 19 18 15 16 20 18 17 18 23 25 22 17 13 10 6 3 4 9 6 4 4
8 8 13 13 17 21 25 19 19 15 20 21 21 19 17 18 19 21 21 23 25 24 23 22 19 19 18 16 15 18 22 22 18 14 10 6 3 0 6 4 2 2 4
3 1 2 5 13 20 22 16 16 21 22 21 21 19 17 17 19 23 23 23 24 26 25 27 25 21 19 16 14 14 13 13 12 11 8 4 1 2 4 3 1 4 6
5 10 11 12 13 13 19 20 18 23 24 23 21 20 20 21 21 24 25 24 22 24 21 22 22 20 17 17 16 14 12 10 9 8 5 5 4 5 4 1 3 5 7
5 15 15 10 11 17 21 24 24 24 25 25 24 23 24 23 21 20 18 20 21 21 19 19 18 17 14 14 12 11 9 8 7 7 6 5 5 3 1 2 4 5 6
9 16 14 14 14 17 21 23 26 26 27 27 25 25 25 24 23 20 16 16 14 17 23 20 20 20 15 11 9 8 7 5 5 6 6 5 3 1 1 2 4 5 7
13 19 17 21 20 20 20 20 21 25 30 27 24 23 25 24 23 26 28 20 12 8 10 14 16 15 15 13 11 9 9 8 7 6 4 3 2 1 2 4 4 7 8

GFSMW_925_spd_051.txt.gz
Wind_Speed
10 12 10 11 11 12 15 22 29 24 34 29 30 31 30 33 37 38 32 33 31 31 30 26 25 24 25 23 20 17 17 17 17 9 6 10 15 18 18 18 18 18 17
12 14 14 12 13 13 15 21 25 30 31 30 25 27 28 32 33 35 33 31 31 31 29 26 25 26 25 22 21 22 16 11 18 9 4 3 8 19 23 23 22 20 17
15 16 18 18 16 16 18 18 25 31 32 30 27 25 29 26 27 34 30 30 30 31 29 26 25 27 24 25 26 24 22 16 18 22 8 3 6 3 9 23 26 25 21
17 16 19 21 22 20 17 18 22 29 33 33 28 28 30 27 29 33 36 31 28 30 29 25 26 24 22 21 25 23 24 20 17 16 27 19 5 5 3 8 14 22 26
20 20 20 26 24 24 23 21 23 25 28 35 36 30 27 27 25 30 36 32 28 31 30 26 23 23 20 26 27 26 26 28 19 21 12 20 16 15 7 7 7 15 19
19 19 23 24 23 24 25 23 25 25 27 30 35 32 27 28 26 30 35 33 35 32 32 30 28 26 24 23 24 25 25 28 28 26 20 17 11 15 13 7 19 10 10
16 18 19 21 26 27 28 28 30 29 29 31 33 35 33 29 30 29 31 30 27 32 34 32 31 30 30 27 25 24 26 28 28 27 24 25 28 27 23 19 12 12 13
13 19 22 26 29 30 29 28 32 32 32 32 33 34 35 33 32 34 32 31 29 27 33 34 33 33 31 29 30 29 27 26 26 25 25 27 31 33 31 25 15 3 10
13 17 18 26 29 31 35 35 34 34 34 36 34 34 34 35 34 35 34 37 39 38 37 37 37 38 35 33 33 31 29 26 27 29 27 25 27 28 31 28 28 21 5
8 13 16 24 29 31 30 32 35 37 36 35 35 36 36 35 35 32 37 40 40 41 41 40 39 38 38 36 34 30 26 24 26 32 29 31 32 30 31 30 29 29 21
7 12 14 21 25 26 29 32 33 32 33 36 36 35 37 37 37 40 47 52 48 48 47 45 41 38 38 36 34 31 30 31 31 34 35 31 29 32 28 28 29 27 23
7 9 12 18 23 26 28 32 33 34 36 35 34 37 36 37 40 42 40 35 36 42 44 33 34 34 32 34 36 33 31 34 30 32 28 30 27 27 28 28 30 26 23
6 6 10 14 19 25 28 32 33 38 34 33 34 34 35 38 42 42 41 38 41 38 33 33 34 34 36 34 34 33 34 30 30 32 29 28 28 27 28 28 25 22 17
7 6 8 13 17 23 27 29 30 31 32 33 35 35 39 44 42 39 37 37 39 36 34 33 31 33 32 31 29 31 31 31 29 27 25 25 27 28 26 24 21 18 17
13 9 9 11 13 19 24 27 27 29 33 33 34 41 38 35 35 34 34 34 35 35 33 30 28 29 28 31 32 31 33 32 30 25 20 21 23 23 21 23 21 20 18
14 12 9 9 10 17 23 24 25 29 32 32 36 31 31 32 33 34 34 33 33 31 29 33 33 30 33 37 35 36 33 32 26 22 21 20 18 19 20 20 20 19 17
13 13 12 10 10 19 25 25 28 25 31 32 30 29 29 30 30 29 29 31 30 27 29 29 29 33 35 35 36 33 29 25 24 24 24 22 21 22 22 20 17 13 9
12 12 11 11 18 21 21 26 18 24 27 27 27 27 28 28 24 24 26 25 24 26 28 30 31 33 32 30 24 26 22 20 21 23 24 25 26 24 22 19 14 9 4
16 14 18 17 20 18 25 20 17 21 23 26 26 25 26 23 21 21 22 24 24 23 23 22 23 22 17 17 25 24 23 24 22 22 24 27 26 22 18 15 11 7 5
16 15 21 16 19 18 15 17 20 20 22 20 18 18 18 20 19 18 20 19 18 17 16 15 13 15 20 22 23 24 26 26 25 22 22 20 19 16 11 10 9 9 8
20 23 16 13 14 11 12 14 13 13 14 19 19 19 20 21 19 19 17 18 18 20 21 22 21 21 22 20 17 18 24 27 26 24 19 15 11 8 7 8 7 7 7
18 18 13 4 5 6 13 13 12 19 24 25 23 21 20 20 20 22 20 20 25 27 25 27 25 22 20 17 17 17 20 23 24 20 15 12 13 13 12 9 8 6 3
12 14 7 5 6 9 14 18 17 24 27 28 25 23 21 22 21 24 25 26 25 25 20 19 21 22 22 23 21 20 19 16 18 17 15 16 17 14 10 7 4 3 2
12 12 8 9 12 12 11 17 22 24 27 28 28 27 27 28 26 24 23 23 21 20 19 18 17 18 20 20 19 19 18 15 17 18 14 12 10 8 7 5 3 3 2
12 12 12 14 18 17 19 16 17 24 26 26 25 26 27 28 29 26 19 20 15 13 15 15 17 17 15 13 14 14 14 13 12 12 10 8 7 5 3 2 2 3 4
13 17 17 17 17 21 24 21 15 17 24 25 22 20 23 24 25 28 32 26 18 15 17 20 20 21 22 19 16 14 13 12 11 9 8 6 5 3 1 1 2 4 5

GFSMW_925_spd_054.txt.gz
Wind_Speed
11 13 13 12 13 12 13 21 25 28 27 28 26 25 28 37 35 38 22 18 23 24 21 20 19 20 19 18 17 15 15 14 14 12 10 11 12 13 14 14 14 15 15
13 14 15 16 16 16 16 21 24 31 31 29 27 23 29 34 35 38 25 19 23 23 23 21 21 21 19 18 17 17 15 14 16 13 13 6 12 17 20 18 19 19 18
17 16 16 18 19 20 20 19 24 31 32 32 27 22 24 25 28 31 29 26 23 25 25 24 22 23 21 20 20 18 16 15 16 17 10 5 6 9 13 21 21 19 20
17 17 17 20 21 21 21 21 22 30 31 34 30 32 30 27 29 35 29 28 25 26 27 24 23 23 22 21 21 19 19 19 17 17 22 20 13 5 6 10 14 20 19
19 19 19 22 21 21 23 23 23 25 31 34 32 34 27 26 26 27 27 27 26 27 26 24 24 24 22 21 22 20 20 21 23 18 15 19 20 18 14 10 12 15 22
17 18 21 21 21 22 23 24 25 26 30 35 32 35 32 28 26 30 29 33 33 28 25 25 23 25 22 21 22 21 19 21 21 21 20 19 15 16 18 13 20 14 11
14 18 20 20 23 25 26 26 28 28 30 33 36 35 35 34 34 35 35 32 30 33 35 27 24 22 21 19 19 21 18 20 21 21 20 19 22 21 20 20 14 15 15
13 17 21 22 26 28 29 29 30 30 32 34 36 37 39 38 35 35 37 35 36 35 35 28 27 26 24 24 22 21 22 21 22 23 22 23 22 21 21 22 13 3 12
12 15 19 26 28 30 31 32 31 31 32 35 35 37 38 38 39 37 36 36 37 37 36 33 33 31 28 28 27 27 26 25 27 25 25 25 23 21 21 20 24 20 6
9 12 16 23 28 29 29 29 30 32 33 34 36 37 40 41 38 37 38 39 38 39 38 38 36 34 33 32 31 31 30 30 29 27 26 23 22 26 30 29 29 31 25
7 8 14 21 26 26 29 31 32 32 33 35 36 36 38 40 40 39 40 41 40 39 40 41 40 39 40 37 35 35 35 33 32 28 25 23 24 28 28 29 28 26 26
10 6 11 16 23 28 29 32 33 35 36 35 35 36 35 36 38 40 41 39 40 38 39 38 41 42 40 38 36 35 32 32 31 28 25 26 28 30 28 26 29 28 27
10 5 6 12 17 25 28 31 33 37 35 35 36 36 37 38 40 42 41 39 37 37 36 38 39 39 37 36 34 33 32 32 29 28 30 31 26 29 29 29 29 26 25
15 10 7 10 15 21 27 29 32 33 34 35 35 37 38 42 42 37 36 37 37 35 37 37 37 36 35 34 35 33 32 32 28 28 28 26 25 25 28 29 29 26 24
17 14 11 10 12 18 24 27 29 30 32 34 35 39 39 37 35 35 35 34 34 35 35 33 33 33 33 33 33 30 29 28 28 30 30 25 27 26 27 27 26 25 24
20 18 15 12 12 17 22 24 27 31 31 34 38 35 34 34 36 35 33 32 33 34 33 33 34 33 32 33 35 31 28 26 31 33 34 33 27 22 23 23 24 27 29
21 21 20 16 11 15 21 24 27 26 31 33 32 33 32 33 33 31 32 34 33 31 32 32 32 33 32 31 33 33 31 31 31 32 29 26 24 23 24 23 23 22 19
22 21 19 19 19 16 16 21 22 26 29 30 30 29 31 31 29 28 29 28 28 29 28 26 26 26 28 32 35 34 31 28 26 27 26 27 25 26 27 26 22 17 14
20 21 28 27 29 23 15 15 19 24 27 29 31 29 29 27 27 27 25 24 23 19 20 21 23 28 31 30 28 25 25 20 19 20 22 26 27 25 25 24 21 15 9
24 26 31 31 28 26 19 16 18 22 26 28 27 25 26 26 25 24 21 20 19 20 17 14 12 11 13 12 19 25 25 25 23 20 19 20 23 23 20 18 16 12 9
26 32 30 27 25 22 18 18 16 20 22 20 19 19 20 20 19 18 19 21 20 19 17 15 13 14 15 18 18 19 25 28 26 24 24 22 22 18 16 13 9 8 8
25 29 27 25 20 17 15 14 10 3 9 15 17 18 19 22 22 25 23 22 23 22 21 23 23 21 18 15 15 18 19 22 25 24 24 20 17 16 14 10 8 10 8
24 28 26 22 19 18 12 3 3 8 14 19 21 24 24 22 20 20 20 22 27 20 18 21 21 22 23 23 19 19 21 22 26 24 20 22 18 16 13 11 9 7 3
18 24 22 19 18 18 19 14 10 9 18 23 22 25 28 25 24 24 21 20 21 21 20 19 20 19 20 25 26 25 25 25 28 26 24 19 13 10 11 8 5 3 2
20 21 19 17 20 19 17 20 18 17 23 24 22 24 28 30 30 29 24 24 17 17 20 19 21 20 19 17 20 22 21 19 20 19 15 11 9 7 6 5 3 2 2
15 17 18 17 19 18 20 22 21 20 21 23 22 22 25 28 26 30 36 34 25 24 25 23 26 27 25 22 22 23 22 19 16 12 10 8 6 4 3 2 1 1 3

GFSMW_925_spd_057.txt.gz
Wind_Speed
11 14 14 12 14 15 16 18 20 22 25 26 26 27 27 29 30 23 24 25 23 22 23 18 15 19 17 17 17 17 16 16 15 14 13 14 14 14 14 15 16 17 16
13 13 17 16 16 17 17 21 22 27 26 26 26 29 28 25 30 26 23 25 17 18 24 18 20 23 18 17 19 18 17 16 16 15 15 7 13 18 19 19 19 18 17
15 15 16 19 17 20 21 21 26 29 24 26 23 25 24 25 20 25 26 23 18 21 22 21 25 25 20 22 21 20 18 17 17 18 12 6 8 15 22 23 20 18 19
15 16 17 19 21 20 20 21 25 29 26 30 26 29 27 28 30 32 31 30 19 18 26 27 24 23 24 20 22 22 20 17 18 16 20 21 16 3 3 14 20 20 20
15 17 19 22 22 22 23 23 24 28 28 29 31 27 27 31 32 28 30 31 25 29 28 30 27 24 24 23 22 23 23 22 19 16 16 18 19 17 11 7 9 14 18
14 16 20 22 22 22 24 24 26 28 30 30 32 32 27 28 28 31 31 31 30 31 38 31 28 27 25 24 24 25 24 24 22 21 18 17 14 14 14 9 15 16 18
12 14 18 18 23 25 26 26 27 28 31 33 33 34 33 33 32 34 37 37 27 27 30 31 30 27 28 28 28 26 27 26 23 22 21 21 20 21 20 16 18 14 11
9 13 18 17 24 27 29 29 30 28 31 34 34 34 34 33 34 35 35 36 36 35 34 32 33 32 29 29 30 29 29 31 24 23 24 22 22 21 19 18 17 9 14
10 11 15 20 25 28 30 30 30 29 31 32 33 33 34 33 34 33 35 38 38 36 34 35 35 34 32 30 29 27 27 25 25 24 26 27 25 25 23 23 21 19 7
9 12 12 15 26 28 29 30 29 31 31 32 33 34 36 36 34 34 35 36 37 37 37 38 37 35 33 32 31 29 28 28 27 27 28 29 28 28 26 24 23 24 21
6 7 7 13 23 26 29 30 30 30 31 33 33 35 37 37 38 37 38 37 36 40 40 39 39 39 37 36 35 34 34 33 32 32 32 32 30 28 24 26 27 27 28
4 5 3 7 15 23 26 29 30 32 32 32 33 35 35 38 38 41 39 40 38 37 37 39 35 37 38 38 37 36 35 35 36 36 35 35 31 29 28 30 30 32 28
11 9 1 5 10 18 25 28 30 33 33 32 33 33 35 36 39 42 42 38 39 38 38 37 37 40 38 37 38 39 38 38 37 37 37 36 32 30 30 33 31 29 29
13 12 12 5 9 16 23 28 30 31 31 33 33 35 37 40 40 38 38 39 39 38 39 39 40 40 39 40 40 39 39 38 36 35 36 35 33 30 34 32 30 29 27
15 16 17 14 13 13 20 25 29 31 33 34 36 39 40 38 36 36 37 37 37 39 38 37 39 39 40 40 39 38 39 36 34 36 36 35 34 33 35 32 28 29 28
16 17 18 20 17 21 15 21 26 29 31 33 35 36 33 35 37 36 36 35 36 36 35 37 37 37 38 39 40 39 32 32 33 33 34 32 33 36 36 35 30 31 30
18 18 18 16 19 23 22 16 22 25 29 32 35 34 34 35 37 36 35 37 37 34 36 36 35 36 35 35 38 36 37 30 30 29 26 31 39 37 33 27 26 25 24
17 18 16 18 23 26 27 26 21 24 28 32 32 33 33 34 33 33 36 35 35 35 34 33 33 32 31 32 33 36 39 36 34 32 36 37 33 28 27 27 22 18 16
14 17 25 26 25 24 26 28 27 22 27 30 31 33 32 32 32 33 34 33 31 29 29 27 27 26 25 26 26 25 34 30 26 24 24 26 24 24 26 26 24 18 16
18 20 25 25 25 26 28 30 26 24 25 27 30 30 30 31 30 29 27 26 26 24 23 17 15 16 17 19 22 25 28 22 17 14 12 15 19 24 24 26 24 21 14
21 23 22 22 25 27 28 27 27 26 27 26 25 25 27 27 27 25 24 19 18 19 17 16 11 11 9 8 13 19 19 20 21 22 22 21 22 20 21 20 18 17 12
21 23 21 21 22 26 28 28 28 21 16 9 2 8 6 7 15 22 21 20 24 25 22 23 23 20 14 16 10 10 15 21 26 26 26 24 23 22 20 18 19 19 16
19 23 20 19 19 26 27 26 29 21 12 5 7 11 14 14 14 20 22 23 22 22 20 18 20 24 21 24 24 20 21 24 30 30 28 26 24 23 23 19 17 12 12
19 23 22 18 20 24 26 28 25 15 7 11 14 18 24 25 24 23 19 18 17 18 17 20 19 23 19 21 29 30 34 35 34 30 26 22 20 18 17 13 10 10 6
20 21 20 19 20 23 26 29 27 13 12 17 19 24 27 29 29 32 24 26 21 21 21 20 22 25 20 21 24 28 28 28 26 24 20 17 13 11 10 10 9 6 4
19 20 21 22 24 26 25 26 26 19 13 19 19 20 30 27 25 33 40 44 41 36 33 33 35 35 31 29 28 30 26 21 16 15 14 12 11 10 9 7 6 5 5

GFSMW_925_spd_060.txt.gz
Wind_Speed
13 20 16 14 24 19 17 17 16 17 16 19 20 24 23 26 34 35 34 31 28 25 16 14 16 17 18 19 18 18 16 15 20 16 20 17 14 17 20 19 19 20 19
14 15 19 16 18 23 21 19 19 21 21 25 19 18 31 28 32 27 27 25 29 29 20 18 21 20 15 19 20 20 16 15 19 12 17 3 11 19 20 22 24 23 22
16 17 16 18 18 22 23 23 22 25 23 25 24 23 25 29 28 23 29 26 28 29 28 25 29 30 20 18 20 22 18 18 18 21 10 3 4 13 22 30 25 26 24
16 19 17 19 20 22 24 26 24 27 24 27 25 29 24 26 30 28 32 29 30 32 32 26 29 29 25 19 24 26 23 20 21 23 24 19 6 2 2 19 27 22 25
12 19 19 22 23 21 27 27 26 27 27 28 28 28 26 27 32 23 27 30 34 29 31 30 24 24 28 28 28 27 27 23 21 24 23 28 20 12 8 3 9 26 27
11 15 22 25 25 24 27 29 29 28 29 31 28 29 29 29 30 26 28 27 26 31 30 32 28 27 26 31 24 26 27 29 25 24 19 15 7 9 10 4 8 17 22
11 13 19 17 23 27 28 27 30 28 30 33 32 33 29 31 32 34 33 33 29 27 29 33 36 28 30 29 30 26 28 29 32 26 26 24 21 20 20 18 12 10 15
8 10 16 17 22 27 29 29 28 28 31 33 34 32 33 30 30 35 36 36 34 31 31 35 39 33 32 34 33 33 33 34 32 31 30 27 26 24 27 26 20 4 12
8 7 10 16 23 27 29 30 30 30 32 34 33 34 34 34 33 33 36 37 37 32 31 31 35 42 31 35 35 35 34 34 35 35 34 33 32 31 30 30 29 18 7
6 10 9 14 23 27 29 29 29 29 33 34 34 34 36 36 34 35 36 37 38 39 34 33 34 39 40 39 35 33 36 35 35 34 34 33 35 33 33 33 32 31 24
6 4 4 13 25 28 29 31 29 29 30 35 35 35 36 36 36 38 38 40 40 40 40 39 39 38 35 36 35 34 33 33 33 34 33 35 36 34 34 35 37 33 33
8 6 4 3 5 21 25 29 29 27 29 32 35 37 36 36 37 39 38 39 40 39 42 44 41 41 42 39 38 38 36 36 34 36 36 37 36 36 37 35 32 32 35
12 12 11 3 4 11 18 23 29 30 27 29 34 35 38 40 42 43 41 40 40 39 40 41 43 42 41 41 43 42 40 39 39 40 40 39 38 37 35 36 34 33 33
13 15 16 17 18 2 14 18 22 28 30 28 30 35 38 41 44 41 40 42 42 43 42 43 44 45 43 42 44 43 42 42 42 43 42 41 39 39 36 35 35 34 30
13 13 14 14 15 20 21 10 21 26 30 31 30 35 35 36 35 38 41 41 42 41 43 41 43 42 41 45 45 43 42 41 41 42 43 42 43 42 39 36 35 34 30
13 11 12 14 16 22 24 27 26 21 27 32 34 33 32 33 37 37 37 36 41 42 40 42 43 42 44 46 48 45 39 40 39 39 39 41 41 39 40 40 40 41 38
12 13 13 14 16 21 26 26 29 29 19 26 32 32 32 34 37 37 35 37 39 38 41 42 40 41 42 44 45 45 44 38 37 36 36 35 36 38 39 35 33 37 35
12 11 11 15 19 22 27 32 31 31 28 23 27 30 33 34 36 34 37 39 39 38 38 38 39 38 40 38 42 42 42 42 39 35 33 33 34 34 34 29 22 16 13
12 14 18 19 21 23 26 27 29 29 30 31 25 26 32 34 34 33 37 37 34 35 36 34 34 36 34 36 36 36 37 33 28 27 28 24 24 23 23 22 20 19 20
19 21 22 19 20 23 26 24 24 27 26 33 33 37 27 33 33 34 33 33 32 30 30 29 21 23 26 26 31 30 28 24 17 10 6 5 10 15 16 20 25 26 19
20 25 24 22 22 24 25 23 23 22 31 36 34 33 30 20 32 32 31 30 26 27 20 19 14 11 8 5 10 18 22 23 21 21 22 21 20 20 20 21 23 24 21
20 23 21 22 23 26 25 24 23 27 27 29 28 25 24 19 4 18 17 19 21 22 20 20 19 15 12 8 6 7 13 22 28 30 31 28 29 30 31 29 29 23 20
21 23 22 22 23 25 25 25 25 25 22 19 22 21 16 12 10 11 18 22 23 22 19 19 20 22 22 27 23 26 29 32 37 37 34 35 32 34 32 27 24 21 19
19 19 19 19 21 23 22 22 24 20 16 20 21 23 24 22 19 19 18 18 21 20 18 20 21 21 24 24 29 31 39 41 41 37 32 33 31 29 25 22 22 19 17
18 18 18 18 20 22 22 23 22 17 16 23 22 24 24 26 28 31 24 30 25 20 24 23 21 26 23 21 33 33 28 33 33 33 30 28 23 21 20 20 21 18 17
16 17 19 21 22 22 24 25 25 20 18 25 22 25 24 26 24 28 40 45 48 45 36 34 35 33 40 29 36 36 28 26 24 24 25 23 21 20 19 18 19 18 16

GFSMW_925_spd_063.txt.gz
Wind_Speed
13 23 27 32 30 23 21 19 18 20 21 21 21 20 22 22 34 38 40 43 37 26 29 29 32 29 34 32 37 32 27 28 29 26 23 19 21 21 21 18 23 25 25
15 15 24 26 31 29 24 22 20 20 20 20 21 20 25 27 34 35 42 37 26 26 30 26 33 17 33 24 34 28 22 25 28 17 20 2 8 20 25 23 24 25 27
19 17 17 25 28 30 28 25 23 20 19 22 21 22 22 25 22 32 32 35 28 25 31 25 31 23 26 32 28 26 21 15 19 17 15 3 4 7 18 27 28 28 26
19 19 17 20 27 29 30 25 23 23 22 23 25 25 24 23 23 29 23 30 32 32 29 31 32 31 27 21 24 25 21 23 21 20 22 17 9 3 1 16 29 28 31
23 20 19 24 28 34 32 26 25 27 25 27 29 25 24 22 27 27 25 26 31 34 32 30 29 30 27 26 24 24 28 27 27 24 25 24 17 12 3 3 7 27 30
21 20 22 26 25 33 33 29 27 26 26 28 29 28 27 26 23 27 28 25 30 32 33 33 30 31 31 28 27 32 31 31 29 25 29 25 15 15 7 3 7 18 27
21 19 19 16 23 28 31 32 30 25 27 28 29 34 29 29 31 30 31 27 28 28 34 34 30 28 31 34 32 31 32 30 37 34 28 29 29 20 15 13 8 9 19
20 20 20 18 26 28 31 31 31 27 27 29 29 32 31 32 31 34 32 32 29 30 34 37 40 36 30 30 33 34 31 35 39 38 35 31 31 25 21 24 16 2 11
17 21 19 20 27 29 33 35 32 31 28 29 30 29 29 31 31 33 34 34 33 33 26 36 39 43 39 31 32 33 35 33 35 36 35 36 37 33 30 36 30 19 6
7 17 18 17 28 33 36 34 37 34 34 28 30 30 32 30 31 33 35 35 35 36 33 32 35 38 41 41 34 38 39 36 39 39 40 40 39 38 36 38 38 37 26
8 7 13 22 31 31 31 32 32 32 34 37 31 29 32 32 32 33 36 39 38 40 41 38 39 38 38 42 43 39 40 39 41 42 40 44 43 40 39 41 39 40 33
16 17 19 19 8 26 26 31 31 32 35 39 37 35 29 32 33 36 35 36 39 39 42 43 39 40 40 40 43 42 37 39 38 40 40 43 40 41 41 40 38 37 36
18 17 17 17 18 19 6 26 29 30 30 36 38 37 36 36 36 38 36 38 38 41 40 41 46 45 44 43 42 42 40 40 41 41 40 44 38 40 39 38 36 35 38
15 15 14 14 17 20 21 16 8 20 30 31 36 36 38 40 40 37 35 37 39 38 41 43 44 44 43 44 46 46 42 42 43 43 43 44 42 44 41 38 39 38 34
17 17 15 13 16 20 20 20 17 21 26 26 32 36 41 41 41 41 42 37 40 40 40 40 42 42 44 46 44 45 46 45 45 44 44 44 45 46 46 39 38 34 33
14 16 17 17 16 21 22 22 22 26 24 21 32 28 33 36 40 40 40 41 42 43 39 45 42 41 45 48 49 46 43 44 43 43 42 42 43 45 47 48 47 43 39
16 15 14 13 20 24 26 26 26 23 21 20 20 23 30 32 38 39 38 41 43 41 45 44 42 46 45 46 47 51 51 40 39 39 37 37 43 47 48 49 49 46 43
15 13 11 17 21 26 31 33 31 27 24 22 24 26 28 18 30 34 38 40 40 41 43 44 46 42 44 47 49 51 50 45 42 39 41 40 38 42 42 38 31 22 19
13 16 20 20 22 26 26 26 27 29 28 29 28 27 23 23 28 24 35 41 40 38 39 39 37 41 44 42 46 47 48 42 36 36 35 34 36 35 34 33 23 18 20
20 20 20 19 20 22 23 23 24 25 28 31 32 30 26 24 26 29 32 39 39 40 35 31 33 35 34 39 42 41 40 35 28 19 17 15 20 19 23 27 28 28 25
24 22 20 19 19 20 18 17 19 24 28 28 28 27 26 25 25 30 31 22 30 32 30 27 18 16 16 16 15 33 34 34 25 18 15 14 15 18 20 22 25 28 29
24 27 22 22 23 24 21 19 20 22 21 24 25 25 26 23 23 25 24 12 2 20 22 22 17 12 8 8 10 14 22 25 28 26 28 30 30 31 32 34 35 31 29
20 21 19 19 22 26 26 24 26 27 22 20 20 22 24 26 24 25 25 16 8 10 10 16 18 20 24 27 26 30 33 34 38 35 40 39 38 33 35 36 28 32 29
17 18 19 20 22 25 25 24 25 24 20 19 20 22 24 28 32 28 28 24 19 17 16 13 21 22 26 26 26 32 38 45 42 41 34 37 41 38 29 28 26 29 28
15 17 18 19 21 24 26 27 27 24 21 21 21 21 22 24 32 42 35 31 35 25 23 22 18 21 22 25 28 27 30 32 38 30 34 30 17 28 26 25 26 24 23
14 17 18 18 20 22 24 27 25 23 19 20 21 22 22 21 24 28 38 47 45 46 45 40 33 38 29 39 35 33 29 29 26 24 25 24 24 18 20 20 23 23 21

GFSMW_925_spd_066.txt.gz
Wind_Speed
11 18 25 31 32 32 30 28 27 26 27 27 25 22 25 29 33 36 33 41 35 37 37 37 39 39 39 40 36 29 33 31 27 23 21 21 25 25 26 25 25 25 24
10 13 21 26 29 31 32 29 28 27 28 27 24 18 22 26 30 37 33 37 40 37 36 35 39 39 40 38 36 33 29 27 32 17 16 3 7 24 28 27 25 26 26
18 15 16 25 27 28 33 33 31 29 28 27 23 17 20 17 23 28 32 36 36 37 34 33 38 39 38 36 35 37 31 23 33 26 11 2 4 5 18 27 29 29 31
20 18 17 20 26 27 33 33 30 29 26 25 23 24 20 15 18 25 31 35 36 28 30 32 36 31 36 34 39 36 34 29 27 22 25 15 10 4 1 16 30 30 32
22 20 20 26 27 30 31 34 31 29 27 28 27 24 18 19 20 23 28 31 35 27 32 32 38 26 32 33 34 24 30 31 33 24 25 26 15 11 3 3 7 25 32
21 20 18 22 24 27 29 33 33 31 30 29 30 28 24 19 22 22 25 32 32 30 30 31 34 33 26 26 30 34 30 30 32 34 27 26 13 10 5 2 5 10 20
19 17 17 16 23 27 27 29 32 29 33 30 30 27 28 28 27 28 26 31 30 29 34 36 35 37 29 27 30 34 34 33 36 37 35 31 29 26 20 18 10 9 20
19 19 19 17 24 28 28 28 29 28 32 32 31 30 31 32 29 31 29 30 31 33 40 37 37 39 38 38 38 33 33 35 36 38 32 33 31 31 27 20 15 3 7
18 19 17 16 23 28 32 32 31 29 32 31 31 33 31 30 30 33 31 32 32 29 33 39 40 40 37 36 37 36 34 35 39 39 39 36 37 37 35 32 29 20 4
16 15 15 15 23 27 27 28 32 31 32 32 30 30 33 32 32 33 34 33 36 34 30 35 39 40 38 36 34 34 36 37 40 38 40 39 39 42 43 39 36 34 24
8 6 5 5 6 13 22 26 27 26 28 32 30 30 30 29 30 32 37 38 37 38 34 36 39 40 42 43 41 38 36 39 40 42 41 42 43 41 41 41 39 35 30
18 16 12 13 14 12 10 8 10 18 27 30 30 31 31 32 30 31 31 36 36 39 42 39 39 40 42 42 43 41 38 37 37 38 40 44 38 41 40 37 38 36 37
18 18 19 16 18 21 8 11 10 12 14 17 23 26 29 31 33 33 31 34 37 38 39 41 42 39 38 39 43 43 41 41 40 39 39 42 36 40 38 37 36 36 37
16 15 15 15 20 23 23 23 17 9 13 25 27 26 30 33 34 34 34 35 36 35 37 41 41 42 42 42 42 40 41 42 43 42 43 43 40 43 41 38 39 38 34
19 16 14 13 17 20 21 21 21 22 25 9 24 27 29 29 29 30 32 35 36 37 36 36 38 40 41 45 44 44 45 43 43 42 44 46 46 48 46 38 37 34 33
18 17 14 14 13 19 18 18 21 23 23 23 23 9 24 29 33 32 32 34 37 38 38 40 40 40 43 46 48 47 42 42 42 43 43 42 43 47 49 50 50 44 37
14 14 14 14 18 19 16 18 20 21 24 24 24 24 22 19 16 28 31 35 38 36 37 41 39 43 44 48 50 50 49 42 41 43 42 41 42 45 46 50 50 51 54
15 15 12 16 22 22 21 16 18 20 20 21 23 24 25 20 20 19 15 27 37 37 41 41 43 44 46 51 51 50 52 48 47 43 43 44 43 43 46 42 43 41 42
12 16 18 19 20 22 22 22 23 21 19 20 21 21 22 24 25 23 22 25 26 26 39 44 42 42 46 48 49 51 48 44 45 45 46 47 43 41 40 44 37 25 16
17 17 18 17 17 21 21 21 23 24 24 25 23 21 20 19 19 22 28 26 26 30 31 37 39 40 42 42 47 48 45 41 38 42 41 44 45 41 42 44 40 28 25
19 15 15 16 18 19 18 20 20 22 22 22 22 22 22 21 19 21 20 22 25 27 18 16 14 12 12 23 29 37 45 39 37 31 20 15 18 26 30 30 29 29 34
15 13 13 15 16 17 17 17 18 17 17 17 20 25 27 25 22 22 24 19 17 13 15 17 21 23 21 18 8 12 22 17 19 19 22 24 25 26 26 26 37 36 33
13 14 14 15 17 19 19 19 19 17 16 17 19 20 24 29 26 27 27 22 19 16 16 18 20 21 25 29 32 31 31 35 39 38 32 34 40 42 39 33 31 23 29
15 16 16 17 18 19 20 19 19 18 18 18 20 21 24 28 33 30 30 26 21 18 18 18 19 18 22 21 25 27 32 39 43 42 35 43 41 33 39 34 31 30 24
18 19 18 18 18 18 20 21 21 16 17 18 18 19 20 23 26 36 39 34 39 27 22 22 21 20 23 23 24 26 27 27 34 38 32 28 32 31 26 34 30 26 27
17 18 18 19 20 21 23 23 22 22 20 19 20 21 21 21 22 22 29 40 44 44 43 37 33 36 33 31 31 31 27 34 29 33 29 24 25 24 20 20 24 24 26

GFSMW_925_spd_069.txt.gz
Wind_Speed
12 18 24 28 30 27 25 24 20 24 25 23 21 17 19 20 21 23 28 28 30 32 33 32 34 35 36 36 37 38 30 24 26 23 15 18 21 23 25 25 25 25 24
8 11 22 23 25 24 27 26 20 24 27 24 22 17 20 21 24 27 29 26 27 30 32 34 33 36 34 31 36 35 27 23 28 14 15 3 4 17 23 25 27 26 26
16 14 18 24 24 24 25 29 28 23 23 26 23 19 18 17 20 23 27 27 29 32 30 33 35 33 34 35 34 34 33 22 29 22 10 3 3 4 13 26 29 30 30
13 13 17 21 27 26 27 29 24 23 24 27 25 22 18 12 17 20 27 30 34 35 30 26 33 35 34 34 38 35 34 30 24 22 20 17 13 3 2 13 32 33 33
18 18 20 25 26 26 27 28 24 26 27 27 27 25 17 16 16 19 25 29 30 34 34 31 31 36 37 38 42 36 34 34 30 26 20 18 14 11 3 3 7 29 38
15 16 14 22 23 23 24 24 25 28 29 27 26 25 20 17 17 20 23 25 29 33 35 29 30 35 42 41 41 38 35 36 35 38 32 26 14 11 6 3 4 11 22
13 14 17 17 24 26 26 25 25 23 28 27 25 24 23 20 18 22 22 23 26 31 32 29 32 33 32 30 31 32 28 25 35 41 35 34 32 22 30 22 9 9 16
16 19 20 18 25 28 27 25 25 23 26 27 26 27 23 21 20 21 22 24 25 32 37 35 32 35 31 27 27 34 37 33 27 35 42 40 40 33 36 29 19 2 8
18 18 17 17 25 28 30 29 27 25 25 28 29 26 26 26 24 22 23 25 26 23 27 33 33 34 32 34 31 29 32 35 39 37 38 43 39 37 37 34 31 19 7
7 10 12 12 18 19 20 19 21 22 21 22 26 26 28 27 27 24 27 24 28 25 27 31 33 35 38 41 36 38 40 40 43 45 45 43 40 38 37 39 37 35 24
8 8 10 14 17 17 16 16 17 16 16 18 19 20 23 28 27 28 27 31 28 28 26 31 34 35 36 40 38 39 39 42 41 42 41 42 42 38 39 41 39 37 31
15 14 12 13 16 19 19 18 17 16 20 22 22 22 26 25 29 29 30 31 36 33 32 32 32 34 37 39 40 39 38 42 41 42 43 45 40 41 39 35 35 34 33
18 18 18 17 18 12 12 14 15 16 16 21 22 22 26 26 26 27 29 31 35 37 37 38 41 40 38 35 38 41 39 39 41 40 41 39 38 42 37 33 34 34 35
16 15 15 14 18 21 19 17 19 15 7 17 26 25 26 29 30 31 32 33 34 34 36 38 39 38 39 42 42 40 41 41 41 41 44 42 40 43 39 38 39 38 33
15 14 13 11 16 20 18 18 20 20 23 19 10 3 20 25 28 29 32 33 33 37 37 37 39 39 40 42 41 42 42 41 41 41 43 44 45 47 48 42 41 38 34
13 14 15 14 14 17 17 18 20 21 21 21 18 13 15 14 7 21 27 31 34 34 33 35 36 36 41 44 46 47 42 44 43 43 44 45 47 51 54 54 55 49 38
12 11 12 11 14 16 16 18 18 18 20 20 19 20 17 14 13 11 11 10 23 29 31 34 36 39 41 44 49 51 50 44 42 44 44 43 43 47 47 50 57 57 57
9 9 9 12 16 18 18 15 19 19 19 19 19 19 19 17 17 15 14 16 17 16 16 25 33 38 42 48 51 50 51 46 46 45 45 44 44 44 43 43 40 48 54
9 12 13 14 17 19 17 16 17 17 18 20 20 19 19 16 15 14 16 19 19 21 23 24 29 29 38 42 47 48 46 43 48 48 47 46 46 49 49 47 43 46 41
12 13 12 14 17 17 15 15 16 18 19 19 19 18 17 14 15 16 17 16 15 16 18 21 14 14 18 16 24 35 36 38 41 42 37 38 47 43 45 50 41 32 21
12 12 14 15 15 14 15 16 16 19 18 18 19 22 24 18 17 16 16 18 20 17 16 15 17 20 29 23 24 19 22 27 26 20 14 12 16 20 24 25 26 20 28
12 11 12 14 16 16 15 15 16 14 14 16 17 21 23 21 21 22 22 21 19 18 18 19 21 26 28 34 32 20 10 2 11 22 24 28 28 29 27 30 34 34 29
11 11 12 14 14 14 14 15 15 13 12 13 15 19 22 25 23 26 25 22 21 20 19 19 19 21 24 27 29 35 35 36 39 32 29 27 30 39 37 33 38 34 35
12 14 14 16 17 17 18 17 12 13 12 13 15 16 21 25 29 26 28 28 23 22 22 21 21 22 25 26 26 27 27 30 33 34 33 36 37 39 40 35 31 37 32
14 15 16 15 16 16 18 19 16 14 15 16 16 18 18 18 23 34 31 31 37 30 26 28 30 26 28 31 31 30 28 27 28 29 34 31 33 31 31 30 30 31 31
14 16 16 16 16 17 17 17 14 12 11 13 16 18 19 19 19 17 22 33 34 35 34 31 29 33 30 30 30 29 28 27 30 31 29 25 27 23 26 24 26 30 27

GFSMW_925_spd_072.txt.gz
Wind_Speed
19 17 23 27 28 27 26 22 21 22 20 19 16 17 16 15 16 14 7 35 30 40 34 33 33 36 37 36 34 33 33 25 26 24 13 12 17 20 21 22 22 23 23
8 8 20 25 29 27 28 20 21 23 23 23 18 14 16 14 14 15 17 27 26 31 33 32 34 36 37 37 38 34 28 21 30 13 14 3 3 13 20 22 23 23 23
13 11 15 23 24 26 26 23 23 23 24 24 19 14 14 9 12 16 18 21 25 28 31 30 29 33 36 36 38 36 31 23 30 22 8 3 3 5 14 23 22 24 24
11 12 13 16 28 26 23 23 22 22 24 24 21 21 14 10 10 16 20 21 25 26 29 31 28 31 32 33 37 38 31 29 26 24 10 12 10 3 2 9 18 23 28
13 15 19 23 26 25 24 27 23 21 24 25 23 22 16 15 14 15 18 22 25 29 31 32 35 34 34 35 34 36 35 27 29 23 21 14 14 12 4 3 5 23 33
8 9 10 18 21 22 21 26 20 18 21 24 24 23 20 16 13 14 17 21 24 30 32 29 37 33 33 32 32 36 36 32 24 33 28 23 13 8 4 0 4 13 21
9 13 16 17 23 25 23 24 23 19 20 23 22 21 19 18 15 16 18 20 19 26 32 35 31 28 29 30 33 33 35 34 30 28 33 32 31 22 23 14 8 7 19
8 15 18 18 25 25 25 24 22 17 18 20 19 18 18 18 17 17 19 21 22 23 29 32 32 29 27 32 34 31 33 32 33 29 28 32 37 32 25 18 18 4 11
9 13 13 13 24 25 24 22 20 15 14 19 18 16 16 16 18 17 17 19 21 22 26 32 32 30 31 30 31 35 37 39 34 33 29 27 27 38 40 35 28 20 8
8 10 9 11 17 19 19 18 18 17 16 16 18 17 16 16 17 18 17 17 19 16 21 27 29 29 29 30 31 32 35 41 41 38 40 36 35 30 32 35 36 33 24
10 10 10 14 16 17 16 15 17 16 15 16 15 17 17 16 15 17 18 19 17 20 19 23 28 28 30 32 33 34 34 34 32 36 38 38 37 38 42 40 40 35 31
15 12 12 15 17 17 17 15 14 14 13 15 15 15 15 17 17 18 18 17 19 19 20 21 24 28 31 32 35 35 32 33 35 37 34 36 35 39 41 36 38 36 34
16 15 16 15 15 16 12 10 7 6 11 13 14 15 17 18 21 19 19 20 20 23 24 25 25 27 30 34 37 39 40 40 42 42 39 39 40 40 36 35 34 35 33
16 15 15 14 19 23 21 21 20 13 3 11 16 15 18 19 21 21 21 21 22 23 27 31 33 34 35 36 35 34 37 37 37 38 40 39 41 43 41 38 39 37 33
16 15 14 13 17 22 21 20 22 19 18 18 15 13 5 12 17 20 23 25 26 28 28 30 32 34 36 38 38 36 36 36 36 38 40 41 44 46 48 42 41 37 33
13 14 14 14 15 18 18 20 20 17 18 16 15 12 11 9 8 5 3 13 23 28 31 33 33 32 36 35 37 40 37 37 37 38 39 41 43 49 53 54 56 52 40
11 12 12 13 14 16 17 17 16 14 18 18 18 17 14 11 10 8 6 5 5 6 5 9 20 26 31 36 39 42 44 39 38 40 41 42 42 45 47 48 54 59 60
10 11 10 15 14 17 16 15 16 15 17 18 18 18 17 16 14 12 11 10 10 10 11 13 15 16 13 17 17 26 39 44 44 43 43 42 43 44 42 41 41 44 52
10 12 13 14 14 17 14 14 16 16 18 18 19 18 16 15 15 16 15 13 12 11 11 11 14 16 17 24 23 24 23 25 38 42 40 41 45 47 47 46 41 38 31
14 11 11 12 14 21 15 15 18 19 19 20 20 20 16 16 16 15 13 13 12 11 11 14 17 19 20 27 25 22 17 19 21 17 8 13 18 35 38 31 36 36 20
14 12 15 18 19 17 16 18 18 20 16 18 21 22 19 18 18 16 16 16 16 16 18 20 22 23 25 29 28 21 17 8 10 20 25 27 26 15 7 9 9 5 20
16 16 17 18 19 20 18 19 20 15 17 19 23 23 23 20 20 18 19 22 18 19 19 18 19 22 23 24 28 31 29 26 31 26 26 28 32 35 31 31 29 33 31
13 15 15 16 18 21 20 17 17 16 16 18 20 23 23 24 25 26 23 20 21 19 19 19 20 21 22 23 23 27 29 32 35 30 28 29 29 32 38 35 32 32 31
12 12 13 14 16 18 21 17 15 13 17 21 19 19 25 28 27 28 30 28 23 22 21 19 19 19 22 22 22 23 25 29 33 35 36 38 38 40 40 38 37 34 32
13 14 12 14 15 15 17 17 15 14 16 17 18 19 19 18 24 31 28 28 32 24 21 21 22 19 22 25 24 24 25 27 29 31 34 36 35 33 31 32 32 32 29
11 12 11 13 14 16 17 16 14 12 14 15 16 17 17 16 14 13 20 27 27 28 29 26 24 23 22 23 23 23 22 23 24 32 25 24 25 24 22 23 24 27 24

GFSMW_925_spd_075.txt.gz
Wind_Speed
16 12 16 21 23 23 23 23 23 22 22 16 15 17 17 16 17 18 18 22 29 37 36 38 39 36 32 32 35 25 23 17 18 17 11 9 10 11 12 13 14 15 15
12 9 15 22 26 27 26 24 22 23 21 15 19 12 18 17 17 14 16 20 30 30 39 37 38 34 28 28 34 31 25 17 23 13 17 6 6 10 14 17 15 16 15
13 12 14 23 25 27 29 26 24 21 21 20 17 12 16 14 14 14 14 15 28 34 38 35 34 33 30 32 35 34 29 20 22 18 10 4 5 9 9 16 16 17 20
12 13 16 17 28 27 25 24 24 22 23 22 20 19 12 12 12 18 16 21 21 29 32 26 30 35 32 31 33 33 32 26 24 20 8 12 11 5 4 8 18 21 22
10 14 17 18 19 23 25 23 23 21 22 22 23 20 15 13 15 15 16 18 22 26 31 30 30 31 32 33 34 31 27 27 25 22 14 9 8 9 4 4 10 17 24
9 10 14 18 21 23 23 24 25 22 23 22 21 22 20 18 16 17 13 17 20 22 26 30 30 29 30 33 35 36 36 29 25 25 22 17 12 9 6 2 9 17 15
6 10 15 17 24 28 25 25 24 22 24 21 20 22 21 19 19 18 17 18 21 23 29 29 32 32 29 30 33 35 36 33 31 32 28 28 26 21 18 12 7 10 13
7 14 16 16 22 24 23 24 24 21 22 23 20 21 17 17 16 16 15 16 20 22 26 30 35 35 34 34 34 35 34 39 36 33 32 30 30 29 23 19 13 5 6
9 11 11 13 19 21 20 21 22 20 19 22 19 17 18 17 15 13 12 14 18 20 21 28 27 32 36 33 34 33 32 35 37 32 31 26 22 28 25 18 20 17 10
9 6 10 11 17 20 19 20 20 19 18 17 15 14 15 15 15 15 14 13 14 18 19 21 28 29 31 30 30 32 33 30 31 33 35 31 33 29 28 29 30 25 19
8 6 8 13 17 19 19 19 18 17 16 14 13 13 12 13 13 15 15 14 13 15 18 20 24 28 31 29 29 29 31 35 35 35 34 37 33 36 34 33 28 25 26
14 10 11 15 17 17 18 16 15 13 12 11 10 10 10 10 12 13 13 13 14 16 17 17 20 24 23 21 23 24 29 33 32 36 37 37 39 37 41 37 34 29 32
14 14 16 15 15 15 16 16 15 12 9 9 8 8 9 9 10 11 12 13 13 13 16 18 20 22 21 22 26 25 24 26 30 31 32 33 34 33 30 31 31 32 31
14 15 15 14 18 20 20 18 18 17 9 7 6 3 7 10 10 10 11 11 13 14 16 17 18 19 20 24 27 26 27 26 27 30 32 32 34 34 32 33 35 34 34
15 15 14 13 16 18 19 19 20 18 18 17 17 14 12 5 3 4 7 10 13 13 14 15 18 20 21 22 26 29 32 30 31 32 34 36 39 42 42 37 37 35 34
13 14 15 16 17 19 17 18 20 18 20 20 18 14 14 12 10 8 6 6 4 1 5 11 17 21 12 18 25 30 28 31 32 32 34 36 39 44 45 47 50 45 36
11 13 14 15 19 19 17 20 18 16 18 25 19 17 15 14 14 11 9 9 9 8 9 7 8 9 2 8 7 17 28 30 26 29 32 34 34 37 39 42 49 55 58
11 12 12 17 16 14 15 15 21 25 27 21 16 16 14 15 14 14 13 13 12 12 11 12 12 9 12 19 17 17 15 16 22 27 29 30 30 31 34 35 37 38 44
10 14 15 16 17 18 18 21 25 20 17 17 17 15 15 15 15 16 15 15 14 14 15 14 16 15 17 22 18 16 12 10 7 7 6 14 17 23 29 27 31 32 18
18 17 16 17 18 16 15 17 17 15 20 18 15 13 15 15 16 14 15 16 15 16 15 17 18 21 18 27 25 17 11 7 7 13 16 27 17 11 12 14 15 11 7
18 16 18 19 17 15 14 18 17 18 16 15 15 17 17 17 16 16 17 18 17 16 17 19 18 19 24 25 28 23 19 18 20 22 25 30 26 26 25 18 15 16 18
18 17 17 18 17 15 15 16 17 13 13 17 19 20 21 20 19 20 20 20 18 19 18 17 18 18 17 22 24 24 23 20 23 21 21 21 26 31 29 31 28 28 26
17 17 16 16 17 18 16 16 13 12 13 17 21 21 21 22 23 22 21 22 20 19 19 19 19 18 16 15 18 22 23 23 24 22 22 22 24 26 31 29 28 30 31
17 16 15 16 18 17 18 16 12 11 14 17 18 21 24 25 25 27 26 24 21 20 19 17 17 17 20 18 15 15 16 18 19 21 24 23 26 32 28 27 27 24 21
17 16 16 16 16 14 15 14 12 10 14 16 17 18 20 22 26 31 27 26 29 22 18 18 18 18 20 19 19 16 14 13 16 16 19 21 21 22 21 21 21 19 19
15 17 16 16 16 17 17 15 12 11 12 15 16 16 16 15 14 15 20 25 25 26 26 23 18 18 18 17 18 17 17 16 16 19 20 19 19 19 17 17 17 17 17

GFSMW_925_spd_078.txt.gz
Wind_Speed
15 14 10 15 20 24 26 24 23 22 21 17 15 14 12 15 16 18 17 19 31 18 36 34 36 36 39 37 28 25 25 23 21 19 15 13 11 12 13 14 15 16 15
16 14 11 18 23 26 27 26 25 24 22 19 16 12 15 16 15 16 16 15 18 25 35 36 36 38 36 34 29 28 26 24 25 21 19 7 7 12 15 15 16 16 16
17 16 13 18 22 27 29 27 27 25 23 19 16 13 14 10 11 15 13 17 18 21 29 37 38 37 36 35 30 28 29 26 27 25 21 7 6 14 16 17 16 16 16
18 17 13 16 23 25 25 26 26 26 24 22 18 17 15 10 11 12 14 12 12 23 28 39 37 37 33 32 31 30 29 26 26 24 25 18 10 11 6 16 19 18 19
18 17 14 16 21 25 27 27 26 25 24 22 18 17 13 13 12 12 13 13 13 20 27 36 35 36 33 29 30 29 29 27 26 25 25 17 12 17 10 7 14 18 21
9 12 11 15 21 25 26 27 27 25 24 22 20 19 16 16 15 13 12 14 17 19 21 27 28 32 31 28 30 30 31 28 25 25 23 22 20 15 13 8 13 18 20
7 8 12 14 21 26 26 27 29 25 25 23 21 21 17 16 13 15 13 15 16 20 23 23 25 30 30 26 26 29 30 29 27 27 26 23 20 19 17 14 12 11 18
7 6 9 13 18 22 23 25 27 25 24 22 20 20 18 15 13 13 13 12 14 15 19 25 30 30 33 32 29 27 29 28 28 26 27 24 20 21 19 18 16 10 16
12 4 8 10 17 21 22 23 25 24 24 22 20 19 18 16 14 13 12 11 12 13 18 24 30 32 33 33 31 30 31 32 33 33 30 27 24 27 23 22 21 20 10
15 5 6 9 15 19 20 21 23 22 22 20 19 18 17 15 13 12 13 12 11 12 15 19 25 28 31 30 33 34 32 31 34 33 31 31 28 24 21 20 16 17 17
13 8 6 7 15 16 16 19 21 22 21 19 19 16 15 15 13 12 11 10 9 11 14 15 18 22 26 29 29 31 31 31 24 26 31 35 33 32 30 24 19 19 19
12 14 10 11 14 14 15 16 17 19 19 17 15 15 14 13 13 13 12 11 11 11 13 14 16 18 25 28 28 27 26 30 32 31 25 29 25 29 29 28 31 28 29
12 13 15 14 17 15 12 12 13 15 15 14 16 14 12 11 10 10 10 11 12 11 12 12 13 14 16 22 26 25 22 24 27 32 35 35 30 32 32 32 33 35 35
12 13 14 13 17 19 19 18 22 18 10 12 15 13 9 9 9 9 9 9 9 10 12 12 12 11 12 15 20 20 21 21 23 23 25 28 32 34 34 33 34 33 32
12 13 14 13 16 18 20 21 23 21 17 16 17 15 14 14 12 8 5 7 7 7 8 10 11 12 8 8 14 15 19 22 24 25 27 27 29 31 32 31 31 31 31
10 12 13 14 15 18 19 19 20 20 18 18 18 15 15 15 14 12 12 12 11 7 6 5 4 7 5 2 13 17 17 15 21 25 26 29 32 37 40 42 45 44 36
9 11 11 13 16 18 18 19 18 17 17 20 19 15 15 18 15 12 12 14 13 12 14 14 12 11 10 10 4 9 18 22 24 20 15 16 19 23 26 30 39 47 52
8 12 11 14 19 18 18 18 20 20 21 20 18 14 17 21 14 13 13 14 14 15 15 15 13 12 16 14 8 5 3 2 3 6 9 10 13 16 20 23 24 21 22
10 14 15 16 19 18 17 19 19 18 19 17 16 19 24 20 14 15 14 13 15 17 17 17 16 15 19 23 15 9 7 10 12 13 19 14 13 16 16 16 17 15 4
13 15 16 18 18 19 17 18 20 22 27 25 23 23 18 16 17 14 15 14 16 18 17 18 19 20 20 27 22 15 11 13 13 16 19 23 20 18 16 11 5 11 9
16 17 18 19 19 17 18 22 22 25 21 20 17 18 16 18 17 15 14 14 16 18 18 18 18 20 22 25 26 23 17 14 14 16 19 25 22 23 24 20 17 15 14
16 16 18 20 18 17 17 18 19 16 17 16 16 18 19 16 16 15 13 14 16 18 17 17 17 17 18 23 25 25 23 18 18 17 17 18 24 26 25 26 22 20 20
16 16 18 19 19 18 17 17 15 14 17 17 18 19 19 19 17 16 15 17 17 18 18 17 17 18 16 15 19 22 22 22 22 19 19 18 18 20 24 25 22 20 17
15 16 17 18 17 16 16 15 13 12 14 16 18 18 19 18 19 19 19 18 18 17 16 16 17 16 17 16 14 13 13 14 14 14 15 17 18 19 19 19 20 19 18
16 18 17 17 16 15 15 14 11 11 13 14 14 15 17 19 22 23 20 23 25 18 15 15 15 13 16 16 14 13 10 11 11 10 12 14 15 16 16 17 17 16 15
17 18 16 17 16 16 16 14 12 10 11 13 13 11 12 11 12 15 20 23 23 23 22 20 15 16 15 15 17 17 15 13 11 12 13 13 15 15 14 14 14 15 15

GFSMW_925_spd_081.txt.gz
Wind_Speed
13 19 23 13 18 24 27 27 25 24 22 19 17 15 13 13 12 12 14 16 17 18 22 26 31 30 31 31 34 26 24 23 27 15 20 12 9 9 15 16 16 15 16
17 18 19 17 20 24 27 27 26 26 23 19 16 12 15 13 13 13 13 14 17 19 20 34 33 34 31 34 33 26 24 22 26 20 19 4 4 8 11 14 15 15 16
19 18 19 18 21 24 28 28 27 26 23 19 16 13 14 10 12 12 12 13 14 14 17 28 35 33 36 37 36 30 27 20 23 25 19 6 5 13 16 16 17 17 18
18 17 18 19 23 25 26 28 27 26 24 21 18 18 18 14 15 13 11 10 11 14 18 20 38 39 38 36 36 32 28 26 24 23 24 19 10 11 6 16 17 15 18
19 20 20 18 24 25 26 27 27 26 24 24 19 19 18 16 13 12 11 11 8 10 13 25 32 36 36 38 35 30 29 25 24 22 19 17 16 13 11 9 15 20 21
19 19 18 26 24 24 26 28 29 27 25 24 19 18 16 16 13 13 12 13 10 9 12 25 31 34 34 38 38 32 27 25 21 21 19 15 12 9 10 4 13 17 20
10 11 11 12 13 25 28 29 29 27 26 23 19 17 16 16 15 15 14 14 15 13 17 20 27 28 31 33 37 34 27 25 23 22 21 18 15 15 11 10 8 7 18
17 9 14 12 16 24 27 29 29 27 25 23 20 19 17 16 13 12 13 13 15 15 16 20 22 27 26 32 29 24 23 23 22 21 19 19 21 16 16 10 13 7 9
15 19 6 8 15 21 21 19 26 25 24 22 20 19 16 14 13 11 11 11 12 13 16 20 19 22 27 29 30 26 23 22 23 22 21 21 18 20 22 18 17 16 7
18 20 5 6 13 20 19 14 16 22 22 20 18 17 17 15 13 12 11 8 9 11 13 18 21 24 27 28 29 30 29 27 27 28 25 24 26 24 25 21 22 23 19
16 18 19 6 16 17 16 15 17 20 18 16 16 15 14 13 12 11 10 9 8 8 12 16 20 25 28 32 31 26 30 30 28 29 31 33 30 30 30 26 28 24 22
14 15 14 18 8 13 12 12 16 16 16 16 15 13 14 13 12 10 9 9 7 6 9 10 15 21 24 26 29 30 29 30 27 26 27 29 28 31 30 28 29 29 26
14 14 14 13 15 18 13 11 11 17 18 15 12 10 12 15 13 11 10 9 8 7 7 8 9 13 14 18 24 26 25 25 28 29 28 28 25 25 25 25 26 27 28
13 13 13 13 16 17 19 20 24 18 18 16 16 12 8 8 7 5 10 10 8 8 8 9 8 8 8 10 14 20 23 24 24 26 24 25 27 28 27 26 27 29 29
13 13 13 12 16 18 19 21 23 23 19 23 20 15 14 15 13 10 6 6 11 13 9 10 8 8 7 4 6 9 10 24 22 15 17 21 21 22 28 30 31 32 31
11 12 13 13 14 18 17 20 21 21 21 23 22 16 18 18 18 17 16 13 12 12 13 15 14 12 10 4 4 7 4 3 2 3 7 8 12 20 26 30 33 33 30
10 12 11 12 15 17 18 19 19 18 21 22 19 17 20 21 20 21 19 19 19 17 17 15 13 15 13 10 6 4 2 2 3 5 8 10 10 13 14 15 15 17 16
8 9 10 14 13 15 15 17 21 23 20 21 19 15 19 22 19 20 26 22 20 22 22 20 17 15 19 12 9 10 7 9 11 12 10 10 11 13 14 15 12 9 11
7 8 11 12 12 14 15 18 23 19 21 23 21 18 19 23 18 17 25 19 20 22 23 22 21 20 22 16 16 13 12 14 16 16 20 15 14 14 8 7 3 6 9
11 10 11 12 9 13 15 20 23 21 23 22 22 16 21 21 20 20 23 19 18 18 19 22 20 21 21 22 21 14 14 16 16 18 20 24 22 22 15 13 10 13 12
10 11 11 11 13 14 17 21 20 22 19 20 18 19 20 22 21 22 22 18 16 17 19 20 21 23 21 25 22 19 16 16 16 17 21 25 24 26 26 24 20 16 13
8 10 9 14 15 15 17 20 21 17 19 21 22 22 22 21 21 22 21 20 16 18 18 18 19 19 21 24 27 25 23 19 19 18 16 18 22 26 24 24 20 18 14
9 11 14 17 18 18 17 19 17 18 19 21 23 22 22 24 24 23 18 16 15 17 16 15 16 16 17 16 20 23 23 22 21 19 18 18 18 19 22 23 21 20 19
12 13 16 17 19 19 19 18 16 17 19 21 21 20 21 21 21 20 21 20 16 15 15 14 14 13 14 14 13 12 11 13 13 14 14 15 16 18 17 17 18 18 17
12 15 17 17 19 18 19 17 16 15 17 17 17 19 21 22 25 29 22 21 24 20 14 14 14 13 15 15 14 13 10 10 11 11 12 13 14 14 15 15 16 16 16
13 16 17 17 17 18 17 16 16 14 14 15 14 14 14 15 15 17 21 24 24 22 20 19 15 14 13 13 16 14 13 12 9 11 11 12 12 13 12 12 13 14 14

GFSMW_925_spd_084.txt.gz
Wind_Speed
13 23 23 31 28 21 32 34 31 28 27 22 22 20 20 17 17 19 16 18 17 19 22 25 22 26 24 27 28 25 28 26 21 23 22 19 18 20 15 18 19 21 21
16 13 11 19 19 22 30 31 29 29 28 22 22 20 19 20 19 17 17 17 19 20 23 26 28 28 26 27 31 28 20 22 24 19 14 3 4 8 13 16 17 22 23
16 14 12 12 22 19 29 30 30 29 28 22 21 17 16 14 15 16 17 16 17 19 19 24 31 28 29 29 33 33 26 20 24 30 14 4 3 6 8 11 11 12 17
19 15 14 13 20 21 27 29 30 28 26 24 22 21 20 15 14 14 17 15 15 16 19 23 30 33 31 31 35 37 33 22 21 26 25 15 16 4 3 15 20 16 20
12 10 12 12 27 26 27 28 31 28 26 24 22 20 18 17 15 17 16 15 15 13 18 23 26 31 34 33 34 35 30 27 24 19 22 20 13 19 6 5 12 23 17
8 11 13 19 23 29 29 29 31 28 27 25 25 24 22 19 17 18 18 15 14 13 16 20 25 28 33 35 36 34 35 32 25 24 25 21 10 8 7 3 12 18 22
19 19 15 15 15 29 30 29 29 27 28 27 24 23 19 17 18 21 18 17 15 11 10 12 23 29 29 33 39 33 34 34 25 26 28 18 13 10 3 7 7 5 15
18 19 24 23 7 26 28 28 26 25 27 27 22 20 19 19 16 19 18 19 17 14 11 14 22 25 28 31 36 40 32 34 28 26 23 20 15 11 5 2 3 1 2
18 20 23 25 3 24 27 27 25 25 23 23 20 19 18 19 16 16 18 15 14 14 15 15 19 24 22 32 33 32 33 31 31 28 22 16 14 14 10 4 1 3 2
16 17 19 22 22 18 17 15 11 27 18 22 20 20 17 16 14 13 12 15 14 15 15 17 18 18 22 20 26 30 28 27 23 21 22 19 15 11 17 17 9 8 9
12 14 15 23 29 17 14 14 15 16 18 12 22 17 16 16 15 14 13 11 11 14 16 15 18 20 21 22 22 22 25 27 26 22 22 20 17 18 16 18 24 22 24
11 13 14 19 23 25 20 9 12 10 12 10 19 17 15 15 15 13 12 12 14 12 12 14 16 17 19 22 25 27 28 28 28 25 25 25 22 26 28 26 26 29 28
12 14 15 15 18 22 21 23 12 15 16 10 15 14 14 13 12 13 13 13 12 11 11 10 14 17 18 19 22 27 28 28 27 27 28 27 27 29 27 28 25 25 25
12 12 13 14 20 22 22 23 22 17 14 17 18 18 15 14 15 11 11 12 12 11 10 10 11 15 15 15 15 19 22 23 24 25 27 27 27 29 30 27 27 27 25
13 13 12 12 18 23 24 24 22 23 17 22 21 17 15 16 17 19 21 19 17 16 15 16 16 14 12 9 9 10 7 20 21 21 20 15 13 15 23 20 19 19 22
11 13 13 14 16 21 21 22 22 23 21 23 23 19 17 16 18 18 20 22 22 20 21 20 18 15 12 7 7 10 8 10 11 10 9 6 3 1 5 5 3 8 13
10 11 11 13 17 19 20 21 22 20 24 24 22 22 23 22 21 21 22 23 24 22 23 21 19 19 16 12 11 9 9 9 9 9 8 5 5 7 6 6 7 7 8
10 9 6 12 17 17 20 19 22 24 24 23 23 22 24 23 21 25 27 26 28 29 25 23 22 22 23 16 13 13 15 17 17 15 12 10 10 8 6 5 8 15 19
7 11 15 11 13 19 14 17 20 21 23 23 24 22 23 23 21 21 22 25 26 33 30 26 25 25 23 20 16 15 17 20 21 21 20 16 15 11 10 9 12 14 16
11 13 16 17 19 16 13 16 17 20 20 19 21 23 21 28 20 20 21 24 26 27 32 28 26 25 28 23 18 16 20 25 25 26 28 29 28 23 17 16 16 21 18
13 15 16 14 14 17 18 16 16 17 13 24 25 26 20 26 26 22 19 24 26 29 31 25 28 32 28 26 25 22 23 23 24 24 26 26 25 26 27 29 26 22 18
11 15 17 15 12 12 15 14 18 15 19 21 25 22 22 19 23 19 22 23 26 26 24 22 22 25 30 29 27 27 25 23 25 23 22 21 24 25 24 24 21 18 17
12 12 15 16 16 15 16 16 15 13 16 22 25 25 22 27 25 26 23 24 22 21 20 19 19 20 20 20 24 27 27 26 27 23 21 19 19 20 23 21 20 19 18
15 14 16 18 18 19 19 18 16 15 18 21 21 20 24 25 25 27 29 28 21 21 19 18 19 19 20 19 18 18 20 19 19 18 17 17 18 18 20 20 21 19 17
17 17 18 17 18 18 20 18 13 13 15 17 19 21 23 27 30 32 27 27 28 21 18 20 18 15 17 16 15 16 17 16 13 14 16 17 17 18 17 19 19 19 19
16 16 17 17 17 17 18 18 20 14 14 16 17 16 16 17 18 21 25 25 24 23 22 19 16 16 15 15 17 16 15 14 12 16 17 17 16 17 17 17 17 18 18

GFSMW_925_spd_087.txt.gz
Wind_Speed
11 15 16 32 36 36 33 39 37 38 36 34 33 28 27 23 22 21 22 20 21 23 25 28 29 29 28 28 28 27 25 24 34 21 20 23 24 22 21 26 26 25 25
15 12 12 18 31 27 33 36 39 43 39 37 33 25 28 22 21 20 18 18 21 21 25 27 28 26 25 25 28 26 20 20 28 17 20 4 8 17 18 30 29 27 27
12 17 8 13 21 23 37 37 40 40 35 34 29 18 23 19 21 21 19 21 22 22 24 25 25 26 25 25 27 28 26 20 27 22 14 6 4 8 12 23 25 27 27
14 9 8 7 15 29 38 39 40 39 33 32 30 30 24 19 20 26 22 22 23 24 23 26 25 28 28 28 31 32 31 25 28 21 20 13 19 7 2 11 15 14 27
2 5 7 9 22 31 34 36 39 37 35 32 30 31 25 22 24 21 20 20 21 22 24 24 27 30 31 32 33 35 33 30 27 24 23 16 22 19 4 3 9 19 19
14 15 15 21 17 28 36 38 40 36 39 33 33 32 28 24 24 23 23 24 22 20 20 23 28 28 32 32 34 39 37 32 29 29 26 21 11 13 6 2 5 16 22
16 17 18 16 19 20 28 34 34 32 36 35 34 31 28 27 27 26 27 25 21 19 19 23 24 30 32 34 35 35 35 34 33 31 27 23 17 20 18 8 6 5 12
16 15 16 17 20 22 25 34 30 29 34 33 33 28 27 28 26 27 27 23 20 20 19 21 22 26 29 27 34 32 33 34 31 32 23 26 20 14 18 11 11 2 6
17 17 19 20 29 12 23 32 32 30 31 34 28 27 28 28 24 22 23 21 22 19 16 15 17 23 24 28 31 30 32 35 33 31 23 25 24 14 13 13 13 10 3
17 17 17 19 28 30 20 8 26 33 34 32 29 28 26 21 20 23 21 18 19 18 17 16 17 21 21 24 26 33 29 32 33 30 23 17 21 14 9 11 11 8 6
14 14 14 21 24 27 32 29 14 20 28 30 29 28 26 20 21 19 19 19 16 17 17 17 18 20 17 23 28 27 34 28 28 29 23 22 16 15 13 9 6 6 5
12 13 13 19 25 26 26 24 24 17 22 23 27 26 24 20 20 20 19 18 17 16 15 15 17 17 17 17 18 25 30 29 29 27 23 19 18 16 15 17 20 21 17
13 13 14 15 20 23 26 27 28 16 16 24 23 21 18 19 19 18 16 18 18 14 13 13 13 15 17 17 19 19 27 30 30 29 27 24 21 19 19 23 26 22 19
13 12 13 13 20 24 26 26 28 25 17 23 24 21 17 15 15 17 19 17 17 17 14 13 16 16 15 15 16 17 20 23 25 25 25 24 25 24 23 25 26 25 22
14 13 12 11 17 22 24 26 26 28 18 21 27 22 20 18 20 20 20 20 20 20 19 19 17 16 15 14 14 15 18 16 14 13 14 12 16 24 25 20 20 20 20
12 12 13 12 15 18 20 21 26 27 24 23 23 19 22 21 21 20 21 22 21 21 20 19 17 15 12 13 17 16 17 21 20 20 17 15 15 13 11 10 10 14 12
11 12 12 11 14 15 17 22 22 26 27 25 23 21 21 23 22 21 21 23 23 23 22 22 20 20 17 13 17 18 21 22 20 17 14 12 10 9 10 9 8 9 8
10 9 9 14 16 15 17 24 25 26 28 28 25 23 23 23 24 26 25 24 24 25 26 24 25 26 22 18 20 22 23 23 19 16 14 13 12 10 11 13 16 18 18
8 11 15 15 17 19 15 22 26 25 27 26 27 23 27 23 24 26 27 25 25 26 27 25 26 30 24 19 19 22 26 29 30 25 20 18 20 17 13 14 18 20 23
11 11 13 14 15 18 21 20 23 23 24 24 24 24 26 23 25 26 27 28 27 27 27 28 29 30 30 20 21 22 27 31 30 30 32 32 23 19 17 20 22 27 21
15 16 13 14 16 19 20 22 22 22 22 24 26 26 24 25 29 20 27 30 27 25 29 27 29 30 31 25 23 23 26 27 28 27 28 28 28 27 27 27 25 23 20
14 17 14 16 14 14 15 20 22 22 24 25 25 25 23 27 26 27 25 25 26 27 19 20 28 29 32 30 26 29 26 22 28 27 26 25 25 26 26 25 22 21 20
14 13 13 15 17 13 15 18 19 19 19 22 24 25 24 26 27 25 25 21 23 17 23 16 19 25 22 28 28 27 28 29 30 28 25 22 21 24 25 23 21 19 19
16 16 17 18 19 20 19 17 17 17 17 19 22 23 25 26 26 25 26 26 22 19 18 13 19 22 21 21 22 23 23 24 24 23 22 23 25 23 22 22 22 21 19
17 18 17 17 18 20 22 22 17 15 18 20 20 22 23 22 26 27 26 28 24 19 18 19 19 17 17 17 19 20 20 21 19 21 21 22 22 23 22 22 21 19 18
16 18 18 18 18 20 22 23 20 19 19 18 15 17 19 16 18 20 26 26 24 23 21 19 20 19 18 18 18 17 17 17 16 22 24 22 22 22 21 20 19 20 19

GFSMW_925_spd_090.txt.gz
Wind_Speed
15 19 25 26 30 35 29 34 37 36 39 38 35 32 33 30 28 27 27 27 26 26 29 27 27 28 30 31 29 30 29 25 27 21 19 13 23 32 33 32 29 26 25
19 19 18 23 24 26 30 37 42 45 44 41 34 29 34 31 28 27 25 26 27 27 29 29 29 30 29 25 27 29 20 19 28 11 22 4 6 16 31 31 29 26 26
21 21 17 15 26 19 31 37 42 46 38 37 33 25 29 23 22 26 26 26 25 27 27 27 30 30 27 25 29 31 28 21 21 28 9 4 4 12 19 27 28 28 26
23 12 9 10 16 18 33 40 42 41 39 42 33 37 32 24 19 21 27 24 23 25 24 24 26 28 28 26 28 31 30 25 22 26 24 4 14 5 3 17 26 28 30
17 18 16 15 19 8 29 36 39 38 38 40 39 35 25 22 24 24 26 25 24 22 22 22 25 26 26 26 25 25 30 30 27 28 22 17 23 14 5 5 8 22 31
18 18 19 21 23 16 15 26 34 33 35 37 38 36 32 29 27 27 27 26 25 24 22 24 27 26 27 30 28 29 30 31 28 25 25 25 16 13 8 3 7 15 21
16 18 19 18 20 20 11 21 27 29 37 38 36 35 34 33 30 31 28 21 21 23 23 25 25 26 28 29 30 32 32 34 35 32 28 28 23 26 21 14 5 8 7
16 16 16 15 20 24 9 23 20 17 30 34 31 35 33 31 29 30 27 23 26 24 24 23 23 26 27 29 32 33 33 32 34 34 32 26 22 27 28 20 11 2 2
16 16 17 18 23 25 23 11 29 32 29 31 36 35 32 30 28 26 25 26 25 24 22 22 24 25 26 29 32 31 32 34 36 35 33 29 25 10 22 27 21 11 3
14 16 16 18 24 24 24 19 4 18 26 31 35 33 31 30 28 27 27 25 21 22 19 20 20 20 22 24 27 27 29 33 31 32 29 29 26 15 15 17 18 13 8
14 14 15 21 23 25 26 18 26 14 11 18 28 29 28 28 29 26 26 21 19 20 19 20 18 16 18 21 21 22 28 32 28 30 30 23 23 21 18 17 16 13 11
12 13 14 19 22 25 28 29 28 21 9 11 26 28 28 27 27 24 19 17 19 19 19 18 17 17 17 15 20 24 25 32 27 30 29 20 18 23 25 23 18 15 11
12 14 15 16 20 25 26 25 22 19 8 9 24 27 24 22 20 18 16 18 16 15 14 12 14 15 15 15 15 21 26 25 29 29 29 24 21 24 20 15 12 12 11
13 13 13 14 19 22 24 26 25 26 18 10 22 28 25 21 19 18 16 14 14 15 14 14 13 13 13 13 13 19 22 26 23 27 28 25 26 25 18 17 17 16 16
16 15 14 12 17 20 21 24 25 28 25 18 14 23 26 25 23 22 19 17 17 13 11 11 11 11 12 12 12 15 19 21 19 20 23 23 24 25 21 19 17 16 18
14 14 14 15 17 21 20 21 25 28 26 24 23 19 22 23 24 25 23 22 17 14 13 12 10 10 8 13 14 17 17 18 20 20 17 13 13 15 19 20 19 18 17
12 13 13 14 18 22 22 21 21 25 30 26 25 24 23 21 19 22 24 24 20 17 16 15 15 16 14 13 18 20 22 23 22 20 18 15 15 15 15 16 13 10 7
9 9 10 15 18 23 27 22 21 24 24 26 26 27 27 25 23 24 24 24 23 22 21 20 18 18 17 17 21 25 25 24 21 18 16 15 16 14 15 17 19 18 15
8 12 15 14 18 24 25 24 24 22 25 23 22 26 27 27 27 27 27 23 26 26 25 24 21 20 19 19 22 26 27 26 23 18 16 18 18 14 16 19 23 24 24
12 13 15 17 21 22 23 23 24 24 25 23 23 27 29 27 31 25 25 27 29 29 27 31 27 22 20 17 20 24 29 32 30 27 21 19 19 17 16 20 22 25 19
14 15 15 18 19 23 24 22 22 22 23 24 25 28 29 27 28 28 24 29 27 32 32 32 32 29 24 20 22 24 29 28 29 26 26 27 24 24 21 21 21 24 22
17 19 19 20 20 19 19 20 20 19 21 23 24 27 27 28 26 28 26 21 25 22 25 26 29 32 29 26 25 26 28 29 33 27 26 25 24 24 26 22 22 23 22
14 16 16 17 22 22 20 17 16 16 20 23 24 25 25 26 24 27 25 19 22 20 17 18 21 21 23 26 28 29 30 30 32 27 22 22 25 26 26 21 21 20 19
16 15 16 18 19 22 22 18 17 15 16 19 21 23 26 25 25 25 22 21 20 18 16 18 20 23 21 21 21 26 25 22 25 25 25 25 26 25 23 21 21 21 19
17 17 15 16 18 21 22 19 13 15 17 16 16 18 21 24 27 29 25 25 21 19 18 20 22 20 19 17 16 19 19 21 23 25 24 24 23 22 22 22 20 19 17
16 16 17 18 19 21 21 19 16 15 14 13 15 16 17 17 19 21 25 25 23 21 20 20 22 20 17 15 17 18 18 16 17 23 24 22 21 21 20 19 19 19 18

GFSMW_925_spd_093.txt.gz
Wind_Speed
13 21 26 34 33 30 25 32 36 38 36 33 31 27 33 36 33 35 35 34 33 30 29 27 26 27 28 26 28 24 24 21 23 18 13 18 18 25 30 31 29 27 26
19 18 27 30 29 31 26 30 37 40 41 38 36 25 31 30 35 36 33 33 32 30 29 30 26 25 27 27 27 27 19 17 28 11 12 2 2 11 25 29 29 29 28
17 19 19 25 27 23 19 28 38 42 43 35 31 22 27 21 22 30 32 32 32 30 30 30 27 28 27 28 29 29 24 20 23 22 8 3 3 6 10 22 29 31 31
12 16 16 19 26 29 25 30 35 40 35 36 38 37 35 20 26 29 34 34 30 30 29 29 29 29 30 28 27 29 28 25 20 22 24 9 8 5 4 12 25 29 31
12 16 18 22 28 29 32 25 33 32 32 43 39 38 26 24 21 23 25 32 28 27 28 28 27 28 29 29 27 27 27 29 23 25 17 16 15 12 5 6 7 20 29
14 14 21 26 28 31 30 14 25 27 30 32 34 36 33 31 28 27 23 30 28 26 26 25 25 26 27 27 28 28 29 29 26 26 25 26 19 14 7 3 7 14 19
14 14 18 19 27 30 32 22 21 25 26 28 28 34 36 36 34 30 28 28 26 23 25 24 25 25 27 27 27 26 28 29 28 29 29 28 27 25 19 8 3 4 5
14 16 18 16 24 27 28 24 15 20 24 24 29 30 35 31 32 34 32 29 24 22 23 25 25 25 24 25 25 27 28 30 31 29 26 30 27 30 26 16 10 1 3
14 17 17 20 25 26 27 25 10 19 26 27 25 26 27 30 31 31 30 26 23 24 23 26 25 21 22 23 24 26 28 30 32 33 33 29 33 30 31 28 25 10 5
16 16 16 22 27 26 28 28 23 10 18 29 24 23 27 27 28 28 28 24 22 21 22 21 17 18 20 21 24 27 30 33 33 31 32 29 32 28 30 30 29 30 11
15 16 16 23 25 27 28 29 29 10 15 15 19 22 26 28 26 27 25 22 21 20 20 17 16 17 20 22 23 25 27 28 28 34 36 32 33 26 21 26 25 22 13
12 13 15 20 22 24 27 27 27 23 16 11 14 22 27 26 28 24 24 22 20 17 15 13 12 13 12 16 17 18 18 23 24 30 31 34 35 26 20 22 24 16 9
13 14 15 16 21 23 25 25 27 29 22 1 12 18 23 27 26 26 23 21 17 14 11 8 10 12 15 16 16 18 20 21 26 29 27 31 33 30 25 23 19 18 17
14 14 14 15 22 25 25 27 29 29 27 20 8 7 23 26 25 20 21 19 17 15 12 11 9 10 11 13 14 13 17 19 21 28 31 26 29 30 30 29 24 21 17
13 14 14 14 20 24 27 27 28 31 27 24 20 12 17 23 28 25 23 20 18 17 15 11 9 6 5 7 10 10 15 17 21 20 22 27 23 25 28 30 26 23 18
12 13 13 14 17 22 25 25 24 23 27 26 26 19 14 17 24 24 22 21 18 16 15 11 8 4 2 4 9 11 17 19 20 19 17 17 21 22 25 25 21 20 17
11 11 12 13 18 21 22 24 25 25 25 26 28 30 27 24 25 22 21 21 19 16 16 14 11 10 7 3 9 15 17 19 18 19 17 15 15 14 14 14 14 14 15
10 11 12 16 21 22 25 25 27 27 27 26 23 28 22 26 26 25 26 23 21 20 18 17 16 15 14 10 12 17 18 18 16 15 15 17 16 14 16 18 18 16 14
8 12 16 18 21 24 23 23 27 26 28 27 28 28 20 24 24 28 27 26 27 27 24 21 19 19 17 14 17 18 22 23 20 17 16 17 18 15 16 20 25 25 25
11 12 16 18 22 25 24 22 23 24 26 26 28 31 30 29 22 27 26 25 29 30 28 28 25 23 23 18 17 19 23 27 26 23 22 19 19 17 17 20 23 28 21
15 16 18 18 20 20 22 22 21 23 23 27 27 28 29 29 25 26 24 26 27 31 29 31 29 27 25 23 23 24 27 28 26 24 26 25 21 20 19 19 19 22 21
15 17 16 18 19 21 19 20 20 20 24 26 27 26 25 25 25 25 26 26 24 25 22 25 26 29 28 27 25 26 29 30 31 26 28 27 27 28 28 27 25 22 21
14 16 16 17 21 20 21 19 18 20 23 28 28 25 23 23 22 24 24 22 23 22 21 18 20 22 26 29 27 29 30 30 33 28 24 24 26 28 29 23 20 19 19
14 15 16 17 19 22 21 20 19 18 22 25 25 25 26 25 23 23 22 21 19 17 19 16 15 21 21 22 21 22 25 26 27 26 27 24 25 26 24 21 20 20 19
16 17 15 14 18 21 22 19 15 19 19 19 20 20 22 22 24 26 23 23 19 19 19 19 19 17 19 17 16 19 21 22 23 23 23 23 22 22 21 19 17 17 17
16 17 18 19 20 22 21 20 16 14 14 15 15 15 14 16 18 19 23 24 21 20 19 19 21 20 20 17 17 17 17 16 15 20 22 19 18 18 17 18 18 17 16

GFSMW_925_spd_096.txt.gz
Wind_Speed
7 15 21 23 29 27 23 28 33 36 35 32 29 28 31 34 34 38 39 35 32 31 29 26 24 26 27 27 28 22 24 19 22 15 14 14 24 27 28 26 24 26 24
12 14 22 19 20 27 25 21 30 35 37 34 35 27 33 31 32 28 30 38 36 32 32 29 27 27 26 27 27 25 17 17 26 10 13 3 2 14 24 27 28 27 25
12 15 16 23 22 24 24 24 23 29 37 36 33 26 23 17 20 24 32 32 38 35 33 30 29 28 27 28 29 29 25 17 25 24 8 3 3 4 10 24 31 30 27
13 12 14 20 24 25 26 27 25 25 34 34 33 34 32 23 26 30 25 18 30 34 31 31 29 28 29 27 29 29 29 22 18 22 20 9 14 3 2 11 23 27 27
11 15 15 22 28 25 27 26 28 24 29 34 37 36 30 26 26 31 28 33 34 27 32 33 31 29 28 27 29 29 30 31 21 24 15 14 13 10 3 4 5 20 26
12 14 20 24 26 26 27 28 27 25 29 33 34 35 31 28 28 28 27 31 34 34 35 33 32 28 28 28 28 27 28 28 27 25 22 22 11 9 5 3 10 13 17
12 13 17 18 26 29 31 30 28 26 24 28 28 29 29 30 31 36 35 32 30 33 35 33 30 26 26 25 26 27 27 28 28 28 28 25 25 19 20 15 12 6 6
13 13 16 18 25 30 31 32 31 32 20 24 24 22 26 25 25 24 26 29 31 28 29 30 28 24 23 23 23 26 26 27 29 26 27 26 28 29 29 21 17 4 3
14 15 17 23 27 30 31 30 31 31 16 21 22 24 27 27 25 22 21 21 25 25 24 26 24 24 26 24 26 22 23 26 28 27 31 31 30 33 30 27 29 12 5
15 16 16 21 26 30 32 31 30 28 7 15 20 21 22 23 23 17 24 26 23 21 21 24 24 27 24 24 21 21 24 25 28 28 32 32 29 31 32 30 29 23 13
14 14 15 22 24 26 30 31 33 31 23 12 17 20 22 22 18 19 23 24 22 21 23 24 26 23 21 20 19 21 22 24 25 26 28 31 34 33 32 31 31 27 20
13 14 15 21 25 27 31 31 32 30 29 14 12 18 18 15 16 28 27 24 21 21 23 22 20 18 18 17 17 20 20 24 25 28 31 34 34 35 36 32 32 29 25
15 15 15 16 23 28 31 31 31 31 29 23 11 4 4 10 19 28 25 22 21 19 17 16 14 14 12 10 13 15 15 19 24 26 30 32 35 32 32 33 31 27 24
13 14 15 16 23 26 27 29 31 31 29 25 23 19 11 13 21 25 25 23 20 18 16 14 13 12 11 8 9 11 12 15 17 19 28 29 33 33 33 32 32 33 26
14 14 14 15 21 26 27 28 28 29 25 27 30 25 19 14 9 25 28 24 23 21 18 16 12 8 5 4 7 7 10 12 10 13 19 26 31 35 38 36 34 33 26
13 14 14 15 19 24 26 27 29 29 27 27 25 25 24 20 19 17 27 26 21 19 17 13 11 8 5 1 5 6 8 11 13 14 14 16 24 30 32 30 28 28 26
12 13 14 14 20 23 24 24 25 28 28 28 26 21 29 27 28 24 20 25 22 20 19 16 13 12 9 4 3 9 11 13 13 14 15 15 14 24 26 26 28 28 25
10 11 13 17 21 23 24 23 27 28 28 29 31 31 30 29 28 23 28 25 24 24 21 18 16 16 15 10 9 13 14 15 13 13 12 15 15 15 19 20 19 17 12
9 12 16 17 20 23 24 23 27 27 28 28 30 32 30 27 26 29 27 27 28 28 27 24 22 22 19 14 15 17 20 22 21 17 15 15 16 15 18 23 27 26 28
13 14 17 18 20 23 23 22 24 25 27 27 27 27 29 28 35 27 23 26 28 28 28 29 28 25 25 19 18 19 23 27 27 24 23 20 18 17 19 25 28 32 25
14 16 17 18 21 19 19 22 22 24 24 26 27 29 28 29 28 30 31 24 29 29 26 30 31 31 29 24 22 22 25 29 26 27 28 26 22 20 21 23 25 30 26
15 17 15 17 20 23 19 20 22 21 23 25 28 28 28 27 27 28 27 28 30 28 24 25 28 30 31 27 28 28 30 28 32 30 28 30 30 28 27 32 28 28 27
14 15 15 16 22 22 22 20 21 22 23 26 28 28 27 28 28 29 28 27 27 22 22 22 23 24 27 28 30 30 31 31 33 30 27 29 32 31 28 26 24 25 26
14 15 17 17 19 22 23 20 20 20 22 23 23 23 24 27 28 28 28 28 25 23 21 18 19 20 23 22 23 25 27 26 28 27 29 30 31 30 26 26 25 24 23
16 17 15 16 18 21 21 20 19 19 19 20 20 20 21 21 24 29 25 26 27 24 22 20 19 17 20 19 19 20 21 21 23 24 24 26 26 26 24 24 23 20 20
18 20 20 21 21 22 24 22 19 16 17 17 17 17 18 18 18 18 27 29 24 23 22 21 23 23 21 18 19 18 16 14 13 21 22 22 23 22 20 20 21 20 19

GFSMW_925_spd_102.txt.gz
Wind_Speed
5 9 12 13 15 16 18 19 21 21 20 19 20 25 28 30 32 33 33 29 27 35 32 28 26 28 27 23 22 17 20 18 17 13 10 8 12 14 15 16 19 18 21
7 11 16 18 18 18 19 20 21 23 22 21 21 25 27 29 31 30 30 27 31 34 34 31 30 29 25 25 23 20 17 15 23 8 8 3 3 11 16 17 22 22 15
7 10 13 17 20 23 23 23 23 23 24 23 23 24 28 27 24 28 29 34 32 33 33 32 31 27 25 25 22 22 21 15 22 20 8 3 4 3 8 19 16 20 20
8 10 11 15 19 20 23 24 23 24 24 23 23 24 28 28 32 31 33 32 34 36 36 37 37 32 28 25 24 24 22 20 20 19 24 12 8 5 3 9 21 22 26
9 11 13 16 18 20 24 25 23 25 26 24 23 26 29 32 30 26 28 29 35 40 38 38 37 40 36 31 26 24 26 25 22 23 18 16 12 10 3 3 7 19 26
11 12 15 17 18 21 22 24 24 27 26 25 25 27 32 35 30 27 26 27 31 36 39 37 34 33 30 31 33 31 27 26 24 26 21 23 13 14 8 3 9 12 14
12 13 16 18 22 24 26 26 25 30 29 28 27 26 32 37 31 30 24 22 27 28 35 37 36 39 37 33 34 29 29 28 28 26 25 26 24 18 19 11 7 4 6
12 15 16 19 22 25 27 28 29 33 35 32 31 28 27 31 29 26 21 24 25 29 27 36 41 32 39 29 29 29 28 27 29 28 28 25 26 25 23 17 9 5 5
12 15 17 21 24 25 28 29 29 32 33 33 34 29 22 25 21 22 23 25 26 26 25 26 25 24 22 29 32 30 26 24 29 29 30 28 26 26 28 26 17 14 5
13 14 16 21 23 24 26 28 27 29 33 35 33 31 12 16 19 25 24 27 26 22 22 22 21 24 30 31 31 24 24 26 27 26 27 26 25 24 27 28 27 22 13
13 13 14 21 23 24 26 28 32 34 36 36 35 32 9 13 17 21 21 27 25 25 28 25 23 25 23 25 23 23 23 23 25 25 26 27 27 26 26 26 26 24 23
11 12 14 21 24 25 28 29 30 32 34 33 30 27 19 11 14 20 25 28 27 27 29 35 28 18 22 20 20 21 20 24 25 23 25 26 27 27 26 25 24 24 23
11 12 13 16 20 24 27 30 32 31 37 33 30 26 25 20 15 4 15 22 21 24 23 23 27 27 21 20 22 24 25 25 24 25 24 24 25 26 26 29 27 27 26
10 12 12 14 20 23 26 29 31 32 35 26 25 26 27 24 20 12 3 12 16 16 18 19 23 25 23 21 23 23 21 21 18 18 19 20 21 25 27 29 30 29 27
10 11 12 13 19 23 25 28 30 31 29 29 33 32 27 30 20 16 12 7 11 15 19 24 26 26 24 19 18 19 18 16 15 17 20 20 23 27 30 30 29 29 30
10 12 13 15 18 22 24 25 28 30 29 30 28 26 32 26 24 22 18 19 12 12 19 24 22 20 15 14 18 16 13 14 13 13 11 11 14 21 29 33 31 34 31
10 11 12 14 17 22 22 23 24 25 28 28 30 32 30 27 29 26 25 26 27 24 18 19 23 19 12 8 10 14 12 11 9 6 4 4 5 7 12 27 27 29 29
9 11 13 15 18 20 21 21 22 24 25 28 31 33 33 32 31 26 26 28 29 32 31 28 23 22 17 12 11 13 12 12 10 8 6 4 4 5 12 21 21 17 18
9 11 13 14 17 20 20 20 23 23 26 28 28 29 30 29 29 30 27 26 28 32 34 32 23 29 23 15 16 16 18 18 18 15 12 9 8 8 13 20 26 25 24
10 12 12 14 19 21 20 21 23 24 26 26 25 26 27 29 28 27 28 26 27 32 33 37 29 32 29 21 20 19 21 23 21 21 20 17 14 11 12 18 21 27 19
11 11 13 17 19 18 20 22 22 24 22 25 27 27 29 28 28 27 27 27 28 31 34 33 34 35 34 31 24 21 24 22 22 22 24 25 20 19 19 21 23 25 24
13 13 15 18 19 20 20 21 22 22 23 24 25 26 27 28 28 27 28 28 25 26 25 24 28 30 33 29 31 29 28 26 28 24 25 26 27 29 29 30 26 29 30
13 14 15 17 19 20 20 21 20 18 19 22 24 25 27 27 27 28 27 24 26 24 23 21 20 21 23 25 31 30 29 30 31 28 23 23 26 28 32 28 28 28 30
15 15 17 18 19 20 21 20 19 17 17 19 19 20 23 27 30 26 27 27 24 21 22 21 20 21 21 20 22 19 17 23 25 27 29 29 31 33 31 30 29 27 28
16 16 16 17 19 19 20 21 21 18 17 17 17 18 18 19 20 29 32 27 31 28 22 22 22 19 21 23 20 15 13 15 16 15 15 16 17 19 19 20 20 19 19
14 15 16 16 17 18 20 21 22 21 18 17 17 17 16 15 15 14 17 25 26 27 26 24 19 19 19 18 18 15 13 14 12 12 14 15 15 16 15 15 16 15 15

GFSMW_925_spd_105.txt.gz
Wind_Speed
4 3 4 6 9 11 14 16 18 17 17 17 18 20 22 26 28 31 31 29 29 31 32 30 29 30 30 27 26 24 20 19 15 10 9 11 12 14 13 13 12 13 17
4 4 5 8 11 12 13 15 17 19 19 19 20 22 23 27 25 29 29 31 30 28 33 32 30 31 29 27 27 24 18 15 21 8 7 2 5 10 14 12 12 13 21
1 4 8 10 12 13 15 16 17 19 20 20 22 23 25 28 31 26 27 28 34 35 37 33 34 33 31 31 30 26 24 19 21 18 7 3 4 3 9 16 14 16 17
3 7 9 13 15 15 16 17 18 20 19 19 21 21 25 27 25 31 26 28 33 33 35 38 39 32 31 30 32 28 25 22 20 22 24 16 4 5 2 7 15 17 17
5 7 10 13 14 16 19 20 21 21 21 21 20 21 24 28 30 33 29 28 31 32 35 38 37 33 30 30 27 22 26 26 22 24 16 22 13 14 5 4 8 16 21
6 8 11 13 15 17 19 21 22 24 22 22 22 23 25 27 31 30 31 28 26 31 33 33 34 35 35 35 37 21 33 31 28 26 23 20 12 12 12 7 7 11 13
8 9 11 13 17 19 21 23 23 25 25 24 24 24 26 28 32 36 33 27 24 26 31 35 36 38 40 42 39 27 41 35 29 28 27 24 23 20 19 15 7 3 5
8 10 12 16 19 22 24 24 26 26 27 27 28 28 27 26 31 38 34 27 25 25 27 36 36 37 33 26 26 28 33 29 28 26 24 24 25 21 19 15 12 4 2
9 11 12 16 19 22 23 25 27 27 28 30 29 30 29 26 31 37 30 28 24 23 28 30 33 29 28 27 26 27 31 31 30 25 26 22 22 22 21 20 18 11 4
11 12 13 18 20 21 23 25 25 28 29 30 28 30 33 33 24 26 26 25 23 25 27 30 34 30 26 26 26 28 28 31 27 22 22 21 21 21 22 24 24 21 14
10 11 12 18 19 22 23 25 27 28 31 32 31 33 37 36 26 13 19 23 24 26 25 26 26 30 33 32 25 21 25 25 20 18 18 21 21 23 22 24 21 23 21
10 11 13 17 20 23 25 25 29 29 29 29 30 32 35 35 29 19 16 16 21 24 24 23 25 27 29 26 28 19 14 25 20 19 19 22 23 24 22 22 25 25 26
11 12 13 14 19 22 24 26 29 32 31 31 32 30 34 33 31 26 17 13 18 18 21 22 24 27 28 30 30 26 47 39 26 20 21 22 19 21 22 23 23 24 22
10 11 12 13 19 21 24 26 27 31 32 32 33 34 32 31 29 26 23 17 4 18 23 23 20 20 23 26 30 28 27 22 19 21 22 22 23 24 23 24 26 25 22
11 12 13 13 19 21 24 26 26 28 30 30 33 33 29 27 26 29 26 22 19 11 6 13 16 18 20 20 21 23 22 20 19 14 11 14 14 15 17 17 24 26 24
10 11 13 15 18 21 23 23 24 25 27 29 32 32 32 32 36 31 27 28 25 24 19 13 9 13 10 17 20 19 16 14 14 12 10 11 17 21 25 28 31 27 29
10 12 12 14 18 20 20 22 22 23 26 28 30 31 32 33 35 32 32 34 29 28 32 29 17 13 10 8 17 18 16 12 9 6 5 7 11 12 14 14 17 25 32
11 12 13 16 19 18 20 20 21 24 26 28 29 30 30 30 30 30 30 29 31 33 32 34 31 24 21 13 17 18 17 15 11 7 3 2 5 7 9 8 7 6 9
10 10 14 16 17 18 20 19 22 25 27 27 28 29 30 29 31 31 30 33 34 31 31 34 36 25 34 21 16 23 22 21 19 15 10 5 3 1 6 11 16 18 19
10 12 13 15 15 19 19 21 24 25 25 26 27 28 28 29 30 30 29 29 30 29 30 33 38 30 38 32 21 25 25 27 23 21 20 20 9 4 7 13 17 22 17
12 11 14 13 15 16 17 19 21 23 23 24 27 29 30 29 29 27 32 27 26 27 30 32 36 35 40 37 33 26 30 24 24 24 25 23 20 18 12 12 14 18 19
12 12 12 14 18 19 19 19 16 18 21 23 26 29 31 28 30 30 27 29 26 26 25 25 27 30 38 37 31 33 31 27 26 25 24 25 26 28 26 25 22 23 24
11 11 13 16 18 20 21 21 21 18 18 19 20 23 26 30 28 30 30 29 27 26 25 25 25 27 27 25 29 35 34 30 30 22 20 23 25 27 30 27 24 24 26
13 14 15 17 19 19 20 20 20 18 19 19 20 20 21 23 28 28 28 30 30 24 25 25 23 23 25 28 23 24 23 22 25 15 23 30 30 32 30 30 30 28 26
12 13 14 15 17 18 20 22 22 21 18 19 20 20 19 20 17 22 26 25 30 29 25 21 23 22 23 23 21 21 20 20 17 16 17 19 21 21 22 21 23 22 20
12 13 14 15 16 17 20 21 21 21 20 18 18 20 18 18 18 17 13 20 23 25 25 24 22 18 19 20 20 19 17 17 14 14 16 18 18 17 15 15 15 17 15

GFSMW_925_spd_108.txt.gz
Wind_Speed
15 17 14 12 8 9 11 14 15 16 18 16 16 17 18 19 22 26 30 27 31 33 34 34 34 31 30 31 29 28 27 22 19 14 9 11 13 11 15 17 17 19 17
13 12 12 11 7 8 13 14 15 17 18 18 21 21 23 26 29 29 26 29 38 34 34 35 34 33 32 33 31 32 24 20 27 13 7 2 5 17 15 16 18 17 17
14 11 9 10 9 11 12 14 17 18 19 19 20 20 22 24 25 30 36 37 37 39 34 36 36 36 30 17 30 29 29 22 24 25 8 3 4 3 14 20 18 18 20
12 10 8 8 9 15 15 15 18 20 19 22 21 22 22 22 27 33 31 31 33 39 39 42 39 36 36 36 29 28 26 24 21 21 26 11 7 4 2 9 21 21 22
10 10 8 10 15 16 16 18 19 21 23 23 22 22 23 24 27 30 35 35 37 41 40 41 39 40 36 35 34 28 27 27 23 21 15 20 18 16 3 3 5 18 22
12 9 12 15 17 17 17 19 20 22 23 22 23 24 27 28 28 28 32 35 36 33 40 41 37 37 35 34 38 39 34 38 31 30 25 19 17 12 6 2 4 9 14
12 9 11 13 16 18 19 20 21 23 24 23 25 27 27 28 30 30 31 35 38 30 30 36 37 37 34 40 38 37 39 34 34 28 29 31 27 23 20 14 3 3 4
11 11 11 14 16 18 20 22 24 25 26 25 28 29 28 26 28 30 31 35 39 30 24 43 36 36 37 36 40 40 34 37 30 27 26 28 24 29 23 19 8 3 2
11 9 11 15 17 19 20 21 23 25 25 27 29 31 28 27 28 31 33 41 41 37 26 30 30 30 36 36 35 26 28 31 32 35 22 33 30 30 26 21 20 10 4
12 11 10 15 17 19 20 20 21 25 26 28 28 28 29 28 28 25 28 25 33 34 26 25 27 32 35 35 36 30 28 30 27 27 27 34 27 27 26 22 22 21 12
11 11 10 17 19 20 21 21 24 26 28 29 29 29 31 31 29 29 32 33 24 26 28 29 32 31 33 33 33 32 30 30 28 29 29 31 29 26 27 25 22 23 20
13 12 13 19 20 20 21 23 25 27 30 30 30 29 31 31 30 31 32 33 29 16 27 30 27 33 33 32 32 29 30 30 29 20 23 25 25 25 27 28 24 22 22
13 13 13 16 18 21 22 23 25 27 31 31 30 30 31 32 33 33 34 32 30 21 16 26 26 24 30 30 32 31 33 34 26 20 24 25 27 26 25 24 23 23 21
12 12 13 15 19 21 21 23 25 27 28 31 30 30 31 32 32 32 32 30 30 26 20 14 18 18 24 29 29 29 28 28 26 24 29 23 24 21 21 24 22 21 21
12 12 13 12 19 19 21 23 24 26 28 28 29 29 31 32 34 33 34 32 32 29 24 21 13 7 9 11 22 21 28 30 28 7 13 16 17 19 15 16 19 22 21
11 12 12 15 17 20 22 22 23 25 26 27 28 29 32 34 36 33 35 36 34 35 30 29 27 21 18 6 17 21 20 18 18 14 10 10 12 13 14 14 15 15 15
10 10 11 15 18 19 20 21 22 23 26 25 27 30 31 34 33 35 36 35 34 34 37 37 34 37 29 20 11 19 21 19 17 16 12 9 5 5 6 8 11 13 20
9 10 13 16 19 19 19 19 21 23 24 25 27 31 33 31 33 34 34 34 34 35 35 36 35 33 38 28 21 16 24 22 17 12 9 6 3 0 4 6 5 2 6
10 11 13 14 16 21 22 19 20 22 23 27 29 32 31 30 31 31 31 29 32 34 37 37 38 38 38 35 27 22 24 28 26 22 16 11 8 5 4 7 9 7 8
10 11 12 14 17 19 16 17 19 21 24 26 30 30 28 31 30 30 31 29 28 29 31 39 42 40 42 41 32 23 26 27 24 28 29 28 18 9 6 10 11 13 9
11 12 14 15 18 19 18 12 15 18 20 24 26 28 30 29 31 30 31 31 28 30 31 32 33 35 43 40 38 34 32 25 27 26 28 30 26 25 18 13 13 13 13
12 13 13 16 15 17 18 20 14 20 22 23 22 25 30 29 30 31 31 30 29 29 29 29 31 35 35 35 38 39 36 32 30 24 25 28 28 28 25 25 21 19 19
12 12 14 15 18 20 22 22 24 20 21 20 21 21 22 27 28 30 30 29 29 27 27 26 26 28 33 34 31 30 30 31 30 28 31 27 29 30 32 27 22 21 25
13 14 15 17 18 20 23 23 24 23 20 22 21 20 20 18 25 24 26 27 28 26 25 25 25 24 28 30 31 28 27 24 26 25 24 27 31 34 31 32 32 29 27
12 13 15 16 18 18 21 24 24 23 21 20 22 21 21 21 16 22 23 23 26 28 25 25 22 24 24 26 25 25 26 21 20 21 24 26 24 25 24 28 28 23 22
11 13 15 15 16 17 19 22 25 23 22 21 20 22 21 21 21 20 14 18 21 26 28 25 25 22 22 22 22 24 25 22 20 23 21 21 22 23 18 20 21 21 22

GFSMW_925_spd_111.txt.gz
Wind_Speed
15 26 29 29 26 22 20 19 18 19 19 20 21 22 24 25 25 25 23 21 17 29 36 42 43 41 43 36 37 36 34 30 31 22 15 14 18 19 19 20 21 22 20
17 17 24 28 28 24 19 18 17 18 19 20 19 17 18 16 23 27 30 32 32 29 29 40 37 36 40 36 35 38 23 19 31 12 10 2 4 16 19 20 21 22 22
21 19 16 24 28 26 23 20 18 18 19 21 24 25 24 21 19 22 28 30 28 28 28 33 39 36 39 38 34 25 21 15 18 17 8 2 4 3 14 23 24 25 23
21 18 16 21 23 27 23 20 19 19 18 21 22 22 18 20 23 26 29 35 38 38 34 29 39 42 39 39 39 40 24 31 31 15 26 9 7 3 3 7 23 27 26
21 18 17 22 27 26 23 20 21 20 22 22 21 21 20 21 24 26 29 33 34 36 32 33 31 42 40 40 43 38 31 39 34 23 35 27 13 10 3 3 5 20 27
17 17 24 24 28 23 19 19 22 22 23 25 23 22 23 25 25 27 29 30 30 34 34 31 31 34 42 40 40 40 39 37 33 37 37 32 22 14 5 3 3 9 15
17 15 16 15 25 21 19 17 22 24 26 26 25 24 23 24 24 27 28 32 31 31 32 29 36 30 37 37 37 37 40 41 40 39 34 32 30 22 22 13 5 3 8
16 15 13 18 20 19 20 21 21 24 24 25 26 26 24 25 25 26 30 33 32 34 36 35 34 35 30 34 36 39 42 43 37 33 32 31 31 30 31 24 10 3 3
15 13 17 21 21 19 21 23 23 23 26 25 25 26 27 27 28 30 31 31 31 33 37 37 35 34 38 32 36 39 43 43 45 38 30 26 29 36 35 30 28 12 6
14 12 15 20 20 21 21 23 24 23 26 26 26 26 28 29 29 29 29 31 31 32 29 26 32 34 40 38 39 40 36 36 31 37 27 29 31 35 37 35 26 26 12
13 13 14 17 19 21 21 21 24 25 27 28 27 28 30 30 30 28 28 30 31 30 27 23 30 33 37 33 38 35 32 32 33 36 40 41 39 37 27 31 30 26 23
11 10 14 17 17 20 22 23 25 25 26 27 28 28 29 29 28 28 29 30 31 30 28 23 21 27 30 31 36 29 29 31 32 37 39 42 39 37 30 25 29 25 27
10 10 13 17 20 20 21 21 22 24 26 27 28 29 29 30 29 30 31 30 33 33 33 25 21 15 14 29 32 31 31 29 32 34 34 31 25 25 24 25 27 27 26
14 13 12 16 19 20 20 21 23 25 27 28 29 29 30 30 29 29 31 32 34 35 36 32 26 22 16 0 7 26 26 26 26 27 29 21 18 27 26 24 27 24 21
15 14 13 13 16 18 20 22 24 26 27 26 27 28 29 28 29 31 32 33 35 35 32 30 31 28 32 24 10 13 18 25 22 18 19 16 21 17 25 24 24 26 24
11 10 11 17 17 20 21 22 24 25 24 24 26 28 27 28 30 31 34 36 37 34 34 34 34 36 30 32 14 8 23 18 18 15 13 16 22 22 20 18 22 23 22
10 11 12 17 19 19 20 21 23 23 25 25 26 26 25 28 30 31 33 34 36 34 36 37 36 38 40 36 25 29 22 21 20 19 17 14 12 14 15 16 15 17 18
10 10 13 15 19 22 21 23 24 22 23 24 24 25 28 30 31 33 34 33 31 33 38 40 39 39 44 39 33 26 40 31 28 17 14 11 10 10 11 12 10 8 6
10 11 12 15 17 18 20 17 21 21 23 25 25 27 29 29 31 32 33 32 33 35 36 34 40 42 47 46 35 31 39 26 37 33 27 13 11 8 12 12 13 11 7
11 11 14 17 19 21 20 17 16 19 19 22 26 25 27 30 31 32 31 29 29 31 32 35 39 36 40 48 42 38 32 32 34 32 30 29 22 11 11 14 13 13 7
12 13 15 15 17 18 21 18 13 16 20 18 25 32 30 30 34 31 30 29 29 30 31 32 37 40 41 40 41 42 37 30 28 27 29 31 26 22 20 17 15 13 10
11 13 14 15 17 20 20 21 18 21 19 19 20 27 32 30 33 33 32 30 28 28 29 30 32 36 40 39 37 36 34 33 30 27 24 29 27 25 28 26 20 17 15
11 12 13 16 20 22 24 21 24 18 23 25 24 22 27 32 28 29 30 31 30 28 27 27 27 29 32 35 35 33 32 31 29 26 27 29 28 28 34 28 24 23 20
14 16 17 17 18 19 21 23 24 23 21 24 25 25 24 24 28 26 25 27 29 28 28 27 26 26 28 30 32 31 28 25 24 24 28 29 30 32 33 32 30 29 24
16 17 15 14 14 16 21 23 24 24 20 20 23 24 24 24 20 22 24 24 27 29 25 25 27 27 28 29 27 28 27 23 22 23 27 27 26 26 27 27 27 24 22
16 16 15 15 15 16 20 22 22 20 21 19 20 24 24 24 22 23 18 16 21 26 25 23 26 25 26 27 25 26 27 24 22 27 24 23 23 23 21 21 21 22 21

GFSMW_925_spd_114.txt.gz
Wind_Speed
11 18 23 28 32 31 30 27 24 24 23 24 25 27 26 27 22 22 23 23 22 19 18 20 26 34 37 40 42 37 28 29 34 22 21 27 28 27 28 26 26 26 26
7 13 22 27 30 31 29 27 25 22 21 21 19 14 23 19 24 22 24 23 23 24 24 21 19 25 32 35 32 35 32 31 31 19 11 4 6 21 25 24 26 29 28
14 13 16 23 26 30 28 26 24 21 20 20 21 22 19 20 20 28 28 26 27 27 27 29 27 24 23 32 32 35 37 30 16 16 5 5 3 1 10 23 30 31 30
11 14 14 22 24 27 29 26 22 23 21 21 22 23 17 16 19 23 25 30 29 29 28 27 29 28 30 27 32 34 34 31 21 14 12 18 8 3 2 9 26 30 32
9 12 17 25 25 27 27 22 22 28 22 21 20 19 20 21 24 22 21 23 24 26 28 28 27 28 31 33 30 31 32 34 29 25 18 24 30 23 4 4 6 22 28
15 17 23 23 22 22 22 20 23 32 25 21 20 16 18 22 24 23 24 22 23 24 24 25 27 27 27 32 30 36 35 38 38 31 26 25 24 18 7 3 5 12 18
14 16 16 18 21 22 26 21 27 24 25 23 21 18 17 20 21 23 23 28 25 26 30 30 30 30 31 30 27 35 37 35 32 31 32 35 33 22 27 14 4 3 11
15 15 16 18 19 23 26 23 20 20 25 24 22 19 20 21 22 23 24 26 25 27 31 31 30 35 36 34 32 32 35 33 36 33 30 34 39 33 29 26 9 2 5
11 15 17 20 23 23 19 20 21 22 24 26 24 23 22 23 24 26 25 25 26 28 31 35 35 36 33 32 32 30 35 36 39 37 43 40 36 37 37 32 27 14 6
14 13 14 21 21 17 18 21 20 19 18 21 23 24 24 25 25 25 25 27 30 31 34 35 34 34 32 34 33 31 31 32 37 39 38 37 33 36 34 33 32 30 11
11 11 13 15 16 17 19 21 24 23 25 25 25 25 25 24 25 25 27 28 29 31 30 33 33 30 31 29 32 32 29 31 32 30 34 37 39 35 31 29 29 27 26
13 13 18 19 19 19 19 21 23 22 23 22 21 22 23 25 26 26 27 30 30 29 29 30 31 27 29 23 27 33 29 28 29 31 33 37 33 33 30 26 22 26 27
12 11 14 16 18 18 18 19 21 23 24 22 22 23 26 27 27 29 30 31 31 30 31 30 30 31 30 25 13 19 24 28 31 33 35 36 31 24 22 22 22 22 26
10 9 9 12 13 15 17 18 20 23 23 21 23 25 26 27 28 29 32 32 31 31 32 31 30 30 30 29 23 12 13 13 28 32 37 32 33 24 21 24 25 31 33
9 10 10 11 14 15 16 18 21 21 20 22 24 26 26 27 29 30 30 31 33 33 33 32 31 34 28 33 28 14 13 23 33 24 25 27 31 31 38 32 33 33 29
10 10 11 14 14 17 17 17 18 21 20 22 25 25 25 27 27 31 33 32 32 33 34 36 34 35 34 34 33 13 13 11 18 13 18 11 20 23 29 31 27 29 24
8 8 9 14 15 15 18 18 18 20 23 24 26 26 27 28 30 30 30 33 34 35 34 35 35 38 40 38 35 33 31 32 29 29 14 10 8 12 17 22 26 23 25
5 6 9 11 14 15 15 15 19 22 27 28 27 28 28 27 28 29 30 33 30 31 32 36 37 38 47 45 36 35 37 37 39 40 31 20 13 7 3 14 21 18 14
6 7 9 10 13 15 14 15 20 22 24 26 25 26 27 28 28 29 27 28 30 31 32 34 38 38 39 46 44 35 30 32 37 38 36 35 26 18 6 4 12 18 14
9 9 12 15 19 21 19 18 17 20 21 21 23 28 25 29 29 29 26 28 30 29 30 32 36 35 37 44 44 38 33 33 28 31 36 36 32 29 16 8 4 8 11
12 14 15 16 18 20 20 21 21 23 20 16 26 29 29 27 28 27 31 31 29 28 30 31 33 37 37 39 40 40 36 29 27 29 31 33 31 30 30 25 18 14 7
14 13 15 16 17 19 20 21 22 22 21 23 21 26 29 26 28 28 27 30 29 29 28 29 30 32 36 37 36 34 32 30 30 29 29 29 28 34 29 27 19 18 14
13 12 13 14 18 20 20 19 21 19 20 21 22 21 23 27 26 24 26 28 28 27 27 27 27 29 32 35 35 32 30 28 28 26 25 28 32 32 33 32 28 25 22
14 13 14 14 15 18 19 20 18 15 17 20 22 22 21 20 23 22 23 26 27 24 26 25 27 28 30 32 34 32 31 30 28 28 29 29 30 31 32 32 30 28 27
14 14 12 12 15 17 18 18 17 16 15 17 19 19 19 20 19 20 21 24 28 26 24 26 25 28 30 32 29 32 31 27 26 28 30 31 29 27 27 28 29 27 25
14 16 15 14 12 14 16 16 20 18 16 14 16 20 21 23 22 21 19 19 24 25 25 26 27 27 27 27 27 26 29 29 24 29 27 26 26 26 25 24 23 25 23

GFSMW_925_spd_117.txt.gz
Wind_Speed
7 17 21 18 17 18 20 21 21 19 16 13 10 7 17 11 14 13 16 16 16 17 19 19 19 15 15 21 23 29 29 25 34 19 16 19 27 28 32 35 35 34 31
8 12 17 23 19 19 19 22 23 22 21 19 16 12 12 9 12 15 17 19 21 21 20 20 21 20 20 17 18 24 22 23 30 20 12 5 10 19 24 27 32 33 30
12 11 15 19 20 21 20 21 21 21 23 22 19 15 10 16 18 24 23 23 24 24 22 21 20 21 19 21 21 18 24 20 19 27 11 2 4 4 17 25 30 31 29
13 12 13 18 21 18 21 24 24 24 25 23 22 20 16 9 14 23 24 25 24 25 26 24 22 21 20 20 24 24 22 24 17 14 24 20 10 3 2 8 18 36 31
13 12 12 16 21 22 18 23 27 29 26 24 22 17 15 13 14 16 22 22 22 24 24 25 23 21 19 19 20 24 26 27 26 23 12 13 16 13 3 4 5 18 35
14 14 18 16 19 22 18 25 23 28 26 27 23 21 19 19 19 18 19 20 22 24 24 25 25 26 26 24 22 23 27 28 32 30 30 23 11 9 5 4 6 13 24
15 14 15 20 19 18 23 19 21 21 23 26 24 23 20 17 17 17 19 22 22 21 23 26 28 28 27 27 28 28 28 27 32 34 31 34 32 26 25 17 8 9 16
10 11 15 17 18 16 15 18 19 19 23 25 22 20 17 17 16 18 20 20 21 23 24 25 26 28 27 28 29 29 27 29 30 33 36 33 32 32 30 29 17 8 6
5 8 10 15 17 19 22 24 23 21 25 22 21 20 20 21 21 20 18 20 21 23 25 26 25 27 27 26 29 28 28 27 30 32 35 37 34 34 33 33 33 18 9
8 9 12 16 17 20 20 25 24 24 23 22 22 20 19 19 21 20 21 23 23 25 25 27 28 27 27 26 28 29 29 28 28 31 31 33 29 30 31 30 32 32 19
7 8 10 11 14 15 17 19 20 19 20 20 20 19 22 22 21 22 23 24 26 26 26 27 26 26 28 28 30 30 26 27 28 28 30 33 33 31 30 32 32 27 22
6 6 9 9 11 13 19 20 21 21 20 20 21 23 24 22 23 25 26 28 27 28 27 27 26 28 28 30 30 31 26 25 26 29 31 34 27 31 31 31 29 28 30
7 7 8 8 8 13 16 18 19 19 18 20 22 23 23 24 25 25 26 27 29 29 30 30 30 31 30 32 34 33 31 24 25 29 28 32 27 28 27 29 29 28 29
7 8 8 13 17 20 19 19 18 17 19 21 22 23 24 23 26 26 27 28 29 29 30 31 32 34 30 35 37 35 27 25 21 17 25 29 29 31 31 29 26 27 23
6 8 8 11 12 11 12 14 16 18 19 22 22 23 23 24 25 25 26 28 29 30 31 33 33 36 35 39 41 33 28 26 19 9 10 13 24 34 34 31 27 27 23
5 7 6 7 9 12 12 14 18 21 21 20 21 21 23 24 25 25 29 27 31 32 34 36 35 37 40 47 44 39 32 30 27 27 18 14 16 11 36 33 29 31 27
5 5 4 6 8 10 12 14 17 18 21 22 22 25 27 27 29 29 30 32 32 31 34 37 36 36 44 51 46 40 34 32 32 33 32 27 26 21 8 21 23 24 30
5 4 4 6 9 8 11 14 17 20 20 21 21 24 26 28 29 30 30 31 30 30 29 34 37 37 43 50 49 41 37 34 33 35 36 31 34 29 16 4 6 4 1
6 7 8 8 12 15 14 12 15 17 21 22 24 24 26 27 31 31 29 29 28 30 32 34 37 39 40 48 49 44 37 34 34 36 40 40 35 29 22 14 15 10 14
9 11 12 14 17 16 17 17 17 17 17 23 23 23 23 28 30 30 31 31 31 30 28 31 35 36 39 43 44 41 34 34 33 33 35 41 41 39 33 24 22 19 19
12 11 13 15 13 13 15 17 19 18 18 18 24 26 26 26 29 26 28 29 27 28 30 31 33 38 39 41 40 39 34 30 28 30 33 36 37 38 35 27 34 20 15
12 11 12 11 11 12 14 16 18 17 18 20 22 24 26 25 27 28 28 27 27 28 29 30 31 34 36 38 39 36 33 32 29 31 32 34 37 36 38 39 32 29 25
11 9 10 10 13 13 14 14 15 16 19 21 22 21 21 23 24 25 27 27 28 29 27 28 29 31 33 35 37 36 33 33 33 29 30 32 35 36 40 37 36 35 30
12 12 13 11 12 13 12 14 15 16 18 19 19 20 20 19 20 23 24 26 27 26 26 26 26 27 29 32 33 34 35 35 33 32 33 33 34 36 35 36 36 35 31
12 14 12 10 9 11 16 16 15 15 14 17 19 18 19 19 20 22 25 26 29 28 25 23 26 27 29 31 28 29 32 30 29 30 32 35 34 32 33 33 33 33 32
13 14 12 10 10 13 16 17 16 15 15 15 17 17 17 20 20 19 23 22 23 23 25 25 27 27 27 28 27 26 28 29 24 32 29 28 28 29 29 29 29 30 30

GFSMW_925_spd_120.txt.gz
Wind_Speed
13 24 27 28 26 26 24 24 21 21 19 12 5 2 5 8 8 8 7 7 9 10 12 12 12 11 11 13 13 16 23 27 30 18 18 27 21 19 29 28 31 35 31
14 20 26 28 29 29 30 28 25 24 21 20 14 6 4 5 6 11 10 12 11 11 12 14 14 12 13 14 14 11 13 20 25 18 15 7 18 28 34 25 27 36 26
14 16 22 25 26 28 27 27 28 28 28 21 20 12 4 2 6 16 15 17 14 14 14 14 15 14 13 13 15 15 17 12 14 24 10 2 4 6 21 34 33 36 39
16 16 21 24 27 24 24 26 24 31 26 26 21 18 12 9 13 15 17 17 16 16 14 13 13 14 14 14 14 15 17 17 15 15 28 29 4 3 2 9 29 36 38
16 16 20 21 22 24 23 23 25 30 25 27 23 20 14 16 15 17 18 17 19 18 17 16 15 16 14 15 15 16 16 18 20 20 13 21 22 16 3 3 6 23 35
10 12 14 16 17 20 23 24 25 25 31 30 26 24 21 19 18 18 19 21 19 18 19 19 19 19 16 16 17 18 20 20 21 24 23 23 10 7 6 2 3 12 22
6 5 9 14 14 19 20 22 26 25 25 28 25 25 21 18 15 18 19 21 21 21 22 23 23 21 21 20 20 20 22 22 24 26 27 28 30 26 26 21 5 4 16
5 5 6 6 10 14 20 23 24 26 25 25 23 21 21 19 18 20 20 18 19 21 23 24 23 21 22 23 21 21 23 23 26 27 34 31 31 29 28 24 16 5 5
6 7 9 10 11 13 14 18 18 17 18 17 18 20 20 20 23 23 21 21 21 20 21 20 21 21 21 23 20 21 22 24 25 30 30 31 30 29 31 31 28 17 10
6 6 8 12 14 13 14 17 15 15 16 18 19 19 21 24 24 24 24 23 22 23 23 23 22 21 22 20 23 22 24 23 24 27 28 29 29 30 32 30 29 27 21
4 5 6 9 11 13 16 17 17 16 18 18 18 18 22 22 21 20 21 22 22 23 23 24 24 23 22 24 24 24 23 26 25 22 29 27 28 28 28 29 29 28 28
3 2 6 10 12 15 16 15 17 18 20 18 19 22 22 21 22 25 24 24 22 22 22 23 25 24 25 24 24 23 23 23 23 25 23 28 24 26 28 28 29 29 29
5 5 7 10 11 12 12 13 15 16 19 18 19 20 22 24 26 24 25 25 25 25 26 26 28 28 29 29 28 24 25 25 23 24 25 21 27 30 28 29 25 28 30
5 5 6 9 10 12 13 15 16 18 18 19 20 21 22 24 25 26 25 27 27 27 28 29 28 29 32 32 32 28 30 30 29 29 28 25 22 18 18 28 27 26 23
6 5 5 7 9 11 14 15 17 19 18 20 22 25 24 24 24 23 25 25 26 27 29 29 30 34 39 41 38 31 30 32 33 35 34 30 30 28 22 19 24 22 23
7 5 6 8 10 12 13 15 18 19 20 21 23 23 23 23 24 25 27 30 31 30 32 33 34 38 41 45 36 33 32 34 35 36 38 36 37 38 29 24 28 25 29
6 5 5 7 8 11 12 13 16 18 19 21 21 22 21 23 25 27 29 32 32 30 30 34 35 35 42 45 38 33 31 32 35 36 39 36 38 43 33 22 10 5 4
7 5 6 7 7 9 10 11 16 18 17 19 19 22 23 25 27 29 31 32 30 30 29 33 34 34 38 43 39 29 30 30 35 38 38 38 40 46 37 24 21 23 21
7 9 8 8 11 13 11 12 13 15 16 17 19 19 23 25 27 29 29 29 30 33 32 30 33 35 37 41 40 35 30 32 33 35 38 43 42 45 41 30 24 29 33
14 14 12 13 14 13 12 13 13 12 15 19 18 19 20 26 27 26 27 29 29 30 31 30 31 31 34 40 40 40 35 32 32 33 36 41 42 44 45 43 39 30 33
16 13 13 13 11 11 12 14 13 13 12 15 19 21 22 23 27 28 31 29 27 27 27 26 28 32 35 38 41 40 38 32 29 32 35 38 39 39 41 41 39 35 33
15 13 13 11 9 9 12 14 14 12 13 14 16 19 22 24 27 29 26 26 24 26 28 28 29 33 34 36 39 39 37 34 30 31 33 34 35 36 38 41 38 40 36
15 12 13 11 11 9 10 11 11 11 12 16 17 19 19 21 24 25 26 25 25 26 27 27 29 31 34 35 37 38 36 35 35 29 30 31 33 34 37 38 39 42 37
15 13 14 12 10 9 10 11 11 11 14 16 17 17 19 19 20 22 23 25 26 25 27 29 27 28 33 37 37 36 37 37 37 34 34 32 30 33 34 37 39 36 35
14 14 14 11 11 12 12 10 10 11 13 15 16 17 15 14 16 23 24 24 28 27 24 24 28 29 32 36 33 33 34 33 30 33 32 37 38 36 36 35 35 35 36
16 15 13 12 11 12 12 12 12 12 13 14 13 13 14 14 16 17 21 21 21 22 24 26 28 29 28 30 31 29 31 31 26 32 30 30 30 30 31 32 32 34 34

GFSMW_925_spd_123.txt.gz
Wind_Speed
14 20 23 24 24 26 26 26 26 26 22 19 13 8 10 10 11 11 11 8 7 5 5 6 7 9 10 12 13 15 16 20 22 21 25 36 28 30 31 33 29 29 28
14 20 23 24 24 24 25 26 24 23 23 17 16 10 11 8 10 14 13 14 13 10 7 6 7 7 7 10 11 11 10 12 19 12 8 3 19 34 35 27 29 34 29
11 13 18 22 22 23 22 22 22 21 21 18 15 16 11 15 15 17 16 17 15 14 10 9 8 9 8 8 11 11 12 13 11 27 10 3 6 9 22 33 31 33 35
9 10 12 15 18 18 18 20 19 20 20 19 19 19 15 18 20 18 17 16 15 15 13 13 11 11 11 10 10 11 11 11 15 15 29 26 8 4 4 13 26 35 34
5 5 7 7 9 13 15 18 17 18 19 19 20 17 21 17 18 17 16 15 13 14 15 14 14 14 14 13 12 12 14 15 14 19 13 18 22 21 5 5 7 22 28
5 8 10 12 15 17 18 15 16 17 22 24 24 24 17 15 17 21 19 20 19 17 16 18 15 15 15 16 16 15 15 17 19 20 21 22 13 12 11 9 8 11 21
3 7 12 15 16 19 21 19 18 17 18 19 18 19 16 15 13 17 21 21 19 19 18 20 18 18 18 18 17 17 17 17 20 23 21 24 28 25 21 21 12 12 22
5 5 7 9 12 14 16 17 18 19 19 17 16 16 14 15 14 17 18 17 17 17 19 19 18 18 18 20 18 18 18 18 21 24 26 26 25 29 27 24 15 12 13
2 6 8 10 12 14 16 16 16 16 18 18 16 16 17 18 19 17 16 16 16 17 19 19 20 19 18 18 18 19 19 19 21 22 26 28 29 27 31 30 29 17 12
1 4 7 9 10 12 12 15 16 15 15 14 14 14 14 15 17 16 17 17 19 20 20 21 22 21 20 19 18 18 19 18 20 20 24 26 28 27 29 29 30 28 23
3 3 6 9 9 11 13 14 15 15 15 15 15 15 16 19 16 18 18 20 20 21 22 23 23 24 23 23 21 19 18 19 19 19 19 23 21 27 27 28 28 27 27
4 4 6 8 9 11 12 13 13 14 14 13 13 14 14 15 17 18 20 21 22 21 23 25 26 29 28 27 22 19 18 19 20 20 18 18 23 17 25 27 26 26 26
5 4 5 6 8 9 10 12 12 12 12 13 13 14 16 17 18 18 18 19 20 21 23 26 30 29 31 29 24 20 21 19 20 21 19 21 26 27 25 19 18 24 25
5 4 4 7 8 9 11 11 12 12 12 13 14 15 17 17 18 17 18 20 20 21 24 27 29 30 33 31 28 24 24 24 23 25 23 26 29 28 27 21 22 20 25
6 5 5 6 7 9 10 11 11 12 12 13 14 15 15 15 17 18 19 19 20 23 25 26 30 31 35 35 31 24 25 26 26 29 28 27 30 28 24 21 20 19 21
8 7 6 6 7 8 9 11 11 12 12 15 16 17 17 18 20 19 20 21 21 23 25 27 27 32 34 36 30 26 24 27 29 32 32 32 38 38 29 25 20 21 24
10 8 7 6 7 8 8 11 11 11 14 16 17 18 18 20 21 20 21 22 23 20 23 25 27 30 36 37 32 27 26 27 29 31 37 36 41 45 39 33 27 26 24
12 9 9 7 6 6 7 6 11 12 14 15 16 18 17 17 18 20 22 21 20 22 23 25 26 27 33 37 35 28 27 28 31 34 39 37 39 44 38 34 35 34 34
14 12 10 9 8 9 8 9 9 13 13 14 15 17 18 18 18 21 19 19 20 22 23 24 27 30 34 38 39 33 29 30 30 31 33 39 38 41 40 36 34 32 35
15 14 13 12 13 10 10 12 11 12 14 14 15 14 16 18 20 18 19 19 20 20 20 22 27 26 30 35 36 35 29 26 27 28 31 37 37 38 38 36 32 30 31
17 15 13 15 14 12 14 14 12 11 10 11 13 14 13 16 17 18 19 20 21 19 21 22 24 28 30 33 36 36 32 27 25 27 31 34 35 34 37 37 37 31 29
17 14 14 12 10 10 12 13 13 11 11 12 12 14 15 15 17 20 21 20 20 22 21 23 25 28 30 31 32 33 31 29 25 27 28 28 31 32 34 38 36 34 33
15 13 14 13 10 9 9 10 9 8 9 10 12 12 13 15 17 20 19 19 19 22 23 22 24 25 27 29 30 30 30 30 25 23 25 26 29 31 35 36 37 38 36
15 14 14 13 11 9 9 9 8 8 8 8 9 9 12 14 16 16 17 19 19 19 20 21 21 22 25 28 28 28 27 26 28 26 27 27 27 29 31 36 38 38 37
15 14 14 13 12 9 8 8 7 7 8 8 9 9 10 11 11 13 16 16 19 20 20 19 21 23 25 28 27 30 31 29 28 26 31 36 37 37 36 34 34 35 35
16 16 14 14 12 10 10 9 7 7 7 8 8 9 9 8 9 8 11 16 15 16 18 19 20 19 22 24 25 26 29 28 25 30 31 30 29 30 31 33 33 33 33